     2.10           OBSERVATION DATA    G (GPS)             RINEX VERSION / TYPE
teqc 2000Jul20 Karen Wendt 20040525 20:58:23UTC             PGM / RUN BY / DATE
Linux 2.0.36|Pentium II|gcc -static|Linux|486/DX+           COMMENT
teqc 2000Jul20 Karen Wendt 20040525 20:58:23UTC             COMMENT
BIT 2 OF LLI FLAGS DATA COLLECTED UNDER A/S CONDITION       COMMENT
magu Maguire_1939_US_Dept_Agr_FS                            MARKER NAME
GDH USGS                                                    OBSERVER / AGENCY
LP020000801 ASHTECH UZ-12 ZE00                              REC # / TYPE / VERS
CR520031622 ASH701945E_M NONE                               ANT # / TYPE
 -2453814.0000 -4286322.0000  4025101.0000                  APPROX POSITION XYZ
        0.6513        0.0000        0.0000                  ANTENNA: DELTA H/E/N
     1     1                                                WAVELENGTH FACT L1/2
     5    C1    L1    L2    P1    P2                        # / TYPES OF OBSERV
    30.0000                                                 INTERVAL
                                                            COMMENT
National Earthquake Hazard Reduction Program                COMMENT
Crustal Strain Project                                      COMMENT
345 Middlefield Road, MS/977                                COMMENT
U.S. Geological Survey, Menlo Park, California 94025        COMMENT
Contact: kwendt@usgs.gov (Ph: 650-329-4866)                 COMMENT
Antenna height is vertical to base of antenna               COMMENT
                                                            COMMENT
SNR is mapped to RINEX snr flag value [1-9]                 COMMENT
L1: 1 -> 1; 90 -> 5; 210 -> 9                               COMMENT
L2: 1 -> 1; 150 -> 5; 250 -> 9                              COMMENT
  2004     5    20    18    39   30.0000000     GPS         TIME OF FIRST OBS
                                                            END OF HEADER
 04  5 20 18 39 30.0000000  0  4G22G21G18G29
  21494862.531    17109489.50653  13341973.94752  21494862.122    21494859.613
  20404712.318    17273940.45153  13457949.06952  20404712.570    20404710.376
  20334552.806    17239593.94953  13433403.62352  20334552.934    20334550.899
  23776473.972    17405962.89653  13555315.37452  23776474.645    23776474.709
 04  5 20 18 40  0.0000000  0  9G22G21G 3G18G16G 6G15G29G26
  21483291.378    17048681.99843  13294591.48942  21483290.806    21483288.332
  20406326.202    17282420.74643  13464557.06542  20406326.315    20406324.145
  23290723.658    -1919103.12353  -1474486.44152  23290723.984    23290724.817
  20333410.426    17233590.41043  13428725.53442  20333410.469    20333408.494
  23576058.338    -1527848.54953  -1199011.90652  23576058.730    23576059.021
  22859098.957    -1348090.63653  -1075348.12052  22859099.445    22859100.911
  21569154.499    -1854207.09553  -1430412.31152  21569154.168    21569154.290
  23790632.485    17480364.96843  13613290.93542  23790632.826    23790633.002
  22413952.955    -1468865.40553  -1162014.27352  22413953.545    22413953.403
 04  5 20 18 40 30.0000000  0  9G22G21G 3G18G16G 6G15G29G26
  21471788.585    16988234.42443  13247489.49842  21471787.984    21471785.528
  20407996.353    17291197.13143  13471395.77542  20407996.391    20407994.246
  23274379.088    -2004994.75143  -1541414.95142  23274379.256    23274380.165
  20332348.525    17228009.84443  13424377.03242  20332348.500    20332346.564
  23584237.007    -1484869.85943  -1165522.10542  23584237.307    23584237.611
  22878199.974    -1247714.43943   -997133.04742  22878200.319    22878202.040
  21556674.867    -1919788.51743  -1481514.70642  21556674.417    21556674.558
  23804865.907    17555161.44743  13671573.83742  23804866.207    23804866.416
  22425474.471    -1408319.86543  -1114835.96642  22425474.996    22425474.914
 04  5 20 18 41  0.0000000  0  9G22G21G 3G18G16G 6G15G29G26
  21460353.138    16928140.57143  13200663.13542  21460352.498    21460350.063
  20409721.741    17300263.63643  13478460.55342  20409721.696    20409719.545
  23258091.768    -2090585.12443  -1608108.71642  23258091.892    23258092.874
  20331365.622    17222844.47443  13420352.05742  20331365.565    20331363.637
  23592495.420    -1441472.39043  -1131705.99442  23592495.496    23592495.939
  22897345.462    -1147105.44643   -918736.57742  22897345.655    22897347.345
  21544224.573    -1985215.47843  -1532496.74242  21544224.080    21544224.206
  23819172.544    17630343.08543  13730156.86742  23819172.791    23819172.950
  22437105.165    -1347200.46143  -1067210.50142  22437105.652    22437105.541
 04  5 20 18 41 30.0000000  0  9G22G21G 3G18G16G 6G15G29G26
  21448987.045    16868411.38543  13154120.91842  21448986.409    21448983.969
  20411504.451    17309631.44343  13485760.10942  20411504.345    20411502.192
  23241864.263    -2175861.12343  -1674557.52442  23241864.392    23241865.327
  20330463.603    17218104.11643  13416658.26442  20330463.517    20330461.585
  23600835.158    -1397647.80643  -1097557.07342  23600835.056    23600835.529
  22916536.763    -1046255.36543   -840152.24342  22916536.855    22916538.523
  21531805.845    -2050476.44043  -1583349.43042  21531805.330    21531805.441
  23833554.126    17705918.19143  13789046.49842  23833554.250    23833554.445
  22448846.666    -1285498.91743  -1019131.41042  22448847.132    22448846.928
 04  5 20 18 42  0.0000000  0  9G22G21G 3G18G16G 6G15G29G26
  21437689.042    16809039.88443  13107857.42542  21437688.380    21437685.961
  20413343.165    17319293.63643  13493289.06042  20413343.018    20413340.872
  23225695.557    -2260828.01743  -1740765.46542  23225695.656    23225696.644
  20329640.929    17213780.79143  13413289.42742  20329640.818    20329638.901
  23609254.193    -1353405.86943  -1063082.93542  23609254.088    23609254.603
  22935772.096     -945173.73843   -761387.48742  22935772.107    22935773.833
  21519417.440    -2115577.94043  -1634077.86042  21519416.937    21519417.039
  23848008.557    17781876.99743  13848235.11442  23848008.760    23848008.967
  22460697.067    -1223224.94443   -970606.27742  22460697.583    22460697.355
 04  5 20 18 42 30.0000000  0  9G22G21G 3G18G16G 6G15G29G26
  21426459.259    16750026.95243  13061873.33942  21426458.591    21426456.176
  20415238.054    17329251.05443  13501048.05242  20415237.863    20415235.750
  23209586.285    -2345482.75643  -1806730.16042  23209586.346    23209587.352
  20328897.468    17209873.84343  13410245.04042  20328897.357    20328895.454
  23617752.404    -1308748.43943  -1028285.03042  23617752.218    23617752.754
  22955051.224     -843862.18443   -682443.58442  22955051.154    22955052.893
  21507059.662    -2180518.54443  -1684680.91942  21507059.143    21507059.257
  23862535.757    17858217.50943  13907721.16342  23862535.932    23862536.206
  22472656.023    -1160380.40843   -921636.55342  22472656.476    22472656.350
 04  5 20 18 43  0.0000000  0  9G22G21G 3G18G16G 6G15G29G26
  21415299.013    16691379.43343  13016173.98442  21415298.352    21415295.943
  20417190.445    17339510.63543  13509042.50542  20417190.249    20417188.111
  23193538.108    -2429816.49843  -1872444.73842  23193537.997    23193539.126
  20328234.330    17206388.90443  13407529.49042  20328234.207    20328232.319
  23626330.954
  22974374.782     -742316.63643   -603317.33842  22974374.707    22974376.518
  21494733.932    -2245290.80443  -1735152.79542  21494733.382    21494733.504
  23877136.362    17934943.89943  13967507.89042  23877136.470    23877136.884
  22484724.351    -1096961.13843   -872218.98042  22484724.745    22484724.717
 04  5 20 18 43 30.0000000  0  9G22G21G 3G18G16G 6G15G29G26
  21404206.621    16633088.48143  12970752.47542  21404205.959    21404203.559
  20419198.677    17350063.64043  13517265.59142  20419198.454    20419196.340
  23177549.705    -2513835.88243  -1937914.36142  23177549.614    23177550.756
  20327649.534    17203315.71743  13405134.78442  20327649.415    20327647.553
  23634985.731      -77104.36053    -73411.42852  23634985.612    23634987.496
  22993740.806     -640548.35643   -524017.54542  22993740.656    22993742.516
  21482438.611    -2309903.12643  -1785500.05642  21482438.047    21482438.196
  23891808.145    18012044.27343  14027586.01742  23891808.209    23891808.708
  22496899.785    -1032978.78343   -822362.64842  22496900.196    22496900.226
 04  5 20 18 44  0.0000000  0  9G22G21G 3G18G16G 6G15G29G26
  21393182.868    16575158.24543  12925612.05042  21393182.213    21393179.815
  20421263.562    17360914.40643  13525720.70542  20421263.328    20421261.210
  23161622.357    -2597534.59843  -2003134.10842  23161622.268    23161623.356
  20327143.791    17200657.90543  13403063.74842  20327143.659    20327141.823
  23643719.197      -31209.77943    -37649.46042  23643719.348    23643720.663
  23013149.503     -538555.85043   -444543.02742  23013149.323    23013151.202
  21470174.664    -2374350.63043  -1835718.88142  21470174.083    21470174.241
  23906551.441    18089520.35343  14087956.91442  23906551.477    23906552.009
  22509182.695     -968431.89243   -772066.40442  22509183.088    22509183.124
 04  5 20 18 44 30.0000000  0  9G22G21G 3G18G16G 6G15G29G26
  21382227.764    16517588.66843  12880752.65642  21382227.103    21382224.685
  20423385.190    17372063.36743  13534408.18242  20423384.919    20423382.805
  23145756.334    -2680910.68243  -2068102.46042  23145756.354    23145757.355
  20326716.737    17198413.52443  13401314.87042  20326716.591    20326714.762
  23652530.150       15091.39643     -1570.72142  23652530.244    23652531.331
  23032600.286     -436341.94443   -364895.98442  23032600.088    23032602.011
  21457942.181    -2438632.81943  -1885808.88842  21457941.585    21457941.761
  23921365.566    18167369.25043  14148618.39842  23921365.665    23921366.202
  22521572.534     -903323.34143   -721332.50842  22521572.906    22521572.890
 04  5 20 18 45  0.0000000  0  9G22G21G 3G18G16G 6G15G29G26
  21371341.858    16460382.87443  12836176.73042  21371341.190    21371338.794
  20425564.139    17383513.67143  13543330.47142  20425563.854    20425561.756
  23129952.732    -2763959.07143  -2132815.47842  23129952.785    23129953.710
  20326368.754    17196584.74543  13399889.83442  20326368.608    20326366.778
  23661418.572       61799.77143     34825.32742  23661418.570    23661419.520
  23052093.369     -333905.91943   -285075.87142  23052093.145    23052095.020
  21445741.935    -2502745.62543  -1935766.91242  21445741.329    21445741.481
  23936250.804    18245591.18143  14209570.47242  23936250.857    23936251.411
  22534069.288     -837652.71243   -670160.62142  22534069.638    22534069.626
 04  5 20 18 45 30.0000000  0  9G22G21G 3G18G16G 6G15G29G26
  21360524.067    16403535.07743  12791879.75842  21360523.414    21360521.012
  20427799.318    17395259.42543  13552482.97642  20427798.995    20427796.939
  23114210.829    -2846683.43443  -2197275.98942  23114210.873    23114211.773
  20326098.509    17195164.51743  13398783.14942  20326098.355    20326096.531
  23670382.815      108906.21243     71531.54542  23670382.611    23670383.439
  23071627.071     -231256.12943   -205089.19042  23071626.843    23071628.795
  21433572.859    -2566694.56243  -1985597.24442  21433572.247    21433572.408
  23951205.450    18324177.64543  14270806.62542  23951205.453    23951205.930
  22546671.359     -771428.55843   -618557.42542  22546671.700    22546671.724
 04  5 20 18 46  0.0000000  0  9G22G21G 3G18G16G 6G15G29G26
  21349775.565    16347051.33343  12747866.46142  21349774.932    21349772.513
  20430091.987    17407307.29443  13561870.89842  20430091.666    20430089.607
  23098532.076    -2929075.83843  -2261477.84042  23098532.114    23098533.018
  20325906.868    17194157.46343  13397998.41542  20325906.733    20325904.902
  23679423.440      156414.32043    108550.74742  23679423.158    23679424.009
  23091202.148     -128389.28743   -124933.37342  23091201.898    23091203.880
  21421436.232    -2630473.02743  -2035294.74242  21421435.611    21421435.785
  23966229.871    18403131.87943  14332329.34342  23966229.947    23966230.483
  22559379.296     -704647.82343   -566520.53442  22559379.677    22559379.709
 04  5 20 18 46 30.0000000  0  9G22G21G 3G18G16G 6G15G29G26
  21339095.606    16290927.72443  12704133.78642  21339094.961    21339092.536
  20432441.426    17419653.45843  13571491.25742  20432441.091    20432439.053
  23082916.234    -3011137.73143  -2325422.14142  23082916.136    23082917.118
  20325792.938    17193558.48243  13397531.66242  20325792.765    20325790.948
  23688539.276      204317.56643    145877.85742  23688538.921    23688539.679
  23110817.312      -25311.52743    -44613.20842  23110817.116    23110819.108
  21409331.497    -2694083.86343  -2084861.61642  21409330.858    21409331.065
  23981323.168    18482447.63043  14394133.75642  23981323.313    23981323.874
  22572191.961     -637317.03843   -514055.03242  22572192.305    22572192.378
 04  5 20 18 47  0.0000000  0  9G22G21G 3G18G16G 6G15G29G26
  21328485.195    16235169.57443  12660685.89042  21328484.571    21328482.113
  20434848.606    17432303.06243  13581348.06442  20434848.265    20434846.223
  23067364.678    -3092861.61943  -2389103.07142  23067364.707    23067365.629
  20325757.463    17193371.94843  13397386.29742  20325757.299    20325755.457
  23697730.738      252618.61943    183514.94542  23697730.426    23697731.223
  23130473.156       77979.84743     35873.41942  23130472.960    23130474.977
  21397259.764    -2757521.19143  -2134293.29042  21397259.116    21397259.337
  23996485.710    18562127.02843  14456221.52942  23996485.884    23996486.469
  22585109.795     -569433.57743   -461158.87442  22585110.100    22585110.226
 04  5 20 18 47 30.0000000  0  9G22G21G 3G18G16G 6G15G29G26
  21317943.845    16179774.27143  12617520.73342  21317943.199    21317940.739
  20437313.068    17445253.78443  13591439.50842  20437312.742    20437310.708
  23051877.348    -3174248.11943  -2452521.09742  23051877.402    23051878.278
  20325799.627    17193593.45743  13397558.89142  20325799.482    20325797.635
  23706996.793      301311.56543    221457.39042  23706996.558    23706997.282
  23150168.591      181479.42643    116522.27642  23150168.408    23150170.469
  21385220.606    -2820787.24543  -2183591.50642  21385219.978    21385220.210
  24011716.437    18642164.84943  14518588.58242  24011716.657    24011717.231
  22598131.669     -501003.17143   -407836.51842  22598131.991    22598132.121
 04  5 20 18 48  0.0000000  0  9G22G21G 3G18G16G 6G15G29G26
  21307471.411    16124741.16743  12574637.80542  21307470.766    21307468.277
  20439834.871    17458505.81643  13601765.73942  20439834.553    20439832.531
  23036454.497    -3255295.77443  -2515675.08542  23036454.514    23036455.459
  20325919.174    17194221.57843  13398048.32342  20325919.032    20325917.190
  23716336.980      350393.60443    259703.02942  23716336.675    23716337.364
  23169903.126      285184.28843    197331.07942  23169902.901    23169905.012
  21373214.125    -2883881.68643  -2232755.99342  21373213.496    21373213.730
  24027014.753    18722557.96643  14581232.53642  24027015.016    24027015.564
  22611257.062     -432029.00943   -354090.46642  22611257.365    22611257.563
 04  5 20 18 48 30.0000000  0  9G22G21G 3G18G16G 6G15G29G26
  21297068.026    16070071.02443  12532037.70742  21297067.381    21297064.887
  20442414.142    17472059.77243  13612327.23842  20442413.799    20442411.809
  23021096.732    -3336001.57243  -2578562.69842  23021096.705    23021097.647
  20326116.044    17195255.94343  13398854.31342  20326115.891    20326114.046
  23725750.683      399862.32743    298249.97942  23725750.372    23725751.057
  23189676.324      389092.54343    278298.36542  23189676.100    23189678.300
  21361240.594    -2946803.11843  -2281785.67642  21361239.925    21361240.206
  24042380.359    18803304.28743  14644151.70442  24042380.628    24042381.193
  22624485.517     -362513.09643   -299922.26342  22624485.843    22624486.032
 04  5 20 18 49  0.0000000  0  9G22G21G 3G18G16G 6G15G29G26
  21286733.386    16015762.24743  12489719.19442  21286732.757    21286730.270
  20445050.613    17485914.24043  13623122.89942  20445050.264    20445048.271
  23005804.097    -3416365.03843  -2641183.55942  23005804.086    23005805.009
  20326389.650    17196693.63243  13399974.57742  20326389.495    20326387.650
  23735237.081      449713.38443    337094.84242  23735236.808    23735237.537
  23209487.461      493200.13843    359420.97242  23209487.275    23209489.477
  21349299.844    -3009552.35643  -2330681.17942  21349299.153    21349299.435
  24057812.189    18884399.29543  14707342.56142  24057812.445    24057813.215
  22637816.207     -292460.01143   -245335.49642  22637816.543    22637816.767
 04  5 20 18 49 30.0000000  0  9G22G21G 3G18G16G 6G15G29G26
  21276467.801    15961816.20243  12447683.33442  21276467.158    21276464.681
  20447744.562    17500070.97243  13634154.09242  20447744.221    20447742.250
  22990577.263    -3496382.52543  -2703534.82242  22990577.276    22990578.174
  20326740.056    17198534.91143  13401409.32942  20326739.903    20326738.051
  23744796.008      499945.58643    376236.71142  23744795.765    23744796.482
  23229336.294      597505.80943    440697.94342  23229336.153    23229338.379
  21337392.240    -3072127.25943  -2379440.83642  21337391.543    21337391.823
  24073310.243    18965841.68843  14770804.10142  24073310.427    24073311.258
  22651248.861     -221871.10343   -190331.20242  22651249.250    22651249.426
 04  5 20 18 50  0.0000000  0  9G22G21G 3G18G16G 6G15G29G26
  21266271.630    15908235.11143  12405931.85042  21266270.993    21266268.540
  20450496.531    17514532.46243  13645422.76242  20450496.173    20450494.212
  22975417.093    -3576049.67343  -2765613.08742  22975417.114    22975418.002
  20327167.379    17200780.44543  13403159.08842  20327167.243    20327165.384
  23754427.292      550558.07943    415674.91542  23754427.014    23754427.822
  23249222.836      702009.16443    522128.96842  23249222.604    23249224.864
  21325518.354    -3134524.80943  -2428062.29742  21325517.690    21325517.967
  24088874.311    19047630.96543  14834535.93442  24088874.480    24088875.330
  22664783.454     -150747.16643   -134910.00242  22664783.772    22664783.910
 04  5 20 18 50 30.0000000  0  9G22G21G 3G18G16G 6G15G29G26
  21256144.814    15855018.32643  12364464.24042  21256144.167    21256141.715
  20453306.415    17529298.32743  13656928.60742  20453306.064    20453304.101
  22960323.904    -3655364.60343  -2827416.89942  22960323.948    22960324.844
  20327671.283    17203428.51143  13405222.50642  20327671.160    20327669.315
  23764130.296      601547.74543    455407.01042  23764130.066    23764130.988
  23269146.423      806707.46743    603711.87542  23269146.119    23269148.421
  21313678.302    -3196744.64843  -2476545.27742  21313677.661    21313677.923
  24104503.771    19129763.89043  14898535.56642  24104503.860    24104504.727
  22678419.133      -79091.40243    -79074.39142  22678419.458    22678419.558
 04  5 20 18 51  0.0000000  0  9G22G21G 3G18G16G 6G15G29G26
  21246087.718    15802167.97343  12323282.16642  21246087.077    21246084.641
  20456174.653    17544370.91043  13668673.45342  20456174.297    20456172.358
  22945298.524    -3734323.63043  -2888943.39142  22945298.499    22945299.405
  20328251.994    17206480.15343  13407600.39842  20328251.884    20328250.066
  23773905.060      652913.78643    495432.38742  23773904.810    23773905.721
  23289106.923      911600.01543    685446.14342  23289106.620    23289109.030
  21301872.620    -3258783.92243  -2524887.55842  21301871.996    21301872.230
  24120198.479    19212239.84743  14962802.48642  24120198.571    24120199.365
  22692155.888       -6904.71943    -22825.07142  22692156.220    22692156.286
 04  5 20 18 51 30.0000000  0  9G22G21G 3G18G16G 6G15G29G26
  21236099.802    15749681.24943  12282383.43742  21236099.189    21236096.738
  20459100.800    17559747.75743  13680655.39242  20459100.446    20459098.504
  22930340.740    -3812927.22143  -2950192.91142  22930340.700    22930341.600
  20328908.752    17209931.39443  13410289.67042  20328908.640    20328906.833
  23783750.424      704650.81043    535746.83142  23783750.136    23783751.093
  23309103.445     1016681.64643    767327.75742  23309103.151    23309105.621
  21290100.955    -3320644.46543  -2573090.56742  21290100.327    21290100.564
  24135957.293    19295053.24843  15027332.32942  24135957.512    24135958.359
  22705992.532       65807.29843     33833.58942  22705992.890    22705992.939
 04  5 20 18 52  0.0000000  0  9G22G21G 3G18G16G 6G15G29G26
  21226181.563    15697560.44743  12241769.84142  21226180.909    21226178.469
  20462085.362    17575431.53143  13692876.49342  20462084.995    20462083.062
  22915451.498    -3891170.73243  -3011161.84642  22915451.454    22915452.347
  20329641.696    17213783.02143  13413290.93042  20329641.580    20329639.805
  23793666.273      756758.04243    576349.77342  23793665.920    23793666.831
  23329135.916     1121952.10043    849356.49142  23329135.623    23329138.117
  21278363.856    -3382323.29943  -2621151.98642  21278363.259    21278363.473
  24151780.440    19378203.91043  15092124.98642  24151780.643    24151781.505
  22719929.090      139043.99543     90901.08742  22719929.399    22719929.489
 04  5 20 18 52 30.0000000  0  9G22G21G 3G18G16G 6G15G29G26
  21216333.135    15645806.78943  12201442.33342  21216332.514    21216330.061
  20465128.602    17591423.70343  13705337.90642  20465128.245    20465126.295
  22900631.348    -3969050.91243  -3071847.67642  22900631.307    22900632.200
  20330450.863    17218035.08543  13416604.21842  20330450.715    20330448.961
  23803652.244      809233.89343    617239.92842  23803651.807    23803652.723
  23349204.075     1227410.13543    931531.41042  23349203.798    23349206.324
  21266661.762    -3443818.36543  -2669070.20942  21266661.140    21266661.329
  24167667.381    19461690.04143  15157179.06242  24167667.623    24167668.366
  22733965.182      212803.92443    148376.29842  22733965.497    22733965.556
 04  5 20 18 53  0.0000000  0  9G22G21G 3G18G16G 6G15G29G26
  21206554.745    15594421.12243  12161401.57142  21206554.130    21206551.702
  20468230.744    17607725.40643  13718040.51242  20468230.385    20468228.422
  22885880.966    -4046564.63643  -3132247.95542  22885880.946    22885881.772
  20331336.178    17222687.39243  13420229.38542  20331336.047    20331334.285
  23813707.966      862076.64243    658415.99042  23813707.546    23813708.443
  23369307.576     1333053.94543   1013851.08542  23369307.292    23369309.888
  21254994.946    -3505127.96043  -2716843.90942  21254994.332    21254994.519
  24183617.838    19545510.01543  15222493.25342  24183617.972    24183618.826
  22748100.420      287084.79243    206257.44442  22748100.750    22748100.833
 04  5 20 18 53 30.0000000  0  9G22G21G 3G18G16G 6G15G29G26
  21196845.491    15543398.75743  12121643.90242  21196844.864    21196842.454
  20471390.994    17624332.52243  13730981.10642  20471390.642    20471388.685
  22871199.838    -4123714.54043  -3192364.73242  22871199.803    22871200.603
  20332296.502    17227733.87143  13424161.69942  20332296.373    20332294.615
  23823832.071      915278.76743    699872.07842  23823831.681    23823832.640
  23389445.081     1438876.80243   1096310.27042  23389444.834    23389447.539
  21243362.722    -3566255.78843  -2764475.96842  21243362.130    21243362.268
  24199630.494    19629656.46943  15288061.84142  24199630.638    24199631.447
  22762333.402      361879.38043    264538.88442  22762333.700    22762333.859
 04  5 20 18 54  0.0000000  0  9G22G21G 3G18G16G 6G15G29G26
  21187207.132    15492748.85143  12082176.46442  21187206.503    21187204.105
  20474611.172    17641254.65143  13744167.16442  20474610.854    20474608.895
  22856590.138    -4200488.87143  -3252188.86142  22856590.129    22856590.904
  20333333.449    17233183.05543  13428407.80542  20333333.350    20333331.578
  23834025.810      968846.89143    741613.35542  23834025.437    23834026.437
  23409617.986     1544885.29343   1178914.10342  23409617.762    23409620.481
  21231767.044    -3627191.52643  -2811958.35242  21231766.459    21231766.570
  24215706.548    19714136.15043  15353890.11142  24215706.686    24215707.443
  22776665.288      437193.94643    323225.51042  22776665.555    22776665.787
 04  5 20 18 54 30.0000000  0  9G22G21G 3G18G16G 6G15G29G26
  21177636.654    15442455.67043  12042986.99242  21177636.032    21177633.612
  20477888.269    17658475.67443  13757586.12542  20477887.927    20477885.974
  22842049.366    -4276901.12643  -3311730.85442  22842049.382    22842050.099
  20334443.781    17239017.75243  13432954.31342  20334443.690    20334441.890
  23844285.488     1022761.93143    783624.96042  23844285.148    23844286.284
  23429822.757     1651061.07543   1261648.28742  23429822.510    23429825.234
  21220205.035    -3687950.25343  -2859302.80442  21220204.472    21220204.559
  24231842.304    19798930.23943  15419963.34542  24231842.489    24231843.294
  22791092.614      513009.78843    382302.73242  22791092.881    22791093.181
 04  5 20 18 55  0.0000000  0  9G22G21G 3G18G16G 6G15G29G26
  21168136.006    15392529.29543  12004083.33942  21168135.364    21168132.916
  20481224.333    17676006.61043  13771246.57642  20481223.990    20481222.026
  22827579.810    -4352939.20843  -3370981.28642  22827579.826    22827580.555
  20335629.110    17245246.51443  13437807.88142  20335629.000    20335627.196
  23854612.737     1077031.68443    825912.96342  23854612.376    23854613.659
  23450060.752     1757411.75443   1344518.75442  23450060.503    23450063.293
  21208678.871    -3748520.82443  -2906500.64742  21208678.287    21208678.353
  24248039.458    19884046.28443  15486287.47842  24248039.633    24248040.478
  22805616.620      589333.96143    441776.06842  22805616.949    22805617.266
 04  5 20 18 55 30.0000000  0  9G22G21G 3G18G16G 6G15G29G26
  21158704.607    15342966.97443  11965463.36142  21158703.988    21158701.510
  20484618.881    17693844.91143  13785146.53342  20484618.539    20484616.598
  22813181.362    -4428603.68543  -3429940.60342  22813181.382    22813182.071
  20336888.629    17251865.30243  13442965.36842  20336888.547    20336886.726
  23865006.421     1131650.40843    868472.88542  23865006.076    23865007.333
  23470331.033     1863932.21343   1427521.50542  23470330.777    23470333.672
  21197188.131    -3808905.05743  -2953553.28542  21197187.552    21197187.602
  24264296.759    19969478.85343  15552858.22442  24264296.962    24264297.769
  22820236.441      666160.95843    501641.20442  22820236.731    22820237.023
 04  5 20 18 56  0.0000000  0  9G22G21G 3G18G16G 6G15G29G26
  21149342.603    15293769.33843  11927127.56142  21149341.993    21149339.505
  20488072.160    17711991.83143  13799286.97442  20488071.818    20488069.869
  22798854.492    -4503891.74943  -3488606.59742  22798854.544    22798855.266
  20338222.326    17258873.79343  13448426.51942  20338222.245    20338220.419
  23875466.210     1186615.90943    911303.03242  23875465.731    23875467.026
  23490633.340     1970620.66143   1510655.16342  23490633.069    23490636.034
  21185733.180    -3869101.24843  -3000459.39242  21185732.599    21185732.653
  24280614.058    20055225.94043  15619674.08142  24280614.149    24280614.983
  22834951.340      743488.45643    561896.34542  22834951.688    22834952.039
 04  5 20 18 56 30.0000000  0  9G22G21G 3G18G16G 6G15G29G26
  21140049.708    15244934.76743  11889074.66742  21140049.075    21140046.586
  20491583.870    17730445.96243  13813666.80042  20491583.524    20491581.596
  22784599.452    -4578802.40643  -3546978.51842  22784599.509    22784600.228
  20339629.682    17266269.33043  13454189.26242  20339629.591    20339627.756
  23885991.103     1241923.80343    954399.98342  23885990.632    23885991.876
  23510966.839     2077473.15543   1593916.65642  23510966.570    23510969.538
  21174313.886    -3929110.10243  -3047219.52642  21174313.288    21174313.330
  24296990.331    20141283.45843  15686731.80442  24296990.467    24296991.197
  22849760.751      821312.15643    622538.13242  22849761.083    22849761.474
 04  5 20 18 57  0.0000000  0  9G22G21G 3G18G16G 6G15G29G26
  21130826.691    15196467.52743  11851308.00742  21130826.084    21130823.579
  20495154.938    17749212.07443  13828289.73042  20495154.606    20495152.666
  22770417.408    -4653329.44243  -3605051.50942  22770417.460    22770418.226
  20341111.354    17274055.48443  13460256.38442  20341111.278    20341109.429
  23896581.454     1297575.79043    997765.06142  23896580.980    23896582.205
  23531331.931     2184491.65043   1677307.51942  23531331.703    23531334.678
  21162931.244    -3988926.26243  -3093829.50942  21162930.660    21162930.681
  24313425.889    20227653.04243  15754032.71742  24313426.060    24313426.827
  22864664.816      899633.52743    683567.71542  22864665.191    22864665.515
 04  5 20 18 57 30.0000000  0  9G22G21G 3G18G16G 6G15G29G26
  21121673.344    15148366.37643  11813826.60842  21121672.738    21121670.214
  20498785.232    17768289.28143  13843155.06742  20498784.888    20498782.963
  22756308.577    -4727471.66143  -3662824.64842  22756308.612    22756309.399
  20342666.820    17282229.37543  13466625.63642  20342666.724    20342664.892
  23907236.491     1353567.75143   1041395.04142  23907236.059    23907237.246
  23551727.947     2291672.47643   1760824.84242  23551727.691    23551730.681
  21151585.223    -4048550.03043  -3140289.57542  21151584.631    21151584.654
  24329920.185    20314330.97843  15821573.89242  24329920.439    24329921.190
  22879662.819      978448.25743    744981.74042  22879663.158    22879663.494
 04  5 20 18 58  0.0000000  0  9G22G21G 3G18G16G 6G15G29G26
  21112590.216    15100634.35443  11776632.84142  21112589.620    21112587.092
  20502475.365    17787680.95043  13858265.44242  20502475.022    20502473.082
  22742273.992    -4801223.78143  -3720293.81042  22742274.044    22742274.813
  20344296.376    17290792.73143  13473298.36942  20344296.290    20344294.467
  23917956.231     1409899.85643   1085290.08142  23917955.822    23917956.971
  23572154.934     2399016.11543   1844469.03542  23572154.668    23572157.701
  21140276.597    -4107977.20743  -3186596.45542  21140276.007    21140276.015
  24346473.096    20401317.29143  15889355.39142  24346473.392    24346474.181
  22894754.736     1057756.56943    806780.38942  22894755.069    22894755.450
 04  5 20 18 58 30.0000000  0  9G22G21G 3G18G16G 6G15G29G26
  21103577.205    15053270.66343  11739726.08942  21103576.623    21103574.081
  20506225.232    17807386.55243  13873620.43742  20506224.914    20506222.968
  22728313.953    -4874584.46143  -3777457.95442  22728313.969    22728314.709
  20345999.663    17299743.57843  13480273.04442  20345999.583    20345997.765
  23928739.945     1466568.43643   1129447.30142  23928739.596    23928740.802
  23592612.230     2506519.22243   1928237.48942  23592611.976    23592615.010
  21129005.470    -4167207.49843  -3232749.92042  21129004.854    21129004.864
  24363084.250    20488608.74943  15957374.62342  24363084.493    24363085.327
  22909939.903     1137554.73043    868960.72442  22909940.219    22909940.626
 04  5 20 18 59  0.0000000  0  9G22G21G 3G18G16G 6G15G29G26
  21094633.673    15006272.15643  11703103.89842  21094633.097    21094630.571
  20510034.401    17827403.79643  13889218.27342  20510034.106    20510032.149
  22714428.257    -4947554.44543  -3834317.66242  22714428.260    22714428.986
  20347775.854    17309077.50843  13487546.22642  20347775.778    20347773.962
  23939586.590     1523567.67743   1173862.16342  23939586.238    23939587.545
  23613098.906     2614176.58043   2012126.14642  23613098.680    23613101.737
  21117771.402    -4226242.88543  -3278751.50742  21117770.793    21117770.788
  24379752.313    20576199.66843  16025627.22542  24379752.537    24379753.375
  22925217.069     1217836.67543    931518.03642  22925217.400    22925217.759
 04  5 20 18 59 30.0000000  0  9G22G21G 3G18G16G 6G15G29G26
  21085760.476    14959643.21643  11666769.67742  21085759.889    21085757.368
  20513903.760    17847737.26243  13905062.51442  20513903.451    20513901.502
  22700618.149    -5020127.17743  -3890867.83542  22700618.145    22700618.834
  20349625.638    17318798.12943  13495120.72642  20349625.551    20349623.732
  23950496.543     1580899.25643   1218536.01142  23950496.129    23950497.525
  23633615.336     2721990.18043   2096136.54242  23633615.077    23633618.137
  21106575.463    -4285077.97543  -3324597.01942  21106574.835    21106574.833
  24396477.635    20664091.81943  16094114.54742  24396477.902    24396478.649
  22940586.578     1298603.92143    994453.50042  22940586.923    22940587.312
 04  5 20 19  0  0.0000000  0  9G22G21G 3G18G16G 6G15G29G26
  21076956.977    14913380.50243  11630720.83042  21076956.401    21076953.866
  20517832.672    17868383.81243  13921150.71642  20517832.400    20517830.422
  22686883.364    -5092303.84343  -3947109.37342  22686883.391    22686884.019
  20351548.135    17328900.84943  13502992.96442  20351548.050    20351546.239
  23961468.606     1638557.13743   1263464.10442  23961468.230    23961469.650
  23654160.400     2829954.27943   2180264.19142  23654160.127    23654163.219
  21095417.207    -4343714.96043  -3370288.16142  21095416.602    21095416.568
  24413259.191    20752279.26043  16162831.96942  24413259.522    24413260.146
  22956047.362     1379850.25043   1057762.28142  22956047.615    22956048.018
 04  5 20 19  0 30.0000000  0  9G22G21G 3G18G16G 6G15G29G26
  21068222.985    14867482.99043  11594956.55342  21068222.393    21068219.847
  20521821.107    17889343.12243  13937482.63242  20521820.840    20521818.863
  22673224.196    -5164082.99343  -4003041.14542  22673224.271    22673224.876
  20353542.894    17339383.38543  13511161.16342  20353542.830    20353541.016
  23972501.922     1696537.30143   1308643.34142  23972501.599    23972503.006
  23674733.474     2938065.54543   2264506.53542  23674733.159    23674736.314
  21084296.669    -4402153.69843  -3415824.82642  21084296.085    21084296.039
  24430096.318    20840758.37043  16231776.65942  24430096.752    24430097.250
  22971598.448     1461571.77643   1121441.33742  22971598.731    22971599.145
 04  5 20 19  1  0.0000000  0  9G22G21G 3G18G16G 6G15G29G26
  21059559.091    14821953.97543  11559479.41742  21059558.494    21059555.950
  20525869.843    17910619.20443  13954061.37842  20525869.574    20525867.572
  22659641.771    -5235459.09743  -4058658.87842  22659641.867    22659642.431
  20355610.363    17350247.94043  13519627.04042  20355610.307    20355608.482
  23983596.729     1754840.57143   1354074.34742  23983596.396    23983597.805
  23695334.760     3046324.87943   2348864.24242  23695334.348    23695337.574
  21073214.738    -4460389.74343  -3461203.54842  21073214.130    21073214.108
  24446988.981    20929530.04743  16300949.32242  24446989.444    24446990.052
  22987240.054     1543768.89943   1185491.00242  22987240.386    22987240.837
 04  5 20 19  1 30.0000000  0  9G22G21G 3G18G16G 6G15G29G26
  21050964.921    14776791.36343  11524287.79242  21050964.339    21050961.770
  20529978.455    17932209.98943  13970885.34642  20529978.199    20529976.167
  22646136.058    -5306432.20443  -4113962.57842  22646136.153    22646136.684
  20357749.884    17361491.05843  13528387.89842  20357749.841    20357748.003
  23994752.045     1813461.66043   1399753.00442  23994751.708    23994753.173
  23715963.125     3154727.71843   2433333.78642  23715962.861    23715966.110
  21062171.129    -4518424.16443  -3506425.16642  21062170.546    21062170.511
  24463936.438    21018589.22643  16370346.04142  24463936.857    24463937.535
  23002971.286     1626436.45443   1249907.23942  23002971.597    23002972.023
 04  5 20 19  2  0.0000000  0 10G22G21G 3G18G16G 6G15G14G29G26
  21042439.367    14731989.25543  11489377.07642  21042438.771    21042436.186
  20534145.944    17954110.12343  13987950.36342  20534145.676    20534143.663
  22632706.352    -5377005.76343  -4168954.94542  22632706.451    22632706.978
  20359960.140    17373106.08043  13537438.55442  20359960.133    20359958.295
  24005966.287     1872392.15243   1445672.74542  24005965.839    24005967.439
  23736617.463     3263265.95243   2517908.80942  23736617.142    23736620.464
  21051165.038    -4576261.57743  -3551493.27742  21051164.468    21051164.426
  24664833.085    -4265422.53753  -3262735.38652  24664833.827    24664837.767
  24480937.187    21107927.88643  16439960.49742  24480937.314    24480938.216
  23018790.290     1709565.76843   1314683.27142  23018790.656    23018791.067
 04  5 20 19  2 30.0000000  0 10G22G21G 3G18G16G 6G15G14G29G26
  21033984.993    14687561.23543  11454757.85942  21033984.411    21033981.799
  20538374.978    17976333.86343  14005267.54242  20538374.724    20538372.714
  22619355.687    -5447163.94143  -4223623.63642  22619355.813    22619356.284
  20362243.544    17385105.27543  13546788.56342  20362243.525    20362241.691
  24017241.424     1931642.86643   1491842.01842  24017240.938    24017242.651
  23757299.684     3371950.93243   2602598.18842  23757299.417    23757302.753
  21040199.242    -4633887.09043  -3596396.26742  21040198.698    21040198.652
  24642943.561    -4380452.41743  -3352368.90142  24642944.021    24642948.206
  24497993.099    21197556.91543  16509801.23642  24497993.156    24497994.250
  23034699.283     1793167.72943   1379827.59042  23034699.630    23034700.052
 04  5 20 19  3  0.0000000  0 10G22G21G 3G18G16G 6G15G14G29G26
  21025600.453    14643500.08043  11420424.51142  21025599.876    21025597.218
  20542664.346    17998874.48243  14022831.63942  20542664.066    20542662.081
  22606083.094    -5516911.69043  -4277972.51642  22606083.239    22606083.738
  20364598.397    17397480.01643  13556431.20542  20364598.381    20364596.544
  24028575.627     1991203.95243   1538253.13842  24028575.143    24028576.871
  23778008.004     3480772.99943   2687394.38542  23778007.745    23778011.154
  21029272.661    -4691306.60643  -3641138.73842  21029272.111    21029272.082
  24621055.705    -4495472.61643  -3441994.84442  24621056.357    24621060.568
  24515102.450    21287466.61043  16579860.66842  24515102.565    24515103.548
  23050696.257     1877232.08343   1445332.25642  23050696.577    23050696.967
 04  5 20 19  3 30.0000000  0 10G22G21G 3G18G16G 6G15G14G29G26
  21017285.402    14599804.26543  11386375.84342  21017284.828    21017282.187
  20547013.814    18021730.99243  14040641.88342  20547013.539    20547011.566
  22592888.782    -5586248.32643  -4332001.05642  22592888.925    22592889.388
  20367024.268    17410227.98043  13566364.67442  20367024.272    20367022.426
  24039968.053     2051071.06643   1584902.72142  24039967.591    24039969.253
  23798741.679     3589728.46343   2772294.52342  23798741.424    23798744.855
  21018385.192    -4748520.61343  -3685721.07742  21018384.651    21018384.609
  24599169.975    -4610482.05243  -3531612.41642  24599170.704    24599174.830
  24532264.259    21377652.88943  16650135.61842  24532264.300    24532265.431
  23066780.324     1961754.57043   1511193.92542  23066780.732    23066781.122
 04  5 20 19  4  0.0000000  0 10G22G21G 3G18G16G 6G15G14G29G26
  21009040.246    14556475.80043  11352613.42542  21009039.692    21009037.034
  20551423.829    18044905.60543  14058700.00442  20551423.536    20551421.565
  22579773.478    -5655169.50943  -4385705.85542  22579773.611    22579774.126
  20369521.338    17423350.06343  13576589.66142  20369521.339    20369519.507
  24051418.530     2111243.28743   1631790.05442  24051418.027    24051419.763
  23819500.705     3698816.94843   2857298.31142  23819500.422    23819503.941
  21007537.457    -4805525.70743  -3730140.62142  21007536.924    21007536.912
  24577287.112    -4725476.42643  -3621218.25342  24577287.792    24577291.944
  24549478.780    21468115.17543  16720625.63242  24549478.905    24549480.096
  23082951.474     2046733.91143   1577411.54242  23082951.805    23082952.187
 04  5 20 19  4 30.0000000  0 10G22G21G 3G18G16G 6G15G14G29G26
  21000864.697    14513513.09243  11319136.01442  21000864.166    21000861.483
  20555894.179    18068397.27543  14077005.18042  20555893.909    20555891.888
  22566737.394    -5723674.52643  -4439086.37642  22566737.542    22566738.057
  20372089.047    17436843.35743  13587103.90442  20372089.049    20372087.198
  24062926.254     2171716.17543   1678911.67442  24062925.788    24062927.439
  23840284.257     3808034.58943   2942402.74842  23840284.016    23840287.663
  20996729.410    -4862322.49243  -3774397.85042  20996728.862    20996728.858
  24555407.289    -4840454.63753  -3710811.48052  24555408.244    24555412.122
  24566745.004    21558849.46743  16791327.63342  24566745.151    24566746.269
  23099208.695     2132165.74443   1643981.78442  23099209.021    23099209.370
 04  5 20 19  5  0.0000000  0 10G22G21G 3G18G16G 6G15G14G29G26
  20992758.962    14470917.22143  11285944.44642  20992758.427    20992755.728
  20560425.240    18092207.95843  14095558.93842  20560424.967    20560422.935
  22553781.193    -5791759.74643  -4492139.78742  22553781.323    22553781.864
  20374727.439    17450708.21443  13597907.67742  20374727.439    20374725.606
  24074490.797     2232488.04743   1726266.25942  24074490.412    24074492.072
  23861092.247     3917380.24543   3027606.92942  23861091.978    23861095.662
  20985961.492    -4918908.36743  -3818490.73542  20985960.923    20985960.927
  24533531.388    -4955412.60743  -3800388.96442  24533532.357    24533536.102
  24584062.632    21649854.33543  16862240.42742  24584062.714    24584063.951
  23115551.693     2218048.46643   1710903.35242  23115552.050    23115552.312
 04  5 20 19  5 30.0000000  0 10G22G21G 3G18G16G 6G15G14G29G26
  20984722.475    14428685.36843  11253036.53442  20984721.956    20984719.266
  20565016.491    18116335.14743  14114359.32242  20565016.244    20565014.210
  22540904.777    -5859425.75243  -4544866.52242  22540904.885    22540905.439
  20377435.762    17464940.53643  13608997.78542  20377435.768    20377433.936
  24086111.370     2293553.80543   1773849.85442  24086111.004    24086112.573
  23881923.671     4026848.89143   3112906.94642  23881923.449    23881927.008
  20975233.410    -4975284.76843  -3862420.39342  20975232.842    20975232.858
  24511659.272    -5070350.48543  -3889950.75842  24511660.143    24511664.150
  24601430.940    21741124.52443  16933359.98342  24601431.048    24601432.161
  23131979.421     2304376.40743   1778171.83542  23131979.800    23131980.043
 04  5 20 19  6  0.0000000  0 10G22G21G 3G18G16G 6G15G14G29G26
  20976756.357    14386823.02743  11220416.55042  20976755.811    20976753.113
  20569669.160    18140785.01043  14133411.14342  20569668.911    20569666.906
  22528109.647    -5926664.59243  -4597260.41342  22528109.749    22528110.304
  20380214.847    17479544.73543  13620377.66642  20380214.871    20380213.039
  24097788.189     2354915.96243   1821664.40742  24097787.866    24097789.545
  23902779.069     4136443.74643   3198305.30842  23902778.863    23902782.421
  20964546.460    -5031444.99443  -3906181.60342  20964545.907    20964545.920
  24489792.477    -5185260.07343  -3979490.51042  24489793.270    24489797.478
  24618850.082    21832663.15943  17004688.72142  24618850.283    24618851.590
  23148492.321     2391152.24243   1845789.30842  23148492.696    23148492.981
 04  5 20 19  6 30.0000000  0 10G22G21G 3G18G16G 6G15G14G29G26
  20968859.346    14345324.21343  11188079.83342  20968858.821    20968856.126
  20574382.159    18165551.83343  14152709.94242  20574381.913    20574379.918
  22515395.061    -5993480.27143  -4649324.56542  22515395.121    22515395.695
  20383063.339    17494513.58243  13632041.69142  20383063.362    20383061.513
  24109519.825     2416565.53643   1869702.92542  24109519.418    24109521.245
  23923656.889     4246156.31143   3283795.39342  23923656.688    23923660.332
  20953899.735    -5087393.88143  -3949778.13142  20953899.186    20953899.200
  24467930.395    -5300145.21843  -4069011.21142  24467931.324    24467935.441
  24636318.734    21924461.36243  17076219.70242  24636319.012    24636320.137
  23165088.699     2478366.66243   1913748.54342  23165089.121    23165089.399
 04  5 20 19  7  0.0000000  0 10G22G21G 3G18G16G 6G15G14G29G26
  20961032.563    14304194.34343  11156030.60542  20961032.041    20961029.358
  20579156.641    18190641.76543  14172260.51242  20579156.381    20579154.419
  22502762.428    -6059865.13843  -4701053.01542  22502762.498    22502763.091
  20385982.045    17509851.38243  13643993.21042  20385982.060    20385980.223
  24121306.648     2478505.22943   1917967.50142  24121306.237    24121307.957
  23944557.652     4355990.03243   3369379.85942  23944557.494    23944561.256
  20943294.565    -5143124.50143  -3993204.57942  20943293.987    20943294.009
  24446074.667    -5414997.34043  -4158506.18642  24446075.542    24446079.674
  24653837.505    22016522.26443  17147955.39942  24653837.690    24653838.724
  23181769.087     2566022.38243   1982051.63842  23181769.480    23181769.795
 04  5 20 19  7 30.0000000  0 10G22G21G 3G18G16G 6G15G14G29G26
  20953274.718    14263426.62543  11124263.57242  20953274.179    20953271.492
  20583991.411    18216048.60243  14192058.02542  20583991.150    20583989.213
  22490210.926    -6125823.55943  -4752449.17542  22490211.020    22490211.601
  20388969.532    17525550.55243  13656226.31842  20388969.531    20388967.704
  24133146.906     2540725.90943   1966451.03842  24133146.510    24133148.414
  23965479.786     4465935.92843   3455051.73742  23965479.640    23965483.577
  20932729.906    -5198642.13943  -4036465.07042  20932729.328    20932729.362
  24424224.581    -5529820.35243  -4247978.46642  24424225.360    24424229.358
  24671404.400    22108836.87043  17219888.77642  24671404.696    24671405.801
  23198531.742     2654109.91943   2050691.22642  23198532.077    23198532.344
 04  5 20 19  8  0.0000000  0 10G22G21G 3G18G16G 6G15G14G29G26
  20945586.828    14223026.66043  11092783.10242  20945586.306    20945583.616
  20588887.655    18241778.42843  14212107.21842  20588887.375    20588885.445
  22477742.095    -6191347.62443  -4803506.86742  22477742.206    22477742.779
  20392026.617    17541615.64743  13668744.55942  20392026.622    20392024.803
  24145041.165     2603230.28043   2015155.61042  24145040.809    24145042.643
  23986423.951     4575997.26243   3540813.57842  23986423.744    23986427.751
  20922207.097    -5253939.97143  -4079554.28042  20922206.508    20922206.512
  24402381.418    -5644606.26943  -4337421.83942  24402382.228    24402386.202
  24689020.219    22201408.26443  17292022.25642  24689020.404    24689021.541
  23215376.916     2742632.00143   2119669.40542  23215377.287    23215377.631
 04  5 20 19  8 30.0000000  0 10G22G21G 3G18G16G 6G15G14G29G26
  20937968.611    14182992.73643  11061587.85242  20937968.089    20937965.382
  20593845.102    18267829.93643  14232407.06942  20593844.822    20593842.916
  22465356.009    -6256436.88243  -4854225.75442  22465356.116    22465356.693
  20395152.731    17558043.35843  13681545.35742  20395152.717    20395150.911
  24156988.565     2666013.62343   2064077.58442  24156988.337    24156990.005
  24007389.313     4686169.96243   3626662.20342  24007389.124    24007393.087
  20911726.035    -5309018.37843  -4122472.51442  20911725.459    20911725.435
  24380545.560    -5759353.93243  -4426835.42042  24380546.296    24380550.187
  24706683.940    22294231.99943  17364352.37442  24706684.202    24706685.381
  23232303.866     2831583.66243   2188982.33542  23232304.242    23232304.639
 04  5 20 19  9  0.0000000  0 10G22G21G 3G18G16G 6G15G14G29G26
  20930420.087    14143325.03443  11030677.97542  20930419.565    20930416.876
  20598863.942    18294204.08343  14252958.33042  20598863.676    20598861.781
  22453053.168    -6321088.57343  -4904603.68142  22453053.313    22453053.861
  20398347.761    17574833.27443  13694628.39442  20398347.758    20398345.920
  24168988.650     2729073.81643   2113215.29442  24168988.371    24168990.048
  24028375.546     4796452.41043   3712596.33542  24028375.305    24028379.345
  20901287.087    -5363875.46743  -4165218.29142  20901286.508    20901286.469
  24358717.583    -5874060.38843  -4516216.87742  24358718.287    24358722.031
  24724395.473    22387306.26943  17436877.70742  24724395.745    24724396.881
  23249312.118     2920962.57543   2258628.17142  23249312.511    23249312.896
 04  5 20 19  9 30.0000000  0 10G22G21G 3G18G16G 6G15G14G29G26
  20922940.633    14104020.28343  11000050.91942  20922940.108    20922937.407
  20603943.698    18320898.19843  14273758.91542  20603943.430    20603941.528
  22440833.403    -6385303.81243  -4954641.51642  22440833.521    22440834.070
  20401610.854    17591980.88443  13707990.15242  20401610.846    20401609.028
  24181040.224     2792404.72343   2162563.93342  24181039.899    24181041.697
  24049381.579     4906838.90743   3798611.53642  24049381.286    24049385.323
  20890889.827    -5418513.38943  -4207793.28442  20890889.279    20890889.207
  24336897.243    -5988726.12243  -4605566.62042  24336897.971    24336901.614
  24742153.489    22480625.09643  17509593.61642  24742153.806    24742155.011
  23266400.535     3010762.53543   2328602.10342  23266400.921    23266401.350
 04  5 20 19 10  0.0000000  0 10G22G21G 3G18G16G 6G15G14G29G26
  20915531.000    14065082.38843  10969709.71542  20915530.484    20915527.758
  20609085.131    18347916.51043  14294812.12242  20609084.860    20609082.966
  22428697.787    -6449076.60943  -5004334.59342  22428697.960    22428698.484
  20404942.534    17609489.00243  13721632.82342  20404942.550    20404940.732
  24193143.399     2856007.30643   2212124.27942  24193143.241    24193144.940
  24070407.768     5017331.15143   3884709.13442  24070407.537    24070411.483
  20880535.281    -5472926.87543  -4250193.39842  20880534.725    20880534.660
  24315085.904    -6103344.46443  -4694879.41742  24315086.854    24315090.315
  24759958.294    22574190.01943  17582501.27042  24759958.690    24759959.950
  23283569.255     3100984.61243   2398904.95142  23283569.647    23283570.095
 04  5 20 19 10 30.0000000  0 10G22G21G 3G18G16G 6G15G14G29G26
  20908190.677    14026508.76943  10939652.37142  20908190.170    20908187.424
  20614287.947    18375257.27543  14316116.59142  20614287.664    20614285.757
  22416646.443    -6512406.82843  -5053682.79842  22416646.620    22416647.124
  20408342.136    17627353.96043  13735553.55242  20408342.156    20408340.340
  24205297.432     2919876.43043   2261892.31742  24205297.249    24205298.877
  24091453.116     5127924.35243   3970885.41642  24091452.868    24091456.943
  20870223.245    -5527116.94543  -4292419.41742  20870222.687    20870222.623
  24293283.690    -6217915.19243  -4784155.13442  24293284.533    24293288.029
  24777809.204    22667996.24243  17655596.96442  24777809.460    24777810.766
  23300817.142     3191623.24143   2469532.38342  23300817.582    23300818.112
 04  5 20 19 11  0.0000000  0 10G22G21G 3G18G16G 6G15G14G29G26
  20900919.672    13988299.44043  10909878.88642  20900919.168    20900916.416
  20619552.230    18402921.12343  14337672.81442  20619551.955    20619550.038
  22404679.704    -6575292.66643  -5102684.73742  22404679.838    22404680.337
  20411809.433    17645574.63443  13749751.46342  20411809.457    20411807.646
  24217501.550     2984009.53243   2311866.05042  24217501.404    24217503.214
  24112517.383     5238616.57743   4057138.83542  24112517.111    24112521.221
  20859954.017    -5581082.04243  -4334470.13242  20859953.481    20859953.421
  24271491.049    -6332435.53243  -4873391.58642  24271491.982    24271495.305
  24795705.493    22762041.35243  17728878.78642  24795705.792    24795707.155
  23318143.911     3282675.71243   2540482.29142  23318144.338    23318144.959
 04  5 20 19 11 30.0000000  0 10G22G21G 3G18G16G 6G15G14G29G26
  20893718.052    13950454.65943  10880389.46642  20893717.534    20893714.776
  20624878.079    18430908.72043  14359481.31042  20624877.824    20624875.936
  22392797.955    -6637731.50043  -5151338.35342  22392798.107    22392798.626
  20415344.311    17664150.49543  13764226.14542  20415344.331    20415342.533
  24229755.503     3048403.90843   2362043.37942  24229755.376    24229757.109
  24133600.050     5349405.66043   4143467.71742  24133599.800    24133604.057
  20849727.966    -5634820.45143  -4376344.20842  20849727.398    20849727.357
  24249708.653    -6446902.28543  -4962586.28242  24249709.605    24249712.789
  24813646.891    22856323.02143  17802344.94942  24813647.128    24813648.313
  23335548.946     3374139.43143   2611752.64842  23335549.318    23335550.004
 04  5 20 19 12  0.0000000  0 10G22G21G 3G18G16G 6G15G14G29G26
  20886585.958    13912975.19043  10851184.70142  20886585.437    20886582.650
  20630265.895    18459221.57843  14381543.25142  20630265.603    20630263.717
  22381001.986    -6699720.05843  -5199641.11242  22381002.087    22381002.575
  20418946.637    17683080.76943  13778976.98942  20418946.665    20418944.876
  24242058.739     3113057.62943   2412422.79942  24242058.607    24242060.374
  24154700.935     5460290.29943   4229871.05742  24154700.628    24154704.938
  20839545.461    -5688329.82343  -4418039.81642  20839544.899    20839544.872
  24227937.057    -6561312.10743  -5051736.61542  24227937.916    24227941.181
  24831632.930    22950839.68243  17875994.21642  24831633.125    24831634.396
  23353031.769     3466012.02843   2683341.61542  23353032.198    23353032.794
 04  5 20 19 12 30.0000000  0 10G22G21G 3G18G16G 6G15G14G29G26
  20879522.855    13875858.25443  10822262.43142  20879522.328    20879519.494
  20635715.083    18487857.24543  14403856.73642  20635714.807    20635712.945
  22369291.595    -6761258.78443  -5247593.35242  22369291.668    22369292.126
  20422615.748    17702361.96643  13794001.28142  20422615.787    20422613.989
  24254410.431     3177965.42543   2463000.19142  24254410.108    24254412.096
  24175819.005     5571265.58943   4316345.03642  24175818.746    24175823.120
  20829406.270    -5741611.65043  -4459558.11642  20829405.713    20829405.690
  24206176.340    -6675664.74443  -5140842.40542  24206177.289    24206180.510
  24849662.682    23045586.13043  17949822.55142  24849662.857    24849664.027
  23370591.354     3558288.20343   2755245.04042  23370591.776    23370592.422
 04  5 20 19 13  0.0000000  0  9G22G21G 3G18G16G 6G15G14G26
  20872530.351    13839112.40143  10793629.31742  20872529.831    20872526.969
  20641227.483    18516825.12043  14426429.08042  20641227.228    20641225.368
  22357668.844    -6822336.79943  -5295186.58742  22357668.910    22357669.343
  20426353.142    17722002.02543  13809305.20742  20426353.201    20426351.389
  24266811.591     3243133.10043   2513780.08442  24266811.170    24266813.318
  24196955.628     5682338.09443   4402894.76742  24196955.328    24196959.728
  20819312.307    -5794655.76343  -4500891.18542  20819311.767    20819311.724
  24184428.724    -6789948.60943  -5229894.60742  24184429.626    24184432.778
  23388228.886     3650973.47743   2827467.26842  23388229.290    23388229.947
 04  5 20 19 13 30.0000000  0  9G22G21G 3G18G16G 6G15G14G26
  20865605.984    13802724.48744  10765275.11542  20865605.451    20865602.569
  20646800.741    18546112.52043  14449250.40742  20646800.458    20646798.606
  22346131.595    -6882965.40043  -5342429.64042  22346131.673    22346132.096
  20430156.019    17741986.15843  13824877.24242  20430156.070    20430154.268
  24279259.099     3308544.61543   2564749.99842  24279258.691    24279260.676
  24218107.811     5793492.19343   4489508.05942  24218107.416    24218111.901
  20809261.369    -5847473.71143  -4542048.02342  20809260.843    20809260.819
  24162692.084    -6904174.18643  -5318901.38842  24162693.128    24162696.307
  23405941.185     3744052.01143   2899995.90742  23405941.583    23405942.309
 04  5 20 19 14  0.0000000  0  9G22G21G 3G18G16G 6G15G14G26
  20858750.814    13766700.38543  10737204.40542  20858750.293    20858747.401
  20652436.073    18575726.34343  14472326.08842  20652435.806    20652433.963
  22334681.478    -6943135.98643  -5389315.79742  22334681.600    22334682.027
  20434025.376    17762319.66643  13840721.51642  20434025.433    20434023.615
  24291753.614     3374203.50343   2615912.66842  24291753.295    24291755.235
  24239276.195     5904732.01743   4576188.15342  24239275.915    24239280.471
  20799254.896    -5900058.04943  -4583022.82642  20799254.382    20799254.350
  24140968.352    -7018332.82843  -5407856.02342  24140969.311    24140972.313
  23423729.020     3837526.70043   2972833.26342  23423729.370    23423729.975
 04  5 20 19 14 30.0000000  0  9G22G21G 3G18G16G 6G15G14G26
  20851964.406    13731037.59743  10709415.23542  20851963.881    20851960.973
  20658133.057    18605664.03643  14495654.13642  20658132.805    20658130.953
  22323318.475    -7002848.95443  -5435845.36842  22323318.597    22323319.014
  20437960.591    17782999.22343  13856835.44042  20437960.663    20437958.807
  24304294.222     3440104.43043   2667263.94142  24304293.986    24304295.797
  24260460.124     6016052.86343   4662931.36542  24260459.794    24260464.433
  20789292.718    -5952409.69743  -4623816.31442  20789292.187    20789292.168
  24119257.430    -7132424.07343  -5496758.15142  24119258.321    24119261.385
  23441591.040     3931392.28843   3045975.18642  23441591.467    23441592.083
 04  5 20 19 15  0.0000000  0  9G22G21G 3G18G16G 6G15G14G26
  20845247.246    13695738.77643  10681909.68042  20845246.741    20845243.828
  20663892.470    18635929.72943  14519237.76642  20663892.196    20663890.360
  22312043.549    -7062099.20143  -5482014.38142  22312043.614    22312044.056
  20441961.881    17804025.93443  13873219.87442  20441961.940    20441960.078
  24316880.866     3506247.20543   2718803.66942  24316880.595    24316882.523
  24281659.534     6127455.40543   4749738.24042  24281659.206    24281663.975
  20779375.637    -6004524.30443  -4664425.09142  20779375.121    20779375.071
  24097560.445    -7246442.12043  -5585603.23942  24097561.203    24097564.348
  23459527.562     4025648.73043   3119421.68842  23459527.946    23459528.548
 04  5 20 19 15 30.0000000  0  9G22G21G 3G18G16G 6G15G14G26
  20838598.982    13660801.93843  10654686.18542  20838598.466    20838595.544
  20669713.895    18666521.48743  14543075.47242  20669713.658    20669711.809
  22300856.647    -7120886.69743  -5527822.80942  22300856.742    22300857.142
  20446028.663    17825396.79843  13889872.48442  20446028.698    20446026.849
  24329512.657     3572627.16443   2770528.20842  24329512.415    24329514.434
  24302873.671     6238935.28143   4836605.37842  24302873.407    24302878.197
  20769503.557    -6056402.41343  -4704849.58642  20769503.035    20769502.988
  24075877.529    -7360386.34343  -5674390.80842  24075878.228    24075881.406
  23477537.349     4120290.95043   3193168.77242  23477537.743    23477538.395
 04  5 20 19 16  0.0000000  0  9G22G21G 3G18G16G 6G15G14G26
  20832019.719    13626227.79343  10627745.30542  20832019.217    20832016.309
  20675597.679    18697440.84743  14567168.45542  20675597.447    20675595.623
  22289758.437    -7179208.25943  -5573268.17442  22289758.530    22289758.908
  20450160.904    17847111.81943  13906793.26242  20450160.951    20450159.105
  24342189.222     3639242.65343   2822436.28842  24342189.043    24342191.051
  24324102.324     6350491.37343   4923531.90542  24324102.025    24324106.874
  20759676.944    -6108041.63843  -4745087.93942  20759676.440    20759676.364
  24054209.343    -7474253.04243  -5763117.96942  24054209.945    24054213.081
  23495620.280     4215316.90043   3267214.89342  23495620.619    23495621.365
 04  5 20 19 16 30.0000000  0  9G22G21G 3G18G16G 6G15G14G26
  20825509.584    13592016.80144  10601087.40142  20825509.082    20825506.152
  20681543.980    18728688.84443  14591517.51742  20681543.768    20681541.936
  22278749.311    -7237061.40943  -5618348.54342  22278749.406    22278749.792
  20454358.508    17869170.38243  13923981.73942  20454358.559    20454356.719
  24354910.110     3706091.12043   2874525.90242  24354909.900    24354912.085
  24345345.173     6462121.88343   5010516.41042  24345344.808    24345349.700
  20749896.135    -6159440.11543  -4785138.70142  20749895.626    20749895.548
  24032556.595    -7588038.68143  -5851781.97142  24032557.236    24032560.243
  23513775.776     4310724.37943   3341558.28642  23513776.173    23513776.874
 04  5 20 19 17  0.0000000  0  9G22G21G 3G18G16G 6G15G14G26
  20819068.289    13558167.59343  10574711.41242  20819067.775    20819064.868
  20687552.715    18760264.77543  14616122.11142  20687552.497    20687550.678
  22267829.535    -7294445.08443  -5663063.08642  22267829.654    22267830.032
  20458621.003    17891569.94943  13941435.93242  20458621.063    20458619.254
  24367674.650     3773168.83443   2926794.14742  24367674.392    24367676.666
  24366601.600     6573823.50143   5097556.30942  24366601.162    24366606.066
  20740161.224    -6210597.46543  -4825001.57142  20740160.713    20740160.619
  24010919.531    -7701741.72443  -5940381.61242  24010920.189    24010923.036
  23532003.089     4406509.10943   3416195.64942  23532003.421    23532004.169
 04  5 20 19 17 30.0000000  0  9G22G21G 3G18G16G 6G15G14G26
  20812695.514    13524678.47143  10548616.00642  20812695.009    20812692.090
  20693623.649    18792167.60243  14640981.42442  20693623.418    20693621.615
  22256999.212    -7351358.77743  -5707411.41142  22256999.356    22256999.704
  20462947.894    17914307.87543  13959153.78042  20462947.978    20462946.147
  24380481.955     3840471.10543   2979237.38142  24380481.729    24380483.961
  24387870.799     6685592.49443   5184648.73542  24387870.306    24387875.318
  20730472.175    -6261513.87243  -4864676.69542  20730471.654    20730471.556
  23989298.342    -7815361.07543  -6028916.02442  23989299.056    23989301.962
  23550301.352     4502666.58043   3491123.45842  23550301.697    23550302.400
 04  5 20 19 18  0.0000000  0  9G22G21G 3G18G16G 6G15G14G26
  20806391.233    13491549.30843  10522801.08542  20806390.738    20806387.818
  20699756.888    18824397.84243  14666095.86842  20699756.659    20699754.847
  22246258.755    -7407800.29243  -5751391.80042  22246258.911    22246259.267
  20467339.019    17937383.20243  13977134.53742  20467339.087    20467337.275
  24393331.587     3907995.65243   3031853.82142  24393331.304    24393333.465
  24409152.364     6797426.62443   5271791.90642  24409151.788    24409156.920
  20720829.290    -6312187.68443  -4904162.77842  20720828.744    20720828.655
  23967693.682    -7928893.84043  -6117382.99042  23967694.404    23967697.265
  23568669.978     4599193.94943   3566339.49642  23568670.268    23568671.095
 04  5 20 19 18 30.0000000  0  9G22G21G 3G18G16G 6G15G14G26
  20800156.100    13458783.44043  10497269.25342  20800155.596    20800152.679
  20705953.106    18856959.10743  14691468.25742  20705952.880    20705951.089
  22235609.134    -7463764.34943  -5795000.15442  22235609.304    22235609.696
  20471794.732    17960798.25943  13995380.02142  20471794.843    20471793.028
  24406223.427     3975742.81143   3084643.73242  24406223.338    24406225.371
  24430446.550     6909327.19643   5358986.84342  24430445.988    24430451.178
  20711233.534    -6362613.76443  -4943455.82442  20711232.997    20711232.906
  23946106.697    -8042333.65043  -6205777.52342  23946107.476    23946110.242
  23587109.061     4696091.63143   3641844.10842  23587109.423    23587110.166
 04  5 20 19 19  0.0000000  0  9G22G21G 3G18G16G 6G15G14G26
  20793989.417    13426377.32743  10472017.74742  20793988.915    20793986.002
  20712211.967    18889849.40843  14717097.03442  20712211.731    20712209.934
  22225050.215    -7519251.92243  -5838237.21842  22225050.373    22225050.760
  20476314.320    17984548.75043  14013886.87942  20476314.423    20476312.600
  24419156.618     4043706.66243   3137602.49042  24419156.568    24419158.448
  24451752.364     7021288.88143   5446229.39542  24451751.859    24451757.165
  20701684.586    -6412793.90343  -4982557.23042  20701684.061    20701683.937
  23924537.372    -8155680.82343  -6294099.86142  23924538.187    23924540.913
  23605617.478     4793353.56943   3717632.53942  23605617.823    23605618.593
 04  5 20 19 19 30.0000000  0  9G22G21G 3G18G16G 6G15G14G26
  20787891.139    13394330.65743  10447046.32642  20787890.624    20787887.715
  20718533.310    18923068.21543  14742981.78942  20718533.102    20718531.286
  22214582.303    -7574261.17543  -5881101.56842  22214582.458    22214582.859
  20480897.533    18008633.59043  14032654.26442  20480897.627    20480895.811
  24432130.367     4111883.84643   3190727.46742  24432130.329    24432132.330
  24473069.379     7133309.09243   5533517.54142  24473068.910    24473074.334
  20692182.661    -6462726.89243  -5021466.05042  20692182.134    20692182.013
  23902986.075    -8268933.12743  -6382348.28042  23902986.857    23902989.481
  23624194.579     4890976.34843   3793702.15942  23624194.892    23624195.669
 04  5 20 19 20  0.0000000  0  9G22G21G 3G18G16G 6G15G14G26
  20781861.346    13362643.99043  10422355.42542  20781860.829    20781857.959
  20724917.519    18956617.29943  14769123.90342  20724917.316    20724915.498
  22204205.954    -7628789.14243  -5923590.89342  22204206.109    22204206.536
  20485544.135    18033051.56443  14051681.23742  20485544.221    20485542.411
  24445144.342     4180272.43543   3244017.17642  24445144.307    24445146.439
  24494397.276     7245386.41743   5620850.19542  24494396.767    24494402.312
  20682728.139    -6512410.77543  -5060180.76142  20682727.602    20682727.473
  23881453.506    -8382086.89243  -6470519.92642  23881454.277    23881456.901
  23642839.786     4988957.70643   3870051.18242  23642840.184    23642840.953
 04  5 20 19 20 30.0000000  0  9G22G21G 3G18G16G 6G15G14G26
  20775900.156    13331317.81643  10397945.42942  20775899.630    20775896.778
  20731364.801    18990497.80443  14795524.26542  20731364.618    20731362.750
  22193921.663    -7682833.29143  -5965703.21142  22193921.836    22193922.275
  20490254.122    18057802.56343  14070967.70842  20490254.206    20490252.406
  24458198.185     4248870.51243   3297470.12442  24458198.134    24458200.343
  24515735.652     7357519.41943   5708226.22442  24515735.282    24515740.799
  20673321.504    -6561842.92043  -5098699.31542  20673320.974    20673320.854
  23859940.358    -8495138.50443  -6558611.96642  23859941.139    23859943.815
  23661552.922     5087295.59743   3946678.02842  23661553.267    23661554.166
 04  5 20 19 21  0.0000000  0  9G22G21G 3G18G16G 6G15G14G26
  20770006.936    13300348.87144  10373813.79242  20770006.434    20770003.576
  20737874.602    19024706.82243  14822180.61242  20737874.402    20737872.545
  22183729.292    -7736394.66343  -6007439.34342  22183729.450    22183729.878
  20495026.688    18082882.44443  14090510.45142  20495026.776    20495024.971
  24471290.777     4317672.13943   3351081.67742  24471290.548    24471293.014
  24537083.718     7469702.87343   5795641.55342  24537083.270    24537088.973
  20663962.503    -6611024.90843  -5137022.94142  20663961.963    20663961.839
  23838446.668    -8608088.16143  -6646624.56542  23838447.434    23838450.112
  23680332.744     5185984.01143   4023578.01442  23680333.090    23680334.032
 04  5 20 19 21 30.0000000  0  8G22G21G 3G18G16G15G14G26
  20764184.042    13269749.45243  10349970.10642  20764183.565    20764180.694
  20744449.425    19059257.51543  14849103.20042  20744449.232    20744447.366
  22173631.508    -7789459.01143  -6048788.18442  22173631.674    22173632.064
  20499864.078    18108303.07543  14110318.71442  20499864.181    20499862.370
  24484423.947     4386687.07243   3404859.44142  24484423.848    24484426.158
  20654653.730    -6659942.84143  -5175140.80942  20654653.184    20654653.073
  23816975.270    -8720920.52943  -6734545.77742  23816976.041    23816978.719
  23699181.079     5285032.38343   4100758.50142  23699181.380    23699182.258
 04  5 20 19 22  0.0000000  0  8G22G21G 3G18G16G15G14G26
  20758427.400    13239498.04944  10326397.59742  20758426.921    20758424.032
  20751085.247    19094128.94343  14876275.71242  20751085.084    20751083.189
  22163624.652    -7842045.45943  -6089764.63242  22163624.797    22163625.179
  20504761.886    18134041.21443  14130374.38542  20504762.003    20504760.185
  24497593.009     4455890.92843   3458784.43542  24497592.976    24497595.350
  20645391.443    -6708616.51943  -5213068.34842  20645390.891    20645390.765
  23795522.745    -8833654.01943  -6822389.94242  23795523.482    23795526.103
  23718093.301     5384416.43643   4178200.53342  23718093.597    23718094.561
 04  5 20 19 22 30.0000000  0  9G22G21G 3G18G16G15G14G26G19
  20752738.282    13209601.71043  10303101.76142  20752737.813    20752734.922
  20757783.585    19129328.81043  14903704.15042  20757783.402    20757781.520
  22153710.511    -7894144.62343  -6130361.37542  22153710.687    22153711.015
  20509721.420    18160103.65643  14150682.75642  20509721.537    20509719.709
  24510799.084     4525288.38043   3512860.27042  24510798.986    24510801.279
  20636177.353    -6757036.84843  -5250798.47042  20636176.799    20636176.684
  23774090.924    -8946278.69643  -6910149.31842  23774091.654    23774094.194
  23737070.293     5484140.51243   4255907.52342  23737070.517    23737071.515
  24796915.789    -6887575.09953  -5309315.18152  24796915.789    24796915.712
 04  5 20 19 23  0.0000000  0  9G22G21G 3G18G16G15G14G26G19
  20747117.662    13180065.16043  10280086.27742  20747117.190    20747114.283
  20764545.474    19164862.78043  14931392.92842  20764545.311    20764543.442
  22143890.450    -7945749.50643  -6170572.97242  22143890.598    22143890.938
  20514743.279    18186493.54243  14171246.27942  20514743.377    20514741.557
  24524042.354     4594881.60243   3567088.65642  24524042.252    24524044.553
  20627012.722    -6805197.19443  -5288326.01342  20627012.188    20627012.072
  23752681.331    -9058786.64343  -6997817.73842  23752682.025    23752684.550
  23756112.371     5584206.76943   4333881.15842  23756112.630    23756113.636
  24777740.886    -6988339.71143  -5387833.05342  24777740.906    24777740.781
 04  5 20 19 23 30.0000000  0  9G22G21G 3G18G16G15G14G26G19
  20741565.236    13150886.96344  10257350.02742  20741564.765    20741561.864
  20771370.814    19200730.06143  14959341.42742  20771370.640    20771368.793
  22134164.537    -7996859.51043  -6210398.95042  22134164.677    22134165.026
  20519827.088    18213209.01643  14192063.50742  20519827.204    20519825.376
  24537322.042     4664666.40243   3621466.32242  24537322.015    24537324.293
  20617897.633    -6853097.36543  -5325650.81742  20617897.080    20617896.966
  23731294.199    -9171176.46343  -7085394.09842  23731294.855    23731297.415
  23775218.673     5684610.85743   4412118.02542  23775218.946    23775220.111
  24758599.716    -7088927.33143  -5466213.00442  24758599.674    24758599.560
 04  5 20 19 24  0.0000000  0  9G22G21G 3G18G16G15G14G26G19
  20736080.616    13122065.12243  10234891.45742  20736080.132    20736077.238
  20778259.353    19236929.51943  14987548.76142  20778259.213    20778257.363
  22124532.803    -8047474.44043  -6249839.14942  22124532.949    22124533.318
  20524972.306    18240247.19243  14213132.19242  20524972.436    20524970.589
  24550637.249     4734638.18543   3675989.69042  24550637.236    24550639.596
  20608831.973    -6900737.77443  -5362773.20942  20608831.412    20608831.285
  23709929.744    -9283446.85143  -7172877.41342  23709930.459    23709932.919
  23794388.377     5785348.13243   4490614.52842  23794388.771    23794389.834
  24739492.467    -7189336.96043  -5544454.25142  24739492.380    24739492.231
 04  5 20 19 24 30.0000000  0  9G22G21G 3G18G16G15G14G26G19
  20730664.076    13093601.06143  10212711.67742  20730663.582    20730660.686
  20785211.506    19273463.09843  15016016.44942  20785211.333    20785209.493
  22114996.038    -8097590.54343  -6288890.66242  22114996.169    22114996.532
  20530179.048    18267608.70143  14234452.82442  20530179.194    20530177.337
  24563987.896     4804796.08443   3730658.07542  24563987.892    24563990.340
  20599816.408    -6948114.80443  -5399690.37442  20599815.874    20599815.735
  23688588.972    -9395593.21343  -7260264.07542  23688589.678    23688592.131
  23813621.175     5886417.44943   4569369.77242  23813621.695    23813622.657
  24720419.814    -7289564.03743  -5622553.25842  24720419.805    24720419.652
 04  5 20 19 25  0.0000000  0  9G22G21G 3G18G16G15G14G26G19
  20725314.795    13065490.38543  10190807.26142  20725314.302    20725311.391
  20792226.534    19310327.02543  15044741.55442  20792226.347    20792224.491
  22105553.703    -8147210.44443  -6327555.52042  22105553.823    22105554.155
  20535446.308    18295288.15143  14256021.20342  20535446.447    20535444.599
  24577372.610     4875132.78443   3785465.79442  24577372.591    24577375.015
  20590850.414    -6995231.34343  -5436404.55442  20590849.897    20590849.745
  23667271.437    -9507617.19443  -7347555.39242  23667272.152    23667274.526
  23832915.847     5987811.23743   4648377.83842  23832916.361    23832917.374
  24701381.636    -7389610.39743  -5700511.45442  24701381.646    24701381.482
 04  5 20 19 25 30.0000000  0  9G22G21G 3G18G16G15G14G26G19
  20720033.282    13037735.92743  10169180.41742  20720032.813    20720029.887
  20799305.038    19347524.64143  15073726.67942  20799304.846    20799302.998
  22096206.750    -8196328.92743  -6365829.66042  22096206.909    22096207.211
  20540774.429    18323287.43143  14277838.79942  20540774.555    20540772.692
  24590791.487     4945648.71243   3840413.16642  24590791.416    24590793.789
  20581934.925    -7042082.62343  -5472912.04042  20581934.396    20581934.250
  23645978.364    -9619512.52543  -7434746.43842  23645979.135    23645981.439
  23852272.335     6089529.87843   4727639.04642  23852272.800    23852273.850
  24682379.061    -7489469.87543  -5778324.01042  24682378.920    24682378.824
 04  5 20 19 26  0.0000000  0  9G22G21G 3G18G16G15G14G26G19
  20714819.457    13010337.12044  10147830.70342  20714818.997    20714816.070
  20806447.114    19385056.22043  15102972.02842  20806446.914    20806445.069
  22086955.552    -8244944.24743  -6403711.73242  22086955.732    22086956.034
  20546163.110    18351605.05943  14299904.46042  20546163.246    20546161.395
  24604243.759     5016340.91743   3895497.90542  24604243.845    24604246.123
  20573070.174    -7088667.18243  -5509211.69242  20573069.626    20573069.503
  23624710.166    -9731276.97843  -7521835.50742  23624710.941    23624713.248
  23871690.090     6191570.22043   4807150.92342  23871690.480    23871691.531
  24663412.383    -7589140.32143  -5855989.28242  24663412.316    24663412.157
 04  5 20 19 26 30.0000000  0  9G22G21G 3G18G16G15G14G26G19
  20709673.137    12983293.05144  10126757.41242  20709672.687    20709669.757
  20813652.713    19422921.77143  15132477.61942  20813652.520    20813650.677
  22077800.318    -8293055.36843  -6441200.91842  22077800.495    22077800.798
  20551612.047    18380239.22943  14322216.77642  20551612.178    20551610.332
  24617729.031     5087205.97743   3950717.33142  24617729.083    24617731.433
  20564256.325    -7134984.16843  -5545302.84342  20564255.800    20564255.686
  23603467.382    -9842908.04643  -7608820.63142  23603468.230    23603470.433
  23891168.340     6293928.61143   4886910.63442  23891168.733    23891169.745
  24644482.116    -7688619.44943  -5933505.47942  24644482.168    24644481.970
 04  5 20 19 27  0.0000000  0  9G22G21G 3G18G16G15G14G26G19
  20704593.909    12956601.43644  10105958.76142  20704593.444    20704590.530
  20820921.501    19461119.45843  15162242.01842  20820921.323    20820919.503
  22068740.983    -8340662.62843  -6478297.48542  22068741.141    22068741.446
  20557120.510    18409186.32943  14344772.93842  20557120.658    20557118.831
  24631246.216     5158238.56743   4006067.29642  24631246.296    24631248.664
  20555493.263    -7181034.28143  -5581186.04542  20555492.766    20555492.649
  23582250.172    -9954405.25343  -7695701.45942  23582250.902    23582253.058
  23910706.119     6396599.91543   4966914.17142  23910706.515    23910707.517
  24625588.330    -7787906.60543  -6010872.06942  24625588.349    24625588.216
 04  5 20 19 27 30.0000000  0 10G22G21G 3G18G16G15G14G26G 9G19
  20699581.064    12930258.72243  10085431.98042  20699580.604    20699577.665
  20828252.934    19499646.38643  15192262.96542  20828252.763    20828250.972
  22059777.280    -8387767.31543  -6515002.44442  22059777.453    22059777.710
  20562687.797    18438442.54943  14367569.97242  20562687.971    20562686.127
  24644794.162     5229432.82043   4061543.23342  24644794.086    24644796.611
  20546780.748    -7226818.93443  -5616862.39742  20546780.258    20546780.135
  23561058.279   -10065768.81043  -7782478.12442  23561059.040    23561061.239
  23930302.207     6499577.98143   5047156.72742  23930302.669    23930303.649
  24428644.525    -5299484.91053  -4089997.67552  24428645.135    24428648.987
  24606731.115    -7887002.23543  -6088089.44542  24606731.033    24606730.920
 04  5 20 19 28  0.0000000  0 10G22G21G 3G18G16G15G14G26G 9G19
  20694636.248    12904273.58044  10065183.82142  20694635.800    20694632.854
  20835648.892    19538512.14543  15222547.93342  20835648.710    20835646.922
  22050911.285    -8434358.43143  -6551307.21442  22050911.467    22050911.724
  20568315.439    18468015.95243  14390614.15842  20568315.626    20568313.775
  24658374.061     5300795.14843   4117150.12642  24658373.925    24658376.457
  20538120.790    -7272327.40243  -5652323.53742  20538120.279    20538120.177
  23539894.211   -10176986.67143  -7869141.26842  23539894.924    23539897.031
  23949957.807     6602869.09243   5127643.25142  23949958.304    23949959.352
  24414970.830    -5371339.67943  -4145988.28142  24414971.538    24414975.441
  24587912.524    -7985894.51643  -6165148.33942  24587912.451    24587912.477
 04  5 20 19 28 30.0000000  0 10G22G21G 3G18G16G15G14G26G 9G19
  20689758.611    12878641.34444  10045210.65342  20689758.151    20689755.191
  20843108.519    19577712.57843  15253093.69442  20843108.342    20843106.545
  22042142.504    -8480438.80243  -6587214.00042  22042142.684    22042142.912
  20574002.242    18497900.18643  14413900.55342  20574002.424    20574000.569
  24671984.555     5372318.14443   4172882.18742  24671984.380    24671987.037
  20529512.807    -7317562.72943  -5687571.84142  20529512.300    20529512.181
  23518757.460   -10288060.46843  -7955692.14142  23518758.161    23518760.223
  23969671.783     6706465.82443   5208367.89342  23969672.105    23969673.304
  24401346.850    -5442933.09243  -4201775.23142  24401347.591    24401351.493
  24569132.204    -8084585.19943  -6242050.13942  24569132.249    24569132.287
 04  5 20 19 29  0.0000000  0 10G22G21G 3G18G16G15G14G26G 9G19
  20684948.020    12853361.52844  10025512.10142  20684947.548    20684944.602
  20850632.004    19617248.55743  15283900.92042  20850631.818    20850630.051
  22033471.224    -8526006.65643  -6622721.42442  22033471.405    22033471.659
  20579748.006    18528094.41143  14437428.50042  20579748.209    20579746.380
  24685625.059     5443998.84043   4228737.15142  24685624.670    24685627.571
  20520957.066    -7362523.45243  -5722606.16542  20520956.567    20520956.428
  23497648.507   -10398987.75643  -8042128.85042  23497649.261    23497651.393
  23989443.147     6810364.81243   5289328.07942  23989443.587    23989444.747
  24387773.412    -5514261.79543  -4257355.91842  24387774.137    24387778.037
  24550390.791    -8183071.75243  -6318792.88442  24550390.796    24550390.883
 04  5 20 19 29 30.0000000  0 10G22G21G 3G18G16G15G14G26G 9G19
  20680204.615    12828434.75444  10006088.64142  20680204.141    20680201.179
  20858219.443    19657120.63743  15314970.03942  20858219.264    20858217.459
  22024898.030    -8571059.23543  -6657827.33842  22024898.190    22024898.458
  20585552.850    18558598.83843  14461198.16142  20585553.017    20585551.206
  24699295.158     5515835.45143   4284713.61742  24699294.814    24699297.826
  20512454.082    -7407206.92743  -5757424.45842  20512453.581    20512453.454
  23476568.181   -10509764.73243  -8128448.42742  23476569.051    23476571.071
  24009271.670     6914564.26543   5370522.38442  24009272.181    24009273.200
  24374251.323    -5585321.23443  -4312726.78542  24374252.003    24374255.801
  24531688.963    -8281350.49343  -6395373.69342  24531689.076    24531689.109
 04  5 20 19 30  0.0000000  0  9G22G21G 3G18G15G14G26G 9G19
  20675528.492    12803861.59944   9986940.73242  20675528.014    20675525.073
  20865871.161    19697330.45543  15346302.32642  20865870.971    20865869.198
  22016423.367    -8615593.90743  -6692529.69842  22016423.528    22016423.789
  20591416.620    18589413.21543  14485209.34342  20591416.816    20591415.017
  20504004.354    -7451610.48643  -5792024.63242  20504003.875    20504003.719
  23455517.168   -10620387.63543  -8214647.95442  23455518.118    23455520.090
  24029156.979     7019061.98143   5451949.11342  24029157.598    24029158.478
  24360781.175    -5656107.05943  -4367884.44442  24360781.798    24360785.726
  24513027.281    -8379417.75943  -6471789.72042  24513027.464    24513027.495
 04  5 20 19 30 30.0000000  0  9G22G21G 3G18G15G14G26G 9G19
  20670918.607    12779636.46944   9968064.01642  20670918.122    20670915.178
  20873586.131    19737872.68943  15377893.64242  20873585.938    20873584.170
  22008046.565    -8659614.44243  -6726831.40942  22008046.726    22008046.967
  20597338.045    18620530.39443  14509456.47842  20597338.237    20597336.447
  20495607.146    -7495738.05643  -5826409.75642  20495606.664    20495606.516
  23434495.116   -10730858.79643  -8300729.25542  23434496.074    23434497.990
  24049097.466     7123849.69343   5533601.78942  24049098.101    24049099.004
  24347362.563    -5726621.38643  -4422830.54542  24347363.198    24347367.170
  24494405.475    -8477275.97843  -6548042.86842  24494405.642    24494405.640
 04  5 20 19 31  0.0000000  0  9G22G21G 3G18G15G14G26G 9G19
  20666374.998    12755759.66944   9949458.72042  20666374.529    20666371.575
  20881364.613    19778748.67043  15409745.01942  20881364.405    20881362.638
  21999768.087    -8703118.16543  -6760730.42542  21999768.272    21999768.473
  20603317.074    18651950.29443  14533939.49542  20603317.267    20603315.469
  20487262.948    -7539587.05943  -5860577.81342  20487262.487    20487262.311
  23413502.637   -10841174.70243  -8386689.56842  23413503.532    23413505.440
  24069092.700     7228925.29243   5615478.80442  24069093.367    24069094.302
  24333996.564    -5796859.93443  -4477561.76942  24333997.286    24334001.042
  24475824.081    -8574921.68843  -6624130.40942  24475824.222    24475824.266
 04  5 20 19 31 30.0000000  0  9G22G21G 3G18G15G14G26G 9G19
  20661897.619    12732230.88544   9931124.61242  20661897.157    20661894.194
  20889206.708    19819958.94043  15441856.88142  20889206.492    20889204.731
  21991588.331    -8746103.13243  -6794225.21142  21991588.512    21991588.709
  20609353.539    18683672.05643  14558657.73342  20609353.736    20609351.970
  20478972.103    -7583155.81243  -5894527.49542  20478971.653    20478971.456
  23392540.225   -10951332.52343  -8472526.69942  23392541.104    23392542.965
  24089142.274     7334285.87343   5697577.89142  24089142.820    24089143.746
  24320683.749    -5866819.01543  -4532075.21342  24320684.505    24320688.082
  24457283.618    -8672352.09843  -6700050.18242  24457283.722    24457283.918
 04  5 20 19 32  0.0000000  0  9G22G21G 3G18G15G14G26G 9G19
  20657486.792    12709051.96444   9913063.12042  20657486.346    20657483.381
  20897112.791    19861505.63343  15474230.88742  20897112.581    20897110.832
  21983507.908    -8788566.08443  -6827313.24042  21983508.105    21983508.291
  20615447.620    18715696.53543  14583611.85142  20615447.793    20615446.056
  20470735.263    -7626440.81143  -5928256.07042  20470734.808    20470734.619
  23371608.807   -11061327.43543  -8558236.89242  23371609.681    23371611.480
  24109245.872     7439930.34843   5779898.18442  24109246.430    24109247.269
  24307425.169    -5936493.40343  -4586366.85042  24307425.994    24307429.371
  24438785.141    -8769562.48143  -6775798.52442  24438785.165    24438785.385
 04  5 20 19 32 30.0000000  0  9G22G21G 3G18G15G14G26G 9G19
  20653142.467    12686222.35144   9895273.81542  20653142.012    20653139.047
  20905083.068    19903389.56143  15506867.67642  20905082.864    20905081.115
  21975527.114    -8830505.43643  -6859993.26342  21975527.328    21975527.515
  20621598.982    18748022.02543  14608800.52442  20621599.164    20621597.427
  20462552.706    -7669440.44443  -5961762.28042  20462552.257    20462552.065
  23350708.876   -11171156.72043  -8643818.03642  23350709.744    23350711.545
  24129402.837     7545856.01843   5862437.60942  24129403.354    24129404.337
  24294221.308    -6005879.52043  -4640433.83942  24294222.143    24294225.438
  24420328.994    -8866550.12743  -6851373.31342  24420329.044    24420329.179
 04  5 20 19 33  0.0000000  0  9G22G21G 3G18G15G14G26G 9G19
  20648864.690    12663742.41544   9877756.98742  20648864.225    20648861.252
  20913117.653    19945611.35143  15539767.73242  20913117.449    20913115.692
  21967646.437    -8871918.69343  -6892263.34242  21967646.654    21967646.860
  20627807.636    18780648.60143  14634223.81042  20627807.814    20627806.066
  20454424.874    -7712152.50343  -5995044.40842  20454424.429    20454424.250
  23329841.236   -11280816.47543  -8729267.06342  23329842.084    23329843.899
  24149612.906     7652060.35443   5945194.13842  24149613.288    24149614.444
  24281072.986    -6074973.21643  -4694272.97142  24281073.816    24281077.276
  24401915.963    -8963311.53143  -6926771.81042  24401915.911    24401916.028
 04  5 20 19 33 30.0000000  0  9G22G21G 3G18G15G14G26G 9G19
  20644652.509    12641607.17944   9860508.75542  20644652.031    20644649.037
  20921215.737    19988166.79643  15572927.77742  20921215.514    20921213.740
  21959865.320    -8912808.76243  -6924125.74542  21959865.531    21959865.739
  20634072.407    18813570.12343  14659876.92342  20634072.604    20634070.837
  20446351.210    -7754579.96243  -6028104.76842  20446350.773    20446350.560
  23309005.463   -11390308.80443  -8814585.65142  23309006.316    23309008.126
  24169874.591     7758535.77943   6028161.93342  24169874.945    24169876.147
  24267980.172    -6143775.83543  -4747885.31342  24267980.935    24267984.492
  24383545.570    -9059848.51643  -7001995.42642  24383545.559    24383545.579
 04  5 20 19 34  0.0000000  0  9G22G21G 3G18G15G14G26G 9G19
  20640506.255    12619818.54844   9843530.60142  20640505.804    20640502.805
  20929377.820    20031058.65743  15606349.96642  20929377.606    20929375.815
  21952184.548    -8953171.79243  -6955577.46842  21952184.737    21952184.922
  20640393.504    18846787.60343  14685760.65242  20640393.703    20640391.919
  20438332.484    -7796718.71943  -6060940.16942  20438332.029    20438331.839
  23288202.527   -11499628.51643  -8899769.72742  23288203.419    23288205.143
  24190187.827     7865281.92143   6111340.66042  24190188.133    24190189.571
  24254943.889    -6212281.48843  -4801266.24642  24254944.526    24254948.297
  24365218.793    -9156155.95843  -7077040.18442  24365218.780    24365218.841
 04  5 20 19 34 30.0000000  0  9G22G21G 3G18G15G14G26G 9G19
  20636425.666    12598374.91044   9826821.27842  20636425.220    20636422.209
  20937603.725    20074285.88443  15640033.48242  20937603.506    20937601.719
  21944604.079    -8993007.38743  -6986618.19842  21944604.311    21944604.493
  20646770.572    18880299.13243  14711873.51242  20646770.764    20646768.978
  20430368.690    -7838568.76343  -6093550.59442  20430368.249    20430368.027
  23267432.743   -11608774.07243  -8984818.10242  23267433.632    23267435.318
  24210551.762     7972294.41043   6194726.94342  24210552.054    24210553.462
  24241964.529    -6280488.04143  -4854414.10942  24241965.121    24241968.882
  24346936.126    -9252232.40743  -7151904.95842  24346936.180    24346936.016
 04  5 20 19 35  0.0000000  0  9G22G21G 3G18G15G14G26G 9G19
  20632411.199    12577278.77944   9810382.74142  20632410.773    20632407.751
  20945894.071    20117851.67543  15673980.80442  20945893.824    20945892.078
  21937124.876    -9032311.04943  -7017244.43742  21937125.085    21937125.280
  20653203.908    18914106.31843  14738216.74942  20653204.100    20653202.298
  20422460.778    -7880125.20543  -6125932.24142  20422460.319    20422460.106
  23246697.249   -11717739.60843  -9069726.21042  23246698.132    23246699.692
  24230966.318     8079573.18443   6278320.71942  24230966.688    24230968.056
  24229043.378    -6348389.25343  -4907324.05842  24229043.873    24229047.616
  24328698.402    -9348072.15743  -7226585.25842  24328698.462    24328698.349
 04  5 20 19 35 30.0000000  0  9G22G21G 3G18G15G14G26G 9G19
  20628462.359    12556527.38944   9794212.83442  20628461.916    20628458.898
  20954248.494    20161754.28043  15708190.57742  20954248.236    20954246.514
  21929746.700    -9071083.55143  -7047456.78842  21929746.940    21929747.145
  20659692.824    18948205.75543  14764787.71642  20659693.033    20659691.221
  20414608.636    -7921388.45543  -6158085.42542  20414608.190    20414607.986
  23225996.104   -11826524.44243  -9154493.51242  23225996.993    23225998.507
  24251430.644     8187113.43643   6362118.24642  24251430.894    24251432.276
  24216180.498    -6415983.44043  -4959994.71142  24216181.086    24216184.849
  24310505.936    -9443674.34643  -7301080.46842  24310505.977    24310505.806
 04  5 20 19 36  0.0000000  0  9G22G21G 3G18G15G14G26G 9G19
  20624578.843    12536119.33944   9778310.46142  20624578.411    20624575.379
  20962666.822    20205992.69143  15742662.02142  20962666.574    20962664.857
  21922469.674    -9109324.63743  -7077255.05442  21922469.913    21922470.126
  20666236.900    18982595.05243  14791584.54742  20666237.109    20666235.303
  20406812.304    -7962358.43443  -6190010.08842  20406811.851    20406811.669
  23205329.591   -11935127.07843  -9239118.82742  23205330.519    23205331.985
  24271943.891     8294910.53043   6446115.89942  24271944.113    24271945.484
  24203376.506    -6483268.74343  -5012424.69342  24203377.075    24203380.704
  24292358.912    -9539037.86443  -7375389.71942  24292358.882    24292358.715
 04  5 20 19 36 30.0000000  0  9G22G21G 3G18G15G14G26G 9G19
  20620760.892    12516055.80244   9762676.54042  20620760.430    20620757.415
  20971149.419    20250568.87543  15777396.66242  20971149.183    20971147.497
  21915294.335    -9147031.25343  -7106636.84042  21915294.590    21915294.804
  20672836.234    19017274.74243  14818607.65742  20672836.450    20672834.637
  20399072.433    -8003031.65143  -6221703.51042  20399071.992    20399071.821
  23184698.633   -12043543.23043  -9323598.85842  23184699.552    23184700.989
  24292505.682     8402963.39743   6530312.86342  24292505.935    24292507.456
  24190632.175    -6550240.52043  -5064610.40642  24190632.837    24190636.329
  24274258.108    -9634158.26043  -7449509.54742  24274258.062    24274257.992
 04  5 20 19 37  0.0000000  0  9G22G21G 3G18G15G14G26G 9G19
  20617008.429    12496336.52144   9747310.87042  20617007.965    20617004.966
  20979696.384    20295483.30243  15812394.86842  20979696.148    20979694.461
  21908221.102    -9184201.41643  -7135600.61942  21908221.329    21908221.571
  20679490.727    19052244.18343  14845856.54442  20679490.920    20679489.134
  20391389.422    -8043406.21343  -6253164.21542  20391388.960    20391388.802
  23164103.715   -12151769.52243  -9407930.93242  23164104.690    23164106.144
  24313115.690     8511269.41243   6614707.09442  24313115.992    24313117.515
  24177948.208    -6616894.99343  -5116548.87042  24177948.901    24177952.274
  24256204.236    -9729032.15743  -7523437.27042  24256204.201    24256204.070
 04  5 20 19 37 30.0000000  0  9G22G21G 3G18G15G14G26G 9G19
  20613320.783    12476957.84944   9732210.61042  20613320.328    20613317.330
  20988307.178    20340733.06943  15847654.37742  20988306.939    20988305.270
  21901249.608    -9220836.90143  -7164147.75642  21901249.851    21901250.084
  20686199.431    19087498.52743  14873327.43642  20686199.614    20686197.844
  20383762.905    -8083483.90543  -6284393.58642  20383762.424    20383762.290
  23143544.827   -12259806.77543  -9492115.69542  23143545.820    23143547.212
  24333772.656     8619822.18543   6699293.60942  24333772.944    24333774.387
  24165324.606    -6683231.95543  -5168239.92942  24165325.310    24165328.486
  24238197.099    -9823660.12843  -7597173.27942  24238197.048    24238197.003
 04  5 20 19 38  0.0000000  0  9G22G21G 3G18G15G14G26G 9G19
  20609698.667    12457923.60544   9717378.73542  20609698.223    20609695.223
  20996982.584    20386322.49143  15883178.55442  20996982.360    20996980.696
  21894380.897    -9256932.27643  -7192274.03242  21894381.129    21894381.360
  20692962.975    19123041.03543  14901022.87242  20692963.156    20692961.400
  20376193.998    -8123258.76143  -6315386.98442  20376193.528    20376193.386
  23123023.342   -12367647.68843  -9576147.47442  23123024.268    23123025.676
  24354476.794     8728623.22143   6784073.56342  24354477.181    24354478.569
  24152762.934    -6749243.72743  -5219677.59442  24152763.560    24152766.663
  24220238.090    -9918035.28843  -7670712.28442  24220238.047    24220238.027
 04  5 20 19 38 30.0000000  0  9G22G21G 3G18G15G14G26G 9G19
  20606141.312    12439229.51844   9702811.92042  20606140.845    20606137.848
  21005722.081    20432248.61543  15918965.09642  21005721.855    21005720.187
  21887614.631    -9292489.37843  -7219980.87842  21887614.820    21887615.070
  20699780.445    19158866.99043  14928939.17942  20699780.622    20699778.887
  20368682.372    -8162732.66243  -6346145.86842  20368681.896    20368681.750
  23102539.065   -12475292.94643  -9660026.78342  23102539.949    23102541.381
  24375226.972     8837665.95843   6869041.85242  24375227.449    24375228.796
  24140263.164    -6814930.50243  -5270862.03742  24140263.840    24140266.944
  24202327.015   -10012158.41043  -7744054.90442  24202327.049    24202326.944
 04  5 20 19 39  0.0000000  0  9G22G21G 3G18G15G14G26G 9G19
  20602648.882    12420876.64544   9688510.98142  20602648.417    20602645.406
  21014525.819    20478512.46543  15955014.79842  21014525.607    21014523.986
  21880951.220    -9327505.83043  -7247266.43642  21880951.400    21880951.672
  20706651.826    19194976.25343  14957076.24542  20706652.012    20706650.273
  20361228.499    -8201903.08643  -6376668.28142  20361228.045    20361227.888
  23082092.696   -12582738.84343  -9743750.74542  23082093.617    23082094.980
  24396022.745     8946948.50343   6954197.00642  24396023.270    24396024.616
  24127825.951    -6880287.94943  -5321789.85542  24127826.607    24127829.800
  24184464.608   -10106025.60843  -7817198.12842  24184464.644    24184464.616
 04  5 20 19 39 30.0000000  0  9G22G21G 3G18G15G14G26G 9G19
  20599220.623    12402861.08744   9674472.88542  20599220.184    20599217.152
  21023393.287    20525111.04343  15991325.32342  21023393.067    21023391.466
  21874390.311    -9361983.52643  -7274132.18842  21874390.500    21874390.795
  20713576.360    19231364.73143  14985430.87842  20713576.539    20713574.795
  20353832.096    -8240771.52543  -6406955.37842  20353831.638    20353831.462
  23061684.234   -12689985.77843  -9827319.68742  23061685.102    23061686.472
  24416863.013     9056464.76543   7039534.28142  24416863.640    24416864.857
  24115451.505    -6945315.57343  -5372460.69942  24115452.141    24115455.470
  24166650.781   -10199637.45043  -7890142.41242  24166650.833    24166650.794
 04  5 20 19 40  0.0000000  0  9G22G21G 3G18G15G14G26G 9G19
  20595857.644    12385188.40744   9660701.96842  20595857.201    20595854.143
  21032325.631    20572050.58543  16027901.54042  21032325.388    21032323.807
  21867933.365    -9395915.07343  -7300572.37142  21867933.570    21867933.863
  20720554.992    19268037.63143  15014007.14142  20720555.192    20720553.442
  20346494.618    -8279330.35043  -6437001.22042  20346494.162    20346493.972
  23041315.320   -12797024.93543  -9910726.73142  23041316.201    23041317.448
  24437748.452     9166218.08043   7125056.26142  24437748.969    24437750.398
  24103141.751    -7010004.15343  -5422867.34242  24103142.314    24103145.487
  24148887.330   -10292985.08743  -7962880.81942  24148887.401    24148887.285
 04  5 20 19 40 30.0000000  0  9G22G21G 3G18G15G14G26G 9G19
  20592558.992    12367853.79144   9647194.47242  20592558.537    20592555.484
  21041322.176    20619327.46543  16064740.61342  21041321.926    21041320.352
  21861579.743    -9429303.52243  -7326589.35542  21861579.997    21861580.261
  20727586.530    19304988.58043  15042800.06142  20727586.750    20727585.007
  20339215.583    -8317582.04143  -6466807.73742  20339215.125    20339214.925
  23020985.661   -12903857.72243  -9993972.95142  23020986.550    23020987.749
  24458677.528     9276200.94143   7210757.13542  24458678.121    24458679.516
  24090896.223    -7074354.69443  -5473010.59442  24090896.747    24090899.890
  24131173.831   -10386069.89843  -8035414.41042  24131173.986    24131173.831
 04  5 20 19 41  0.0000000  0  9G22G21G 3G18G15G14G26G 9G19
  20589324.416    12350856.04444   9633949.47442  20589323.981    20589320.917
  21050382.727    20666940.78843  16101841.85042  21050382.470    21050380.911
  21855329.653    -9462148.17043  -7352182.60142  21855329.893    21855330.107
  20734670.689    19342215.94943  15071808.37942  20734670.895    20734669.168
  20331995.137    -8355525.77443  -6496374.28242  20331994.675    20331994.487
  23000695.647   -13010482.08343 -10077056.76342  23000696.514    23000697.755
  24479649.570     9386409.84543   7296634.12242  24479650.148    24479651.674
  24078715.545    -7138364.59043  -5522888.40542  24078716.054    24078719.253
  24113510.752   -10478890.02943  -8107741.76542  24113510.919    24113510.634
 04  5 20 19 41 30.0000000  0  8G22G21G 3G18G15G14G 9G19
  20586155.061    12334201.01544   9620971.53242  20586154.627    20586151.579
  21059508.561    20714897.00143  16139210.27642  21059508.285    21059506.713
  21849184.427    -9494441.51743  -7377346.26442  21849184.701    21849184.888
  20741808.391    19379724.73943  15101035.98342  20741808.620    20741806.878
  20324834.760    -8393153.75843  -6525694.79542  20324834.322    20324834.116
  22980446.979   -13116889.14043 -10159971.26042  22980447.825    22980449.043
  24066601.440    -7202024.55843  -5572493.55442  24066601.962    24066605.034
  24095899.750   -10571436.41443  -8179855.80842  24095899.925    24095899.685
 04  5 20 19 42  0.0000000  0  8G22G21G 3G18G15G14G 9G19
  20583049.244    12317879.78444   9608253.68942  20583048.795    20583045.739
  21068698.087    20763188.07643  16176839.63042  21068697.846    21068696.251
  21843142.790    -9526190.53943  -7402085.77342  21843143.088    21843143.245
  20748997.876    19417505.58943  15130475.58442  20748998.105    20748996.376
  20317733.198    -8430472.63343  -6554774.44042  20317732.782    20317732.571
  22960238.587   -13223084.48943 -10242720.77642  22960239.428    22960240.639
  24054552.963    -7265339.38143  -5621829.75342  24054553.584    24054556.676
  24078339.835   -10663714.46643  -8251760.75742  24078339.981    24078339.722
 04  5 20 19 42 30.0000000  0  8G22G21G 3G18G15G14G 9G19
  20580007.188    12301893.66044   9595796.96942  20580006.742    20580003.669
  21077951.727    20811816.02143  16214731.47442  21077951.485    21077949.889
  21837205.324    -9557392.30343  -7426398.85242  21837205.627    21837205.737
  20756239.337    19455559.64143  15160128.06742  20756239.585    20756237.847
  20310691.160    -8467478.80044  -6583610.41842  20310690.729    20310690.525
  22940071.441   -13329063.26643 -10325301.54342  22940072.243    22940073.486
  24042571.354    -7328303.84843  -5670892.94842  24042571.833    24042574.930
  24060831.850   -10755719.77543  -8323453.18842  24060832.024    24060831.657
 04  5 20 19 43  0.0000000  0  8G22G21G 3G18G15G14G 9G19
  20577028.817    12286242.16944   9583600.99942  20577028.375    20577025.279
  21087269.495    20860781.07843  16252886.00442  21087269.268    21087267.690
  21831372.217    -9588045.60043  -7450284.55242  21831372.515    21831372.635
  20763532.518    19493885.40843  15189992.27642  20763532.752    20763531.037
  20303708.935    -8504170.67544  -6612201.49342  20303708.517    20303708.294
  22919945.977   -13434823.11143 -10407711.71642  22919946.726    22919948.018
  24030656.857    -7390914.91343  -5719680.75842  24030657.428    24030660.346
  24043376.295   -10847449.49143  -8394930.86342  24043376.447    24043376.025
 04  5 20 19 43 30.0000000  0  8G22G21G 3G18G15G14G 9G19
  20574114.314    12270926.22344   9571666.49642  20574113.848    20574110.745
  21096651.786    20910084.96243  16291304.55242  21096651.537    21096649.962
  21825643.974    -9618147.72443  -7473740.77042  21825644.314    21825644.422
  20770877.461    19532483.20543  15220068.45942  20770877.698    20770875.985
  20296787.144    -8540545.04443  -6640545.16342  20296786.729    20296786.480
  22899862.957   -13540359.59943 -10489947.85742  22899863.766    22899864.950
  24018810.518    -7453167.66143  -5768189.36442  24018811.150    24018813.855
  24025974.028   -10938899.25443  -8466190.39142  24025974.173    24025973.762
 04  5 20 19 44  0.0000000  0  8G22G21G 3G18G15G14G 9G19
  20571263.713    12255946.13344   9559993.69842  20571263.257    20571260.137
  21106098.685    20959728.42443  16329987.70842  21106098.451    21106096.856
  21820021.119    -9647696.20143  -7496765.57542  21820021.455    21820021.564
  20778274.087    19571352.69443  15250356.35042  20778274.341    20778272.643
  20289926.229    -8576599.53044  -6668639.57542  20289925.818    20289925.537
  22879823.120   -13645669.08643 -10572007.10642  22879823.944    22879825.126
  24007033.073    -7515057.89543  -5816415.46642  24007033.624    24007036.565
  24008625.718   -11030065.72843  -8537229.20142  24008625.809    24008625.302
 04  5 20 19 44 30.0000000  0  8G22G21G 3G18G15G14G 9G19
  20568475.902    12241296.08444   9548578.07242  20568475.457    20568472.332
  21115609.194    21009706.17643  16368931.35142  21115608.945    21115607.390
  21814502.781    -9676695.52343  -7519362.47042  21814503.085    21814503.207
  20785721.143    19610487.15843  15280850.71342  20785721.420    20785719.696
  20283125.435    -8612338.03644  -6696487.76742  20283125.030    20283124.740
  22859826.020   -13750754.22143 -10653891.54142  22859826.888    22859828.011
  23995324.210    -7576588.21643  -5864361.14142  23995324.725    23995327.803
  23991330.780   -11120951.44143  -8608049.25842  23991330.885    23991330.349
 04  5 20 19 45  0.0000000  0  8G22G21G 3G18G15G14G 9G19
  20565751.802    12226980.80944   9537423.30842  20565751.377    20565748.236
  21125184.402    21060023.98243  16408139.96242  21125184.167    21125182.619
  21809090.078    -9705139.51643  -7541526.64042  21809090.401    21809090.526
  20793219.506    19649891.23343  15311555.15742  20793219.786    20793218.062
  20276386.096    -8647753.53943  -6724084.27542  20276385.708    20276385.406
  22839873.184   -13855607.00443 -10735594.92742  22839874.072    22839875.105
  23983685.557    -7637749.69043  -5912019.39842  23983686.051    23983689.120
  23974090.779   -11211548.27143  -8678644.23042  23974090.903    23974090.301
 04  5 20 19 45 30.0000000  0  8G22G21G 3G18G15G14G 9G19
  20563090.771    12212996.86644   9526526.72642  20563090.342    20563087.174
  21134823.751    21110678.95743  16447611.30542  21134823.536    21134822.004
  21803782.799    -9733029.61443  -7563259.20342  21803783.117    21803783.247
  20800768.363    19689560.69543  15342466.39842  20800768.655    20800766.936
  20269707.965    -8682847.36143  -6751430.12242  20269707.587    20269707.275
  22819964.516   -13960227.38243 -10817117.21342  22819965.428    22819966.440
  23972117.119    -7698542.06143  -5959390.04642  23972117.569    23972120.647
  23956905.677   -11301856.33743  -8749014.14842  23956905.792    23956905.271
 04  5 20 19 46  0.0000000  0  8G22G21G 3G18G15G14G 9G19
  20560492.990    12199345.39444   9515889.22042  20560492.567    20560489.396
  21144527.592    21161672.78743  16487346.69342  21144527.386    21144525.854
  21798581.393    -9760363.17743  -7584558.10342  21798581.728    21798581.873
  20808367.851    19729496.00043  15373584.78942  20808368.124    20808366.390
  20263091.671    -8717616.19843  -6778522.73542  20263091.308    20263090.977
  22800100.930   -14064610.98143 -10898455.01042  22800101.839    22800102.818
  23960619.949    -7758960.27843  -6006469.13242  23960620.390    23960623.303
  23939776.372   -11391871.14643  -8819155.51142  23939776.547    23939775.967
 04  5 20 19 46 30.0000000  0  8G22G21G 3G18G15G14G 9G19
  20557958.305    12186025.56844   9505510.13542  20557957.895    20557954.708
  21154295.896    21213005.32943  16527346.01442  21154295.705    21154294.177
  21793486.027    -9787139.62943  -7605422.89042  21793486.351    21793486.501
  20816017.530    19769695.29743  15404908.88842  20816017.830    20816016.067
  20256537.520    -8752058.64144  -6805361.01442  20256537.130    20256536.792
  22780282.836   -14168755.75043 -10979606.71342  22780283.732    22780284.637
  23949194.527    -7819001.46043  -6053254.44442  23949194.964    23949197.938
  23922703.217   -11481590.40943  -8889066.54042  23922703.484    23922703.012
 04  5 20 19 47  0.0000000  0  8G22G21G 3G18G15G14G 9G19
  20555486.074    12173034.03744   9495386.86142  20555485.678    20555482.522
  21164128.137    21264673.91443  16567607.18642  21164127.952    21164126.434
  21788496.368    -9813360.46743  -7625854.73542  21788496.675    21788496.863
  20823716.754    19810155.02043  15436435.91142  20823717.067    20823715.306
  20250045.225    -8786175.90844  -6831945.91242  20250044.847    20250044.500
  22760510.196   -14272661.32743 -11060572.03142  22760511.101    22760512.011
  23937840.841    -7878665.10743  -6099745.58442  23937841.197    23937844.133
  23905686.340   -11571014.11643  -8958747.28542  23905686.635    23905686.168
 04  5 20 19 47 30.0000000  0  8G22G21G 3G18G15G14G 9G19
  20553076.795    12160373.16244   9485521.24642  20553076.401    20553073.239
  21174024.890    21316681.44743  16608132.46842  21174024.702    21174023.197
  21783613.186    -9839021.82943  -7645850.62942  21783613.461    21783613.696
  20831465.944    19850877.29343  15468167.52442  20831466.264    20831464.535
  20243615.722    -8819963.20144  -6858273.68342  20243615.344    20243614.990
  22740784.092   -14376322.31143 -11141346.75942  22740785.023    22740785.893
  23926560.198    -7937945.17343  -6145937.81542  23926560.674    23926563.420
  23888726.844   -11660136.56443  -9028193.28842  23888727.122    23888726.730
 04  5 20 19 48  0.0000000  0  8G22G21G 3G18G15G14G 9G19
  20550730.014    12148040.75744   9475911.57642  20550729.615    20550726.469
  21183985.950    21369026.84743  16648921.02242  21183985.740    21183984.264
  21778836.385    -9864124.25643  -7665410.98242  21778836.633    21778836.886
  20839264.522    19891859.05743  15500101.33642  20839264.851    20839263.129
  20237248.946    -8853420.88744  -6884344.61942  20237248.581    20237248.209
  22721104.788   -14479737.38043 -11221929.86842  22721105.745    22721106.569
  23915352.767    -7996840.22943  -6191830.03742  23915353.233    23915356.209
  23871824.947   -11748956.57343  -9097403.64242  23871825.162    23871824.827
 04  5 20 19 48 30.0000000  0  8G22G21G 3G18G15G14G 9G19
  20548445.578    12136036.00644   9466557.22042  20548445.199    20548442.039
  21194011.212    21421709.65843  16689972.49242  21194010.989    21194009.540
  21774166.024    -9888667.17143  -7684535.35642  21774166.287    21774166.580
  20847112.236    19933098.84543  15532236.20242  20847112.549    20847110.832
  20230945.201    -8886547.45944  -6910157.54542  20230944.827    20230944.438
  22701472.820   -14582904.07643 -11302319.45042  22701473.724    22701474.507
  23904219.254    -8055347.30543  -6237419.95642  23904219.778    23904222.742
  23854981.133   -11837471.59143  -9166376.36042  23854981.299    23854980.866
 04  5 20 19 49  0.0000000  0  8G22G21G 3G18G15G14G 9G19
  20546223.140    12124357.07644   9457456.75842  20546222.778    20546219.611
  21204100.436    21474728.60243  16731285.88142  21204100.209    21204098.785
  21769602.172    -9912650.37443  -7703223.58942  21769602.471    21769602.761
  20855008.521    19974594.10743  15564570.13942  20855008.844    20855007.142
  20224704.565    -8919342.24244  -6935711.93242  20224704.185    20224703.793
  22681888.333   -14685821.15843 -11382514.52342  22681889.200    22681889.985
  23893159.865    -8113464.43343  -6282706.01842  23893160.464    23893163.230
  23838195.514   -11925680.17843  -9235110.28642  23838195.751    23838195.282
 04  5 20 19 49 30.0000000  0  8G22G21G 3G18G15G14G 9G19
  20544062.791    12113004.25944   9448610.40242  20544062.405    20544059.242
  21214253.846    21528084.90043  16772862.14142  21214253.614    21214252.251
  21765145.127    -9936072.57743  -7721474.68242  21765145.408    21765145.700
  20862953.512    20016345.19443  15597103.41842  20862953.838    20862952.160
  20218527.537    -8951802.89544  -6961005.96242  20218527.154    20218526.754
  22662352.015   -14788484.96943 -11462512.23842  22662352.876    22662353.622
  23882175.497    -8171187.67343  -6327685.13242  23882176.125    23882178.903
  23821468.970   -12013578.75143  -9303602.65042  23821469.237    23821468.666
 04  5 20 19 50  0.0000000  0  8G22G21G 3G18G15G14G 9G19
  20541964.659    12101978.35844   9440018.78242  20541964.262    20541961.089
  21224471.779    21581780.26243  16814702.60642  21224471.573    21224470.211
  21760795.324    -9958931.01243  -7739286.47242  21760795.629    21760795.886
  20870947.304    20058352.60643  15629836.43242  20870947.629    20870945.953
  20212414.709    -8983926.13944  -6986037.07242  20212414.313    20212413.914
  22642864.737   -14890891.02243 -11542309.10242  22642865.566    22642866.295
  23871267.005    -8228512.18743  -6372353.56542  23871267.611    23871270.578
  23804802.226   -12101162.98543  -9371850.07142  23804802.453    23804801.930
 04  5 20 19 50 30.0000000  0  8G22G21G 3G18G15G14G 9G19
  20539928.196    12091276.54044   9431679.69642  20539927.768    20539924.621
  21234753.720    21635811.87043  16856805.08142  21234753.515    21234752.173
  21756552.540    -9981227.13043  -7756660.08842  21756552.857    21756553.110
  20878989.030    20100611.96843  15662765.77242  20878989.357    20878987.682
  20206365.921    -9015712.86844  -7010805.96642  20206365.524    20206365.132
  22623426.559   -14993039.14343 -11621904.98542  22623427.369    22623428.121
  23860434.520    -8285437.16343  -6416710.67742  23860435.265    23860437.966
  23788195.377   -12188432.63643  -9439852.36642  23788195.573    23788195.007
 04  5 20 19 51  0.0000000  0  8G22G21G 3G18G15G14G 9G19
  20537953.470    12080899.33944   9423593.55942  20537953.059    20537949.913
  21245099.950    21690181.29343  16899170.78442  21245099.724    21245098.396
  21752417.142   -10002958.87243  -7773593.93942  21752417.463    21752417.721
  20887078.738    20143123.48743  15695891.59742  20887079.072    20887077.382
  20200381.690    -9047160.24944  -7035310.43142  20200381.281    20200380.903
  22604038.191   -15094925.67043 -11701297.01642  22604039.006    22604039.710
  23849678.817    -8341958.28043  -6460753.06542  23849679.570    23849682.352
  23771649.056   -12275383.89043  -9507606.56042  23771649.243    23771648.729
 04  5 20 19 51 30.0000000  0  8G22G21G 3G18G15G14G 9G19
  20536040.131    12070844.64444   9415758.72442  20536039.733    20536036.563
  21255510.097    21744886.60443  16941798.22042  21255509.876    21255508.548
  21748388.866   -10024127.53043  -7790089.01842  21748389.216    21748389.469
  20895215.957    20185884.75843  15729212.03442  20895216.285    20895214.630
  20194462.008    -9078268.39044  -7059550.55542  20194461.608    20194461.247
  22584699.762   -15196549.48943 -11780484.32442  22584700.595    22584701.268
  23839000.323    -8398074.44543  -6504479.94242  23839001.076    23839003.604
  23755163.639   -12362015.40743  -9575111.60242  23755163.797    23755163.320
 04  5 20 19 52  0.0000000  0  8G22G21G 3G18G15G14G 9G19
  20534188.650    12061114.98044   9408177.15742  20534188.255    20534185.072
  21265984.819    21799931.11843  16984689.97042  21265984.553    21265983.256
  21744468.558   -10044729.05043  -7806142.17842  21744468.903    21744469.138
  20903401.021    20228897.45843  15762728.38842  20903401.348    20903399.706
  20188607.784    -9109032.55344  -7083522.64242  20188607.376    20188607.031
  22565412.455   -15297904.75843 -11859462.37742  22565413.289    22565413.939
  23828400.001    -8453779.38143  -6547886.36142  23828400.751    23828403.333
  23738740.184   -12448321.44843  -9642363.03442  23738740.304    23738739.782
 04  5 20 19 52 30.0000000  0  8G22G21G 3G18G15G14G 9G19
  20532398.542    12051707.98844   9400847.02242  20532398.165    20532394.988
  21276523.909    21855314.07443  17027845.44242  21276523.650    21276522.361
  21740656.070   -10064764.02543  -7821753.86742  21740656.405    21740656.620
  20911633.532    20272159.44543  15796438.99242  20911633.875    20911632.238
  20182819.020    -9139452.78644  -7107226.73042  20182818.616    20182818.289
  22546176.457   -15398990.41743 -11938230.35542  22546177.312    22546177.914
  23817878.236    -8509071.57443  -6590971.14042  23817878.971    23817881.550
  23722378.785   -12534300.92843  -9709359.99842  23722378.961    23722378.405
 04  5 20 19 53  0.0000000  0  8G22G21G 3G18G15G14G 9G19
  20530668.928    12042618.68344   9393764.43642  20530668.557    20530665.368
  21287126.306    21911029.77643  17071260.19842  21287126.063    21287124.788
  21736950.747   -10084235.83443  -7836926.73042  21736951.093    21736951.273
  20919912.379    20315664.95343  15830339.34742  20919912.716    20919911.133
  20177095.199    -9169531.71944  -7130664.87342  20177094.808    20177094.479
  22526991.414   -15499808.22143 -12016789.60942  22526992.289    22526992.842
  23807434.682    -8563952.24143  -6633735.25842  23807435.435    23807437.980
  23706079.313   -12619955.24943  -9776103.59842  23706079.448    23706078.899
 04  5 20 19 53 30.0000000  0  8G22G21G 3G18G15G14G 9G19
  20529000.259    12033849.71244   9386931.46342  20528999.885    20528996.691
  21297792.718    21967082.02643  17114937.19542  21297792.480    21297791.270
  21733353.354   -10103140.44243  -7851657.61942  21733353.715    21733353.878
  20928237.991    20359415.98343  15864431.01942  20928238.298    20928236.732
  20171437.244    -9199264.45844  -7153833.25242  20171436.873    20171436.548
  22507858.442   -15600352.22343 -12095135.50542  22507859.349    22507859.890
  23797070.743    -8618415.09943  -6676173.81942  23797071.496    23797074.144
  23689842.820   -12705278.57343  -9842589.27342  23689842.943    23689842.388
 04  5 20 19 54  0.0000000  0  8G22G21G 3G18G15G14G 9G19
  20527392.749    12025402.00644   9380348.81842  20527392.355    20527389.157
  21308523.517    22023472.31143  17158877.59242  21308523.257    21308522.064
  21729864.175   -10121476.34543  -7865945.36142  21729864.542    21729864.688
  20936610.393    20403412.98043  15898714.35042  20936610.694    20936609.127
  20165845.715    -9228648.25644  -7176729.73442  20165845.335    20165845.022
  22488778.356   -15700618.34743 -12173264.87942  22488779.278    22488779.824
  23786787.058    -8672456.09543  -6718283.63742  23786787.842    23786790.315
  23673670.040   -12790266.84643  -9908813.87742  23673670.160    23673669.640
 04  5 20 19 54 30.0000000  0  8G22G21G 3G18G15G14G 9G19
  20525846.261    12017275.00544   9374016.07642  20525845.857    20525842.665
  21319318.619    22080200.57043  17203081.34642  21319318.355    21319317.164
  21726483.410   -10139242.35343  -7879789.02442  21726483.778    21726483.980
  20945029.414    20447655.02843  15933188.63542  20945029.727    20945028.139
  20160320.954    -9257681.20744  -7199352.82642  20160320.568    20160320.270
  22469751.732   -15800603.72543 -12251175.49342  22469752.617    22469753.207
  23776584.375    -8726071.63743  -6760061.93142  23776585.231    23776587.617
  23657561.538   -12874917.28743  -9974775.22442  23657561.720    23657561.202
 04  5 20 19 55  0.0000000  0  8G22G21G 3G18G15G14G 9G19
  20524359.915    12009464.01244   9367929.57342  20524359.513    20524356.293
  21330177.203    22137262.57743  17247545.16242  21330176.973    21330175.804
  21723210.595   -10156441.47243  -7893190.96442  21723210.925    21723211.122
  20953494.020    20492136.68543  15967849.62842  20953494.361    20953492.735
  20154862.513    -9286365.63644  -7221704.34542  20154862.136    20154861.821
  22450778.227   -15900309.83343 -12328868.49142  22450779.082    22450779.694
  23766462.376    -8779262.83643  -6801509.57442  23766463.252    23766465.680
  23641517.109   -12959231.33643 -10040474.47042  23641517.281    23641516.781
 04  5 20 19 55 30.0000000  0  8G22G21G 3G18G15G14G 9G19
  20522934.086    12001971.07544   9362090.90842  20522933.675    20522930.453
  21341099.909    22194661.15043  17292271.23942  21341099.681    21341098.473
  21720046.185   -10173070.42543  -7906148.61442  21720046.554    21720046.789
  20962004.551    20536859.57943  16002698.59542  20962004.890    20962003.234
  20149471.198    -9314697.34344  -7243781.01042  20149470.825    20149470.504
  22431858.873   -15999731.38043 -12406339.76042  22431859.755    22431860.338
  23756422.231    -8832024.01543  -6842622.13142  23756423.068    23756425.559
  23625537.801   -13043203.47443 -10105907.28142  23625537.926    23625537.370
 04  5 20 19 56  0.0000000  0  8G22G21G 3G18G15G14G 9G19
  20521568.558    11994795.06044   9356499.19242  20521568.164    20521564.908
  21352086.517    22252395.90543  17337259.28242  21352086.317    21352085.131
  21716990.300   -10189129.32243  -7918662.06842  21716990.669    21716990.915
  20970560.620    20581821.85643  16037734.09042  20970560.968    20970559.288
  20144147.196    -9342675.21844  -7265581.96442  20144146.848    20144146.487
  22412994.088   -16098866.27743 -12483587.65942  22412994.944    22412995.530
  23746464.478    -8884352.70243  -6883397.68042  23746465.137    23746467.651
  23609623.893   -13126831.55543 -10171071.98942  23609624.050    23609623.452
 04  5 20 19 56 30.0000000  0  8G22G21G 3G18G15G14G 9G19
  20520263.084    11987934.54144   9351153.31742  20520262.674    20520259.399
  21363136.906    22310465.79943  17382508.47142  21363136.724    21363135.560
  21714042.898   -10204618.39143  -7930731.50542  21714043.237    21714043.441
  20979161.957    20627022.00343  16072954.94242  20979162.307    20979160.613
  20138890.692    -9370298.33744  -7287106.48342  20138890.368    20138890.000
  22394184.185   -16197712.64043 -12560610.72842  22394185.034    22394185.635
  23736589.276    -8936246.74743  -6923834.54542  23736589.908    23736592.466
  23593775.935   -13210113.49343 -10235966.98642  23593776.055    23593775.451
 04  5 20 19 57  0.0000000  0  8G22G21G 3G18G15G14G 9G19
  20519016.911    11981385.70844   9346050.32142  20519016.502    20519013.227
  21374250.514    22368867.82943  17428016.47042  21374250.353    21374249.186
  21711203.451   -10219540.06643  -7942358.81242  21711203.759    21711203.959
  20987807.753    20672455.71543  16108357.79242  20987808.113    20987806.381
  20133701.389    -9397568.38444  -7308355.88542  20133701.068    20133700.692
  22375429.019   -16296271.18043 -12637409.52442  22375429.889    22375430.468
  23726796.853    -8987706.35743  -6963932.88742  23726797.436    23726800.059
  23577993.661   -13293050.05943 -10300592.85742  23577993.763    23577993.139
 04  5 20 19 57 30.0000000  0  8G22G21G 3G18G15G14G 9G19
  20517831.399    11975155.73744   9341195.78942  20517831.006    20517827.711
  21385428.801    22427609.75243  17473789.32142  21385428.636    21385427.503
  21708473.537   -10233885.88543  -7953537.40042  21708473.888    21708474.059
  20996499.405    20718130.35843  16143948.38342  20996499.754    20996498.018
  20128581.101    -9424475.73644  -7329322.66442  20128580.788    20128580.409
  22356730.724   -16394531.17043 -12713975.68842  22356731.607    22356732.140
  23717089.157    -9038720.42743  -7003684.05942  23717089.713    23717092.395
  23562279.116   -13375630.46043 -10364941.20142  23562279.236    23562278.569
 04  5 20 19 58  0.0000000  0  8G22G21G 3G18G15G14G 9G19
  20516704.776    11969235.23744   9336582.40642  20516704.384    20516701.101
  21396670.071    22486682.59743  17519820.03142  21396669.924    21396668.778
  21705851.661   -10247664.08243  -7964273.68742  21705852.031    21705852.169
  21005234.868    20764035.33143  16179718.45242  21005235.228    21005233.494
  20123528.439    -9451027.79244  -7350012.58942  20123528.127    20123527.731
  22338088.069   -16492498.86943 -12790314.09242  22338088.932    22338089.435
  23707465.162    -9089295.16843  -7043092.89642  23707465.754    23707468.293
  23546631.111   -13457860.93843 -10429016.87242  23546631.288    23546630.632
 04  5 20 19 58 30.0000000  0  8G22G21G 3G18G15G14G 9G19
  20515638.108    11963629.91244   9332214.61642  20515637.756    20515634.478
  21407975.408    22546092.27343  17566113.21242  21407975.272    21407974.111
  21703339.021   -10260868.06343  -7974562.52842  21703339.404    21703339.589
  21014015.122    20810175.81743  16215672.04042  21014015.492    21014013.790
  20118544.906    -9477216.55044  -7370419.42742  20118544.580    20118544.182
  22319502.701   -16590165.40543 -12866417.83342  22319503.584    22319504.043
  23697926.347    -9139421.33543  -7082152.17942  23697926.975    23697929.616
  23531051.467   -13539732.26343 -10492812.68542  23531051.646    23531051.020
 04  5 20 19 59  0.0000000  0  8G22G21G 3G18G15G14G 9G19
  20514630.747    11958336.21244   9328089.64842  20514630.381    20514627.133
  21419344.405    22605836.37243  17612666.98242  21419344.261    21419343.116
  21700935.227   -10273499.84943  -7984405.50742  21700935.638    21700935.864
  21022839.593    20856548.58143  16251806.61942  21022839.946    21022838.269
  20113630.239    -9503043.32344  -7390544.20042  20113629.917    20113629.502
  22300974.603   -16687530.91743 -12942287.00642  22300975.512    22300975.944
  23688472.953    -9189098.59443  -7120861.69242  23688473.689    23688476.351
  23515540.136   -13621244.76143 -10556328.89642  23515540.290    23515539.705
 04  5 20 19 59 30.0000000  0  8G22G21G 3G18G15G14G 9G19
  20513682.825    11953355.04544   9324208.21042  20513682.470    20513679.261
  21430777.238    22665916.14743  17659482.32042  21430777.114    21430775.994
  21698640.741   -10285557.63743  -7993801.22042  21698641.111    21698641.408
  21031708.192    20903153.43143  16288122.05342  21031708.563    21031706.909
  20108785.025    -9528505.01044  -7410384.49042  20108784.707    20108784.323
  22282504.573   -16784591.62443 -13017918.67442  22282505.438    22282505.848
  23679105.833    -9238322.76943  -7159218.13542  23679106.515    23679109.208
  23500097.835   -13702394.50443 -10619562.43842  23500097.941    23500097.392
 04  5 20 20  0  0.0000000  0  8G22G21G 3G18G15G14G 9G19
  20512793.525    11948681.84844   9320566.74642  20512793.185    20512790.012
  21442273.220    22726327.67743  17706556.16242  21442273.064    21442272.008
  21696454.791   -10297044.83843  -8002752.32042  21696455.155    21696455.495
  21040620.085    20949985.74543  16324614.72742  21040620.469    21040618.842
  20104008.860    -9553603.88644  -7429942.07142  20104008.539    20104008.200
  22264092.307   -16881348.59543 -13093313.67542  22264093.123    22264093.542
  23669824.827    -9287094.96943  -7197222.40442  23669825.407    23669828.128
  23484724.286   -13783182.61343 -10682514.18342  23484724.397    23484723.936
 04  5 20 20  0 30.0000000  0  8G22G21G 3G18G15G14G 9G19
  20511963.354    11944319.24444   9317167.31042  20511962.999    20511959.840
  21453832.850    22787073.72943  17753890.67642  21453832.696    21453831.651
  21694378.162   -10307957.77943  -8011255.94042  21694378.490    21694378.877
  21049575.613    20997047.35143  16361286.07742  21049576.006    21049574.426
  20099302.676    -9578335.07844  -7449213.14342  20099302.361    20099302.017
  22245738.930   -16977796.09343 -13168467.52842  22245739.710    22245740.127
  23660630.958    -9335409.04943  -7234869.68942  23660631.499    23660634.134
  23469420.749   -13863603.12943 -10745179.49642  23469420.837    23469420.407
 04  5 20 20  1  0.0000000  0  8G22G21G 3G18G15G14G 9G19
  20511192.005    11940265.83444   9314008.80142  20511191.644    20511188.509
  21465456.061    22848153.76643  17801485.44642  21465455.888    21465454.877
  21692410.721   -10318296.72943  -8019312.30042  21692411.061    21692411.482
  21058574.461    21044336.56943  16398134.78042  21058574.847    21058573.303
  20094666.592    -9602697.88244  -7468197.16342  20094666.262    20094665.986
  22227444.728   -17073932.21643 -13243378.71242  22227445.566    22227445.962
  23651524.633    -9383262.96643  -7272158.41942  23651525.206    23651527.877
  23454187.534   -13943653.95843 -10807556.74242  23454187.648    23454187.255
 04  5 20 20  1 30.0000000  0  8G22G21G 3G18G15G14G 9G19
  20510479.186    11936519.92944   9311089.90642  20510478.807    20510475.699
  21477142.618    22909566.75443  17849339.66042  21477142.432    21477141.452
  21690552.452   -10328062.19943  -8026921.79142  21690552.747    21690553.229
  21067616.305    21091851.72343  16435159.54042  21067616.683    21067615.184
  20090100.758    -9626691.62344  -7486893.60042  20090100.401    20090100.157
  22209210.091   -17169755.34243 -13318046.00242  22209210.951    22209211.389
  23642506.071    -9430655.03043  -7309087.23542  23642506.639    23642509.380
  23439024.986   -14023333.52243 -10869644.69142  23439025.095    23439024.701
 04  5 20 20  2  0.0000000  0  8G22G21G 3G18G15G14G 9G19
  20509824.963    11933081.94944   9308410.94842  20509824.591    20509821.476
  21488892.661    22971313.59243  17897454.01942  21488892.486    21488891.547
  21688803.554   -10337252.79943  -8034083.32842  21688803.855    21688804.358
  21076701.070    21139592.40443  16472360.03242  21076701.458    21076699.976
  20085605.724    -9650313.27244  -7505300.09342  20085605.358    20085605.126
  22191035.759   -17265261.89943 -13392466.64242  22191036.604    22191037.031
  23633576.382    -9477580.71743  -7345652.67042  23633576.990    23633579.559
  23423933.805   -14102638.14143 -10931440.47342  23423933.887    23423933.553
 04  5 20 20  2 30.0000000  0  8G22G21G 3G18G15G14G 9G19
  20509228.361    11929946.76844   9305967.94142  20509227.983    20509224.868
  21500705.320    23033389.35043  17945824.68342  21500705.131    21500704.212
  21687163.231   -10345872.87243  -8040800.29742  21687163.539    21687164.050
  21085827.693    21187552.96143  16509731.85942  21085828.056    21085826.587
  20081180.850    -9673566.15544  -7523419.23642  20081180.484    20081180.254
  22172921.252   -17360454.16843 -13466642.40942  22172922.065    22172922.491
  23624735.166    -9524042.02043  -7381856.23842  23624735.719    23624738.263
  23408913.641   -14181569.81743 -10992945.65342  23408913.695    23408913.355
 04  5 20 20  3  0.0000000  0  8G22G21G 3G18G15G14G 9G19
  20508689.865    11927116.94944   9303762.87942  20508689.477    20508686.387
  21512581.179    23095797.13943  17994454.05742  21512580.974    21512580.075
  21685632.170   -10353918.78943  -8047069.87042  21685632.480    21685632.983
  21094996.616    21235735.71943  16547276.83142  21094996.951    21094995.511
  20076827.065    -9696445.42244  -7541247.24742  20076826.706    20076826.484
  22154867.638   -17455326.17743 -13540568.60742  22154868.485    22154868.891
  23615983.222    -9570033.16143  -7417693.44942  23615983.872    23615986.415
  23393965.507   -14260122.46143 -11054155.47742  23393965.613    23393965.309
 04  5 20 20  3 30.0000000  0  8G22G21G 3G18G15G14G 9G19
  20508209.987    11924595.11244   9301797.79942  20508209.601    20508206.510
  21524520.848    23158540.31343  18043344.76342  21524520.631    21524519.777
  21684211.138   -10361386.74743  -8052889.08542  21684211.401    21684211.922
  21104208.343    21284143.57943  16584997.20142  21104208.688    21104207.260
  20072545.364    -9718945.91244  -7558780.10842  20072545.006    20072544.799
  22136876.215   -17549871.64343 -13614240.33242  22136877.040    22136877.425
  23607322.054    -9615547.92343  -7453159.45442  23607322.661    23607325.182
  23379090.721   -14338289.99343 -11115065.22042  23379090.821    23379090.495
 04  5 20 20  4  0.0000000  0  8G22G21G 3G18G15G14G 9G19
  20507787.567    11922375.28944   9300068.05942  20507787.191    20507784.095
  21536523.289    23221613.28443  18092492.46242  21536523.083    21536522.252
  21682899.032   -10368281.93243  -8058261.99042  21682899.312    21682899.843
  21113461.583    21332769.51143  16622887.49742  21113461.914    21113460.519
  20068334.976    -9741071.73044  -7576021.01842  20068334.596    20068334.407
  22118946.283   -17644093.72243 -13687660.07142  22118947.121    22118947.513
  23598750.988    -9660588.84143  -7488256.22642  23598751.519    23598754.305
  23364288.670   -14416075.40443 -11175677.20942  23364288.747    23364288.411
 04  5 20 20  4 30.0000000  0  8G22G21G 3G18G15G14G 9G19
  20507423.026    11920459.61944   9298575.31742  20507422.643    20507419.567
  21548588.986    23285018.57243  18141899.11342  21548588.739    21548587.974
  21681696.472   -10374601.53643  -8063186.38642  21681696.754    21681697.285
  21122756.765    21381615.78843  16660949.49242  21122757.082    21122755.700
  20064196.684    -9762818.58444  -7592966.63142  20064196.313    20064196.136
  22101078.897   -17737987.23843 -13760823.79942  22101079.723    22101080.123
  23590271.183    -9705150.52443  -7522979.55842  23590271.657    23590274.521
  23349560.344   -14493473.40343 -11235987.32142  23349560.390    23349560.031
 04  5 20 20  5  0.0000000  0  8G22G21G 3G18G15G14G 9G19
  20507115.513    11918843.48844   9297315.98442  20507115.101    20507112.031
  21560717.119    23348752.17443  18191561.59342  21560716.890    21560716.141
  21680602.846   -10380348.82043  -8067664.81942  21680603.109    21680603.633
  21132092.853    21430677.16743  16699179.09642  21132093.170    21132091.799
  20060130.123    -9784188.63944  -7609618.63342  20060129.723    20060129.570
  22083273.816   -17831553.39843 -13833732.45242  22083274.606    22083275.010
  23581882.254    -9749234.15543  -7557330.38842  23581882.731    23581885.610
  23334905.447   -14570485.17743 -11295996.47942  23334905.507    23334905.135
 04  5 20 20  5 30.0000000  0  8G22G21G 3G18G15G14G 9G19
  20506866.775    11917536.48544   9296297.53242  20506866.392    20506863.323
  21572909.644    23412824.03943  18241487.64742  21572909.402    21572908.689
  21679620.104   -10385513.48343  -8071689.25742  21679620.352    21679620.841
  21141471.679    21479963.08443  16737583.66342  21141472.010    21141470.660
  20056137.477    -9805170.18244  -7625967.90142  20056137.085    20056136.931
  22065533.449   -17924779.48143 -13906376.11942  22065534.249    22065534.663
  23573586.681    -9792826.92743  -7591298.71942  23573587.283    23573590.118
  23320326.558   -14647097.81943 -11355694.62442  23320326.599    23320326.189
 04  5 20 20  6  0.0000000  0  8G22G21G 3G18G15G14G 9G19
  20506673.176    11916518.99144   9295504.66742  20506672.762    20506669.710
  21585162.960    23477215.39243  18291662.65342  21585162.710    21585162.033
  21678744.641   -10390114.24743  -8075274.29542  21678744.908    21678745.359
  21150889.411    21529453.37143  16776147.48042  21150889.716    21150888.376
  20052215.467    -9825780.52644  -7642027.92142  20052215.073    20052214.916
  22047854.644   -18017682.00343 -13978767.65442  22047855.455    22047855.885
  23565381.606    -9835944.93943  -7624897.12842  23565382.137    23565384.933
  23305820.422   -14723327.78043 -11415094.57342  23305820.474    23305820.074
 04  5 20 20  6 30.0000000  0  8G22G21G 3G18G15G14G 9G19
  20506537.416    11915805.57044   9294948.74242  20506537.019    20506533.964
  21597479.823    23541940.66443  18342097.85742  21597479.568    21597478.929
  21677979.393   -10394135.82543  -8078408.01842  21677979.643    21677980.096
  21160348.654    21579161.96643  16814881.40842  21160348.970    21160347.653
  20048367.251    -9846003.04844  -7657785.74442  20048366.840    20048366.694
  22030240.801   -18110243.38943 -14050893.36542  22030241.580    22030242.014
  23557270.301    -9878570.29143  -7658111.62642  23557270.827    23557273.561
  23291390.514   -14799157.26443 -11474182.46242  23291390.567    23291390.140
 04  5 20 20  7  0.0000000  0  8G22G21G 3G18G15G14G 9G19
  20506458.719    11915392.01544   9294626.48342  20506458.312    20506455.282
  21609859.512    23606996.24743  18392790.43442  21609859.247    21609858.694
  21677323.682   -10397581.64143  -8081093.09842  21677323.934    21677324.411
  21169848.676    21629084.77043  16853782.25142  21169848.999    21169847.676
  20044592.473    -9865839.63844  -7673242.84342  20044592.061    20044591.924
  22012691.592   -18202464.66243 -14122754.02942  22012692.394    22012692.832
  23549252.515    -9920703.94543  -7690943.00042  23549253.111    23549255.738
  23277036.604   -14874587.18043 -11532958.99842  23277036.669    23277036.247
 04  5 20 20  7 30.0000000  0  8G22G21G 3G18G15G14G 9G19
  20506436.597    11915275.73644   9294535.86542  20506436.186    20506433.161
  21622301.728    23672380.10043  18443738.80942  21622301.428    21622300.913
  21676777.166   -10400453.54743  -8083330.97642  21676777.440    21676777.928
  21179388.833    21679218.46143  16892847.42542  21179389.146    21179387.833
  20040891.048    -9885290.72844  -7688399.55242  20040890.639    20040890.509
  21995207.237   -18294345.27443 -14194349.24642  21995208.059    21995208.497
  23541328.386    -9962345.16743  -7723390.64442  23541328.968    23541331.592
  23262758.907   -14949616.93743 -11591423.72342  23262758.927    23262758.496
 04  5 20 20  8  0.0000000  0  8G22G21G 3G18G15G14G 9G19
  20506471.491    11915459.15344   9294678.77342  20506471.090    20506468.080
  21634806.903    23738095.06943  18494945.19942  21634806.623    21634806.132
  21676340.490   -10402748.17843  -8085119.02942  21676340.793    21676341.322
  21188969.645    21729565.74543  16932079.03442  21188969.952    21188968.629
  20037263.936    -9904351.43344  -7703252.06542  20037263.512    20037263.382
  21977788.861   -18385879.35343 -14265674.43942  21977789.663    21977790.102
  23533499.070   -10003488.22543  -7755450.12142  23533499.607    23533502.350
  23248558.453   -15024240.78543 -11649572.16142  23248558.462    23248557.969
 04  5 20 20  8 30.0000000  0  8G22G21G 3G18G15G14G 9G19
  20506561.910    11915934.21844   9295048.94242  20506561.498    20506558.481
  21647373.802    23804134.24743  18546404.22642  21647373.515    21647373.028
  21676012.320   -10404472.96843  -8086463.05442  21676012.602    21676013.139
  21198589.429    21780117.93543  16971470.30542  21198589.745    21198588.438
  20033709.960    -9923027.67544  -7717804.99542  20033709.548    20033709.405
  21960435.426   -18477071.96443 -14336733.55342  21960436.219    21960436.668
  23525763.745   -10044137.76843  -7787125.03442  23525764.286    23525766.882
  23234434.341   -15098463.32643 -11707407.89142  23234434.417    23234433.829
 04  5 20 20  9  0.0000000  0  8G22G21G 3G18G15G14G 9G19
  20506709.372    11916709.09844   9295652.73242  20506708.963    20506705.949
  21660003.855    23870505.23943  18598121.80642  21660003.547    21660003.091
  21675794.255   -10405618.94943  -8087356.05842  21675794.559    21675795.078
  21208249.749    21830883.18243  17011027.59542  21208250.062    21208248.791
  20030231.117    -9941309.13244  -7732050.30142  20030230.712    20030230.573
  21943149.108   -18567911.95543 -14407517.90042  21943149.911    21943150.343
  23518124.531   -10084282.60843  -7818406.68242  23518125.043    23518127.390
  23220388.724   -15172273.51543 -11764922.30542  23220388.800    23220388.197
 04  5 20 20  9 30.0000000  0  8G22G21G 3G18G15G14G 9G19
  20506912.354    11917775.76844   9296483.89542  20506911.952    20506908.941
  21672695.639    23937200.56743  18650092.11142  21672695.345    21672694.846
  21675684.919   -10406193.63543  -8087803.89442  21675685.234    21675685.764
  21217948.985    21881852.90043  17050744.21442  21217949.304    21217948.037
  20026826.291    -9959201.66244  -7745992.54642  20026825.903    20026825.745
  21925928.943   -18658404.24043 -14478031.31042  21925929.753    21925930.135
  23510580.214   -10123927.40343  -7849298.66942  23510580.827    23510583.237
  23206420.668   -15245675.95243 -11822118.98542  23206420.739    23206420.161
 04  5 20 20 10  0.0000000  0  8G22G21G 3G18G15G14G 9G19
  20507171.784    11919139.11144   9297546.23042  20507171.406    20507168.382
  21685450.137    24004225.80643  18702319.49442  21685449.857    21685449.383
  21675685.351   -10406191.33443  -8087802.13342  21675685.673    21675686.216
  21227688.068    21933032.01943  17090624.00342  21227688.394    21227687.132
  20023496.844    -9976698.07844  -7759626.12942  20023496.461    20023496.294
  21908776.457   -18748540.73443 -14548267.48142  21908777.301    21908777.660
  23503132.590   -10163064.14843  -7879794.77642  23503133.283    23503135.681
  23192531.865   -15318662.44843 -11878991.56842  23192531.888    23192531.296
 04  5 20 20 10 30.0000000  0  8G22G21G 3G18G15G14G 9G19
  20507486.340    11920792.14744   9298834.30142  20507485.972    20507482.925
  21698266.226    24071574.39843  18754798.83442  21698265.948    21698265.458
  21675794.385   -10405618.42443  -8087355.74042  21675794.698    21675795.253
  21237465.546    21984412.83743  17130660.95842  21237465.856    21237464.635
  20020241.835    -9993803.23444  -7772954.83742  20020241.454    20020241.309
  21891690.962   -18838325.35743 -14618229.47342  21891691.814    21891692.151
  23495780.983   -10201696.32543  -7909897.70342  23495781.748    23495784.210
  23178721.382   -15391236.71643 -11935542.92542  23178721.440    23178720.865
 04  5 20 20 11  0.0000000  0  8G22G21G 3G18G15G14G 9G19
  20507856.684    11922738.24944   9300350.73542  20507856.297    20507853.265
  21711144.457    24139249.75143  18807532.79642  21711144.192    21711143.701
  21676012.691   -10404471.19543  -8086461.83042  21676013.011    21676013.585
  21247281.988    22035998.43743  17170857.48642  21247282.285    21247281.105
  20017062.267   -10010511.91643  -7785974.59942  20017061.878    20017061.761
  21874673.676   -18927751.72443 -14687912.31242  21874674.503    21874674.820
  23488526.728   -10239817.91443  -7939602.80142  23488527.407    23488529.863
  23164990.564   -15463392.66543 -11991768.31942  23164990.628    23164990.034
 04  5 20 20 11 30.0000000  0  8G22G21G 3G18G15G14G 9G19
  20508282.813    11924977.61844   9302095.69142  20508282.430    20508279.401
  21724084.980    24207252.41943  18860521.80842  21724084.718    21724084.239
  21676340.509   -10402748.63743  -8085119.61442  21676340.812    21676341.405
  21257137.392    22087788.79643  17211213.56142  21257137.694    21257136.530
  20013958.645   -10026821.53744  -7798683.40442  20013958.248    20013958.162
  21857725.172   -19016816.57243 -14757313.44342  21857726.004    21857726.289
  23481370.150   -10277425.57543  -7968907.40242  23481370.860    23481373.281
  23151339.961   -15535126.99443 -12047665.17742  23151340.054    23151339.472
 04  5 20 20 12  0.0000000  0  8G22G21G 3G18G15G14G 9G19
  20508763.734    11927504.83644   9304064.94742  20508763.365    20508760.309
  21737086.826    24275577.44343  18913762.00242  21737086.575    21737086.143
  21676776.950   -10400455.38543  -8083332.69942  21676777.206    21676777.795
  21267030.670    22139778.20843  17251724.74942  21267030.984    21267029.838
  20010930.344   -10042735.37944  -7811083.81042  20010929.946    20010929.874
  21840845.014   -19105522.27743 -14826434.72342  21840845.836    21840846.079
  23474311.045   -10314521.35043  -7997813.15342  23474311.765    23474314.123
  23137769.219   -15606441.64543 -12103235.01142  23137769.343    23137768.739
 04  5 20 20 12 30.0000000  0  8G22G21G 3G18G15G14G 9G19
  20509300.063    11930323.24044   9306261.09742  20509299.705    20509296.651
  21750150.782    24344228.71743  18967256.41342  21750150.548    21750150.129
  21677322.709   -10397587.69343  -8081098.16842  21677322.919    21677323.503
  21276962.461    22191969.99043  17292393.62242  21276962.768    21276961.645
  20007978.452   -10058247.64844  -7823171.30242  20007978.058    20007977.988
  21824034.389   -19193862.49043 -14895271.20642  21824035.210    21824035.444
  23467350.520   -10351098.84543  -8026315.05142  23467351.163    23467353.638
  23124279.578   -15677329.98843 -12158472.66442  23124279.706    23124279.135
 04  5 20 20 13  0.0000000  0  8G22G21G 3G18G15G14G 9G19
  20509891.377    11933430.45344   9308682.29342  20509890.997    20509887.927
  21763276.435    24413204.24143  19021003.49142  21763276.235    21763275.804
  21677977.389   -10394147.37743  -8078417.43442  21677977.593    21677978.184
  21286932.257    22244361.46343  17333218.10342  21286932.581    21286931.458
  20005102.946   -10073358.60344  -7834946.08142  20005102.555    20005102.455
  21807293.471   -19281836.36343 -14963822.22242  21807294.284    21807294.521
  23460488.729   -10387157.14243  -8054412.37842  23460489.474    23460491.818
  23110871.234   -15747791.19043 -12213377.48442  23110871.359    23110870.786
 04  5 20 20 13 30.0000000  0  8G22G21G 3G18G15G14G 9G19
  20510537.708    11936826.98744   9311328.93742  20510537.353    20510534.269
  21776463.943    24482504.74443  19075003.80342  21776463.762    21776463.327
  21678741.221   -10390133.42143  -8075289.71442  21678741.435    21678742.041
  21296940.089    22296952.84043  17374198.34842  21296940.421    21296939.290
  20002304.299   -10088065.61044  -7846406.09542  20002303.929    20002303.806
  21790622.942   -19369440.34743 -15032085.01942  21790623.752    21790623.979
  23453726.655   -10422692.71543  -8082102.40342  23453727.316    23453729.583
  23097544.781   -15817821.79543 -12267946.76342  23097544.926    23097544.405
 04  5 20 20 14  0.0000000  0  8G22G21G 3G18G15G14G 9G19
  20511237.872    11940506.29044   9314195.91842  20511237.502    20511234.411
  21789712.121    24552123.91043  19129252.42042  21789711.903    21789711.476
  21679613.063   -10385551.96543  -8071719.78142  21679613.274    21679613.889
  21306984.689    22349737.51643  17415329.22242  21306985.034    21306983.935
  19999581.683   -10102373.02244  -7857554.73642  19999581.316    19999581.200
  21774022.092   -19456678.20243 -15100062.51842  21774022.893    21774023.110
  23447063.246   -10457709.06243  -8109387.83442  23447063.923    23447065.883
  23084299.651   -15887425.17543 -12322183.14342  23084299.806    23084299.277
 04  5 20 20 14 30.0000000  0  8G22G21G 3G18G15G14G 9G19
  20511993.116    11944475.16044   9317288.53642  20511992.763    20511989.671
  21803022.297    24622069.10343  19183755.08042  21803022.106    21803021.684
  21680594.220   -10380395.91943  -8067702.11742  21680594.453    21680595.072
  21317067.320    22402721.91543  17456615.72042  21317067.679    21317066.581
  19996936.792   -10116272.07844  -7868385.17942  19996936.427    19996936.301
  21757492.785   -19543539.89243 -15167746.90242  21757493.606    21757493.843
  23440500.420   -10492196.47743  -8136261.11342  23440501.146    23440503.295
  23071137.683   -15956591.45143 -12376078.92342  23071137.861    23071137.328
 04  5 20 20 15  0.0000000  0  8G22G21G 3G18G15G14G 9G19
  20512802.788    11948730.05344   9320604.02642  20512802.440    20512799.365
  21816393.888    24692336.96443  19238509.17442  21816393.674    21816393.299
  21681684.179   -10374668.13343  -8063238.94642  21681684.435    21681685.070
  21327187.178    22455901.77843  17498054.52742  21327187.517    21327186.432
  19994369.232   -10129764.60944  -7878898.85142  19994368.891    19994368.760
  21741034.929   -19630026.13443 -15235138.72442  21741035.736    21741036.011
  23434038.101   -10526155.72843  -8162722.83442  23434038.804    23434040.933
  23058058.840   -16025321.25243 -12429634.59242  23058059.018    23058058.450
 04  5 20 20 15 30.0000000  0  8G22G21G 3G18G15G14G 9G19
  20513666.484    11953268.81944   9324140.71542  20513666.110    20513663.074
  21829826.545    24762925.68843  19293513.28842  21829826.333    21829825.975
  21682882.669   -10368370.33243  -8058331.60442  21682882.887    21682883.544
  21337343.828    22509275.19543  17539644.16042  21337344.177    21337343.105
  19991879.174   -10142850.05544  -7889095.31642  19991878.833    19991878.689
  21724648.733   -19716135.96443 -15302237.23942  21724649.517    21724649.802
  23427676.616   -10559585.61643  -8188772.05242  23427677.341    23427679.540
  23045063.282   -16093613.30743 -12482849.15842  23045063.445    23045062.870
 04  5 20 20 16  0.0000000  0  8G22G21G 3G18G15G14G 9G19
  20514583.483    11958087.62944   9327895.61842  20514583.099    20514580.064
  21843319.590    24833831.96343  19348764.84342  21843319.421    21843319.056
  21684188.963   -10361505.81843  -8052982.67342  21684189.190    21684189.874
  21347536.583    22562838.36343  17581381.64942  21347536.933    21347535.904
  19989466.279   -10155529.97544  -7898975.78842  19989465.929    19989465.801
  21708333.991   -19801870.25043 -15369043.11942  21708334.780    21708335.039
  23421415.655   -10592486.91343  -8214409.41142  23421416.384    23421418.546
  23032150.884   -16161468.25343 -12535723.12342  23032151.081    23032150.447
 04  5 20 20 16 30.0000000  0  8G22G21G 3G18G15G14G 9G19
  20515555.268    11963194.37344   9331874.88542  20515554.878    20515551.871
  21856874.581    24905063.34843  19404269.73142  21856874.361    21856874.004
  21685604.595   -10354066.86543  -8047186.12742  21685604.823    21685605.512
  21357766.849    22616598.62543  17623272.71842  21357767.192    21357766.198
  19987132.447   -10167794.44744  -7908532.53242  19987132.093    19987131.963
  21692092.734   -19887218.24743 -15435548.00142  21692093.565    21692093.800
  23415257.405   -10624849.12043  -8239626.71742  23415258.026    23415260.271
  23019323.726   -16228875.45243 -12588248.19442  23019323.916    23019323.276
 04  5 20 20 17  0.0000000  0  8G22G21G 3G18G15G14G 9G19
  20516580.544    11968582.26144   9336073.22642  20516580.170    20516577.170
  21870490.262    24976613.87743  19460023.30442  21870490.051    21870489.693
  21687128.353   -10346059.57643  -8040946.72042  21687128.593    21687129.303
  21368033.288    22670549.03543  17665311.95542  21368033.644    21368032.666
  19984876.770   -10179648.12744  -7917769.17642  19984876.408    19984876.304
  21675924.330   -19972183.63643 -15501754.74442  21675925.157    21675925.372
  23409200.946   -10656675.73543  -8264426.66942  23409201.511    23409203.808
  23006581.103   -16295838.22443 -12640426.96042  23006581.349    23006580.690
 04  5 20 20 17 30.0000000  0  8G22G21G 3G18G15G14G 9G19
  20517659.183    11974250.53844   9340490.05042  20517658.815    20517655.831
  21884166.540    25048482.88943  19516025.04542  21884166.346    21884165.965
  21688760.181   -10337484.41043  -8034264.81242  21688760.411    21688761.167
  21378335.719    22724688.51943  17707498.52342  21378336.054    21378335.100
  19982699.486   -10191089.91744  -7926684.87442  19982699.114    19982699.014
  21659829.122   -20056764.19643 -15567661.61642  21659829.974    21659830.176
  23403246.763   -10687964.86043  -8288807.80042  23403247.309    23403249.686
  22993923.481   -16362354.38543 -12692257.71942  22993923.736    22993923.081
 04  5 20 20 18  0.0000000  0  9G22G21G 3G18G31G15G14G 9G19
  20518787.590    11980180.26744   9345110.60042  20518787.214    20518784.240
  21897899.854    25120651.56343  19572260.28842  21897899.635    21897899.263
  21690496.525   -10328360.12843  -8027155.02242  21690496.741    21690497.506
  21388670.480    22778997.85343  17749817.44142  21388670.798    21388669.844
  24372394.901    -6212013.81753  -4793690.12152  24372395.265    24372397.554
  19980597.323   -10202136.81244  -7935292.86242  19980596.962    19980596.868
  21643804.067   -20140976.21443 -15633281.32042  21643804.927    21643805.107
  23397391.890   -10718732.74843  -8312782.78642  23397392.367    23397394.561
  22981347.824   -16428440.21843 -12743753.16542  22981347.970    22981347.401
 04  5 20 20 18 30.0000000  0  9G22G21G 3G18G31G15G14G 9G19
  20519973.925    11986414.45244   9349968.39542  20519973.536    20519970.585
  21911698.442    25193163.37943  19628762.91442  21911698.216    21911697.877
  21692345.600   -10318643.29543  -8019583.50442  21692345.807    21692346.592
  21399045.765    22833520.14243  17792302.29942  21399046.050    21399045.146
  24356957.436    -6293138.32143  -4856904.00142  24356957.765    24356960.103
  19978578.953   -10212743.59344  -7943557.90342  19978578.551    19978578.487
  21627857.949   -20224773.53843 -15698577.88842  21627858.788    21627858.951
  23391644.923   -10748933.48143  -8336315.82842  23391645.401    23391647.502
  22968862.775   -16494049.47843 -12794877.24842  22968862.908    22968862.395
 04  5 20 20 19  0.0000000  0  9G22G21G 3G18G31G15G14G 9G19
  20521211.891    11992920.02844   9355037.65542  20521211.520    20521208.571
  21925556.062    25265985.31943  19685507.18742  21925555.818    21925555.502
  21694301.175   -10308366.93743  -8011575.99142  21694301.377    21694302.127
  21409455.151    22888221.71743  17834926.85442  21409455.419    21409454.554
  24341591.509    -6373887.07543  -4919825.10042  24341591.787    24341594.036
  19976638.463   -10222941.02944  -7951503.97242  19976638.053    19976637.987
  21611984.982   -20308186.43043 -15763574.88442  21611985.818    21611985.961
  23386000.019   -10778596.98043  -8359430.24942  23386000.637    23386002.796
  22956462.736   -16559212.10143 -12845653.30742  22956462.837    22956462.341
 04  5 20 20 19 30.0000000  0  9G22G21G 3G18G31G15G14G 9G19
  20522502.842    11999703.89344   9360323.76442  20522502.442    20522499.526
  21939474.124    25339124.64643  19742498.77642  21939473.831    21939473.568
  21696364.599   -10297523.81443  -8003126.84142  21696364.799    21696365.541
  21419900.063    22943109.79343  17877696.74142  21419900.281    21419899.459
  24326299.061    -6454249.78943  -4982445.38942  24326299.204    24326301.616
  19974777.598   -10232720.05944  -7959124.00942  19974777.163    19974777.121
  21596187.074   -20391205.00043 -15828264.62742  21596187.858    21596187.992
  23380459.274   -10807713.58743  -8382118.51042  23380459.919    23380462.086
  22944149.627   -16623918.04743 -12896073.51242  22944149.682    22944149.225
 04  5 20 20 20  0.0000000  0  9G22G21G 3G18G31G15G14G 9G19
  20523846.819    12006766.42044   9365827.01442  20523846.382    20523843.491
  21953452.611    25412581.73843  19799737.97342  21953452.279    21953452.104
  21698535.965   -10286113.39843  -7994235.64942  21698536.177    21698536.893
  21430380.505    22998184.59743  17920612.13242  21430380.708    21430379.888
  24311080.624    -6534222.94943  -5044762.12542  24311080.772    24311083.132
  19972996.785   -10242078.30944  -7966416.16542  19972996.359    19972996.313
  21580464.745   -20473826.02743 -15892644.59142  21580465.538    21580465.696
  23375023.427   -10836280.25543  -8404378.27142  23375023.956    23375026.068
  22931924.042   -16688164.04543 -12946135.31442  22931924.083    22931923.604
 04  5 20 20 20 30.0000000  0  9G22G21G 3G18G31G15G14G 9G19
  20525242.749    12014101.95544   9371542.99542  20525242.293    20525239.420
  21967490.600    25486351.39143  19857220.72242  21967490.244    21967490.123
  21700814.185   -10274141.25443  -7984906.74342  21700814.423    21700815.148
  21440895.255    23053439.67543  17963667.99242  21440895.455    21440894.622
  24295935.902    -6613809.01043  -5106777.25042  24295935.991    24295938.419
  19971295.316   -10251019.67544  -7973383.47942  19971294.890    19971294.820
  21564817.528   -20556052.46243 -15956717.08642  21564818.330    21564818.477
  23369691.396   -10864300.00743  -8426211.83942  23369691.924    23369693.991
  22919785.400   -16751952.85943 -12995840.86342  22919785.453    22919784.957
 04  5 20 20 21  0.0000000  0  9G22G21G 3G18G31G15G14G 9G19
  20526691.832    12021716.86044   9377476.67742  20526691.382    20526688.492
  21981589.251    25560440.29943  19914952.24142  21981588.933    21981588.850
  21703200.558   -10261600.94143  -7975135.11442  21703200.773    21703201.526
  21451445.545    23108881.58643  18006869.43842  21451445.736    21451444.872
  24280866.702    -6692998.08943  -5168483.02142  24280866.842    24280869.269
  19969674.826   -10259535.52544  -7980019.22542  19969674.377    19969674.314
  21549247.213   -20637874.92743 -16020474.79842  21549247.985    21549248.129
  23364465.328   -10891763.50343  -8447611.95542  23364465.829    23364467.882
  22907735.555   -16815275.22143 -13045182.94942  22907735.590    22907735.078
 04  5 20 20 21 30.0000000  0  9G22G21G 3G18G31G15G14G 9G19
  20528192.732    12029604.09344   9383622.55942  20528192.272    20528189.411
  21995747.398    25634841.36243  19972926.98442  21995747.043    21995747.048
  21705693.707   -10248499.36843  -7964926.13542  21705693.917    21705694.712
  21462029.970    23164503.00543  18050210.75742  21462030.169    21462029.309
  24265872.317    -6771794.04643  -5229882.47142  24265872.458    24265874.778
  19968134.350   -10267630.78444  -7986327.23642  19968133.914    19968133.841
  21533752.970   -20719297.64643 -16083921.02042  21533753.695    21533753.858
  23359344.228   -10918675.03043  -8468581.95842  23359344.719    23359346.875
  22895773.661   -16878135.23143 -13094164.75642  22895773.740    22895773.188
 04  5 20 20 22  0.0000000  0  9G22G21G 3G18G31G15G14G 9G19
  20529746.813    12037770.71244   9389986.14442  20529746.342    20529743.474
  22009966.398    25709562.17443  20031150.90142  22009966.035    22009966.070
  21708295.030   -10234829.30043  -7954274.17342  21708295.253    21708296.077
  21472649.905    23220310.93043  18093697.40342  21472650.089    21472649.227
  24250954.646    -6850186.48343  -5290967.48942  24250954.805    24250957.441
  19966675.608   -10275296.62544  -7992300.64242  19966675.166    19966675.097
  21518336.642   -20800310.78143 -16147048.08642  21518337.361    21518337.505
  23354329.964   -10945024.85843  -8489114.24642  23354330.549    23354332.735
  22883901.772   -16940522.58543 -13142778.25842  22883901.798    22883901.258
 04  5 20 20 22 30.0000000  0  9G22G21G 3G18G31G15G14G 9G19
  20531351.204    12046201.77844   9396555.79142  20531350.736    20531347.863
  22024243.307    25784587.51843  20089612.10642  22024242.925    22024243.019
  21711001.776   -10220605.41343  -7943190.66542  21711001.964    21711002.829
  21483302.524    23276290.67143  18137317.93542  21483302.707    21483301.836
  24236111.634    -6928187.05143  -5351747.16142  24236111.868    24236114.309
  19965296.152   -10282545.78944  -7997949.36742  19965295.687    19965295.647
  21502996.016   -20880926.07243 -16209865.14242  21502996.763    21502996.860
  23349420.244   -10970825.33443  -8509218.49042  23349420.811    23349423.142
  22872117.458   -17002449.37143 -13191032.87142  22872117.508    22872116.918
 04  5 20 20 23  0.0000000  0  9G22G21G 3G18G31G15G14G 9G19
  20533008.161    12054909.08944   9403340.69342  20533007.692    20533004.797
  22038580.504    25859929.48343  20148320.03042  22038580.089    22038580.219
  21713816.100   -10205816.17043  -7931666.61742  21713816.288    21713817.174
  21493989.969    23332453.39943  18181081.05142  21493990.169    21493989.311
  24221346.010    -7005780.92543  -5412209.92642  24221346.208    24221348.743
  19963998.613   -10289364.51044  -8003262.68242  19963998.151    19963998.105
  21487733.811   -20961129.35743 -16272361.16042  21487734.542    21487734.641
  23344617.890   -10996062.07343  -8528883.44842  23344618.352    23344620.779
  22860423.611   -17063901.02943 -13238917.27142  22860423.645    22860423.034
 04  5 20 20 23 30.0000000  0  9G22G21G 3G18G31G15G14G 9G19
  20534716.875    12063888.39044   9410337.53542  20534716.390    20534713.514
  22052977.159    25935584.05943  20207271.54642  22052976.740    22052976.874
  21716737.233   -10190465.70043  -7919705.24842  21716737.394    21716738.282
  21504711.408    23388794.69843  18224983.31142  21504711.617    21504710.752
  24206657.649    -7082968.98143  -5472356.47742  24206657.841    24206660.240
  19962782.560   -10295755.04844  -8008242.33142  19962782.076    19962782.041
  21472549.720   -21040922.01243 -16334537.20342  21472550.465    21472550.548
  23339922.409   -11020736.54943  -8548110.29042  23339922.907    23339925.194
  22848819.930   -17124878.71943 -13286432.32742  22848819.966    22848819.333
 04  5 20 20 24  0.0000000  0  9G22G21G 3G18G31G15G14G 9G19
  20536476.580    12073135.70544   9417543.22742  20536476.102    20536473.205
  22067432.616    26011547.43743  20266463.68042  22067432.158    22067432.292
  21719764.424   -10174557.91643  -7907309.61642  21719764.567    21719765.472
  21515466.057    23445310.57643  18269021.60842  21515466.263    21515465.404
  24192046.316    -7159751.87243  -5532187.29042  24192046.568    24192049.085
  19961647.628   -10301719.37444  -8012889.88442  19961647.128    19961647.080
  21457443.565   -21120305.16443 -16396394.14942  21457444.318    21457444.368
  23335333.755   -11044850.27843  -8566900.16442  23335334.199    23335336.418
  22837306.227   -17185383.67343 -13333579.02742  22837306.260    22837305.601
 04  5 20 20 24 30.0000000  0  9G22G21G 3G18G31G15G14G 9G19
  20538287.626    12082652.77944   9424959.11842  20538287.161    20538284.258
  22081947.190    26087821.37943  20325897.81342  22081946.670    22081946.841
  21722897.959   -10158091.19443  -7894478.44142  21722898.124    21722899.011
  21526254.215    23502002.56343  18313197.13542  21526254.434    21526253.547
  24177513.167    -7236124.88043  -5591698.72942  24177513.400    24177515.746
  19960594.437   -10307253.87044  -8017202.49542  19960593.935    19960593.921
  21442416.184   -21199274.31243 -16457928.50042  21442416.932    21442416.985
  23330852.598   -11068399.05943  -8585249.82842  23330853.091    23330855.350
  22825883.300   -17245411.31843 -13380353.80242  22825883.347    22825882.675
 04  5 20 20 25  0.0000000  0  9G22G21G 3G18G31G15G14G 9G19
  20540149.960    12092439.30544   9432584.97242  20540149.482    20540146.584
  22096520.815    26164405.88443  20385573.93642  22096520.299    22096520.513
  21726137.823   -10141065.76043  -7881211.90442  21726137.982    21726138.866
  21537075.782    23558870.11643  18357509.46042  21537075.998    21537075.126
  24163058.374    -7312085.00143  -5650888.43042  24163058.536    24163060.939
  19959623.404   -10312356.60344  -8021178.66242  19959622.914    19959622.922
  21427468.074   -21277826.92743 -16519138.28042  21427468.824    21427468.870
  23326479.356   -11091380.53143  -8603157.42342  23326479.881    23326482.115
  22814551.771   -17304958.82643 -13426754.43742  22814551.805    22814551.141
 04  5 20 20 25 30.0000000  0  9G22G21G 3G18G31G15G14G 9G19
  20542063.170    12102493.25044   9440419.20142  20542062.696    20542059.809
  22111153.185    26241298.99843  20445490.53242  22111152.701    22111152.876
  21729483.607   -10123483.66543  -7867511.61442  21729483.766    21729484.676
  21547930.398    23615911.27343  18401957.06642  21547930.597    21547929.747
  24148682.486    -7387630.99943  -5709755.46042  24148682.593    24148684.984
  19958734.575   -10317027.60144  -8024818.41842  19958734.072    19958734.088
  21412599.359   -21355962.41443 -16580023.02542  21412600.095    21412600.136
  23322214.210   -11113794.19643  -8620622.58342  23322214.768    23322216.968
  22803311.717   -17364025.63643 -13472780.51142  22803311.713    22803311.088
 04  5 20 20 26  0.0000000  0  9G22G21G 3G18G31G15G14G 9G19
  20544027.437    12112815.58744   9448462.56542  20544026.974    20544024.080
  22125844.450    26318501.59543  20505648.26742  22125843.969    22125844.124
  21732935.433   -10105344.15943  -7853376.97442  21732935.624    21732936.543
  21558818.177    23673126.72343  18446540.48342  21558818.362    21558817.545
  24134386.180    -7462758.84143  -5768296.68742  24134386.215    24134388.562
  19957928.475   -10321263.80944  -8028119.38142  19957927.962    19957927.983
  21397810.717   -21433677.00743 -16640579.79542  21397811.449    21397811.478
  23318057.549   -11135636.62643  -8637642.62142  23318058.205    23318060.537
  22792163.887   -17422607.65343 -13518428.82642  22792163.886    22792163.264
 04  5 20 20 26 30.0000000  0  9G22G21G 3G18G31G15G14G 9G19
  20546041.890    12123401.68244   9456711.45942  20546041.436    20546038.564
  22140593.820    26396009.39843  20566043.83142  22140593.322    22140593.477
  21736492.451   -10086652.08343  -7838811.75442  21736492.641    21736493.556
  21569738.220    23730511.80943  18491256.08342  21569738.410    21569737.605
  24120169.152    -7537470.36243  -5826513.79142  24120169.132    24120171.313
  19957204.538   -10325068.08244  -8031083.76242  19957204.056    19957204.073
  21383101.831   -21510972.68243 -16700810.14142  21383102.533    21383102.541
  23314009.389   -11156910.03343  -8654219.26742  23314010.008    23314012.163
  22781107.915   -17480707.06143 -13563701.08442  22781107.911    22781107.305
 04  5 20 20 27  0.0000000  0  9G22G21G 3G18G31G15G14G 9G19
  20548107.147    12134254.48944   9465168.17942  20548106.680    20548103.779
  22155401.776    26473825.37243  20626679.53942  22155401.323    22155401.490
  21740155.168   -10067404.47843  -7823813.66542  21740155.362    21740156.279
  21580691.187    23788069.81743  18536106.42842  21580691.380    21580690.584
  24106032.708    -7611758.57643  -5884400.78042  24106032.680    24106035.078
  19956563.741   -10328435.59144  -8033707.81742  19956563.249    19956563.260
  21368473.665   -21587843.74643 -16760709.62142  21368474.399    21368474.410
  23310070.547   -11177608.83943  -8670348.19142  23310071.174    23310073.153
  22770144.939   -17538317.82743 -13608592.58642  22770144.964    22770144.331
 04  5 20 20 27 30.0000000  0  9G22G21G 3G18G31G15G14G 9G19
  20550223.399    12145375.51244   9473833.90042  20550222.948    20550220.053
  22170268.670    26551950.90343  20687556.44842  22170268.215    22170268.405
  21743923.836   -10047600.21943  -7808381.81042  21743924.017    21743924.955
  21591677.251    23845801.77743  18581092.31842  21591677.426    21591676.672
  24091977.316    -7685618.95343  -5941954.13942  24091977.535    24091980.040
  19956006.694   -10331362.99244  -8035988.92942  19956006.207    19956006.204
  21353927.152   -21664286.17343 -16820275.09542  21353927.844    21353927.839
  23306241.545   -11197729.38543  -8686026.51342  23306242.218    23306244.326
  22759275.713   -17595435.97443 -13653100.22142  22759275.747    22759275.114
 04  5 20 20 28  0.0000000  0  9G22G21G 3G18G31G15G14G 9G19
  20552388.533    12156753.39544   9482699.77342  20552388.089    20552385.202
  22185192.335    26630374.93043  20748665.96242  22185191.922    22185192.094
  21747796.299   -10027250.60343  -7792525.00342  21747796.452    21747797.392
  21602694.215    23903696.16143  18626204.77442  21602694.389    21602693.621
  24078001.859    -7759059.91643  -5999180.70542  24078002.204    24078004.726
  19955531.615   -10333859.54744  -8037934.31242  19955531.139    19955531.148
  21339460.495   -21740308.56943 -16879513.27142  21339461.226    21339461.230
  23302521.280   -11217280.42843  -8701261.07642  23302521.751    23302523.838
  22748498.600   -17652069.90243 -13697230.54442  22748498.657    22748498.027
 04  5 20 20 28 30.0000000  0  9G22G21G 3G18G31G15G14G 9G19
  20554604.512    12168398.55744   9491773.91742  20554604.081    20554601.216
  22200174.792    26709107.71343  20810016.05442  22200174.348    22200174.533
  21751774.448   -10006345.54243  -7776235.38742  21751774.606    21751775.539
  21613743.984    23961762.82143  18671451.46242  21613744.149    21613743.369
  24064108.789    -7832068.36443  -6056070.30442  24064109.139    24064111.523
  19955140.841   -10335913.16244  -8039534.54542  19955140.355    19955140.382
  21325076.303   -21815897.93043 -16938414.01442  21325077.018    21325076.986
  23298911.519   -11236249.32343  -8716042.02042  23298912.127    23298914.105
  22737816.162   -17708206.52443 -13740973.36042  22737816.212    22737815.562
 04  5 20 20 29  0.0000000  0  9G22G21G 3G18G31G15G14G 9G19
  20556870.228    12180304.86544   9501051.55242  20556869.767    20556866.908
  22215214.854    26788143.24943  20871602.05542  22215214.399    22215214.639
  21755857.029    -9984891.46243  -7759517.96142  21755857.223    21755858.158
  21624825.453    24019996.00043  18716827.91142  21624825.597    21624824.840
  24050297.497    -7904647.09943  -6112625.13942  24050297.798    24050300.134
  19954833.556   -10337527.99344  -8040792.86742  19954833.078    19954833.108
  21310773.821   -21891057.70943 -16996980.02342  21310774.560    21310774.503
  23295411.724   -11254639.63543  -8730372.10742  23295412.366    23295414.631
  22727227.687   -17763849.12443 -13784331.22142  22727227.758    22727227.120
 04  5 20 20 29 30.0000000  0  9G22G21G 3G18G31G15G14G 9G19
  20559185.713    12192472.79044   9510533.03942  20559185.254    20559182.396
  22230312.616    26867482.03543  20933424.35842  22230312.146    22230312.433
  21760044.167    -9962888.19943  -7742372.60742  21760044.343    21760045.287
  21635938.652    24078396.16043  18762334.47342  21635938.826    21635938.078
  24036568.602    -7976792.39143  -6168842.18142  24036568.906    24036571.283
  19954610.239   -10338701.56744  -8041707.36342  19954609.772    19954609.777
  21296553.707   -21965784.74243 -17055208.82342  21296554.429    21296554.376
  23292022.921   -11272448.69843  -8744249.28042  23292023.403    23292025.751
  22716733.837   -17818994.52243 -13827301.64942  22716733.939    22716733.281
 04  5 20 20 30  0.0000000  0  9G22G21G 3G18G31G15G14G 9G19
  20561550.597    12204900.33444   9520216.82942  20561550.147    20561547.299
  22245467.741    26947122.24043  20995481.54542  22245467.268    22245467.555
  21764335.332    -9940338.16143  -7724801.18242  21764335.513    21764336.443
  21647083.207    24136961.01043  18807969.36642  21647083.379    21647082.655
  24022922.326    -8048503.35243  -6224720.82142  24022922.709    24022925.117
  19954470.845   -10339434.05244  -8042278.14642  19954470.402    19954470.416
  21282416.004   -22040078.42443 -17113099.94242  21282416.787    21282416.713
  23288744.698   -11289676.40443  -8757673.45442  23288745.100    23288747.297
  22706334.753   -17873641.97043 -13869884.06442  22706334.842    22706334.229
 04  5 20 20 30 30.0000000  0  9G22G21G 3G18G31G15G14G 9G19
  20563965.135    12217588.61144   9530103.78742  20563964.644    20563961.811
  22260680.408    27027064.67143  21057774.23442  22260679.918    22260680.212
  21768730.665    -9917240.66943  -7706803.17942  21768730.882    21768731.760
  21658259.327    24195691.69443  18853733.47742  21658259.499    21658258.784
  24009359.617    -8119775.86143  -6280257.78442  24009359.874    24009362.332
  19954415.951   -10339722.54744  -8042502.96242  19954415.500    19954415.545
  21268361.482   -22113935.12643 -17170650.56542  21268362.269    21268362.186
  23285577.666   -11306319.50643  -8770642.09642  23285578.031    23285580.066
  22696031.096   -17927787.95143 -13912075.72842  22696031.200    22696030.585
 04  5 20 20 31  0.0000000  0  9G22G21G 3G18G31G15G14G 9G19
  20566428.895    12230535.82544   9540192.51342  20566428.427    20566425.595
  22275950.244    27107307.89243  21120301.29642  22275949.754    22275950.137
  21773229.815    -9893597.52643  -7688379.98842  21773230.036    21773230.945
  21669466.712    24254586.58743  18899625.54342  21669466.894    21669466.162
  23995880.579    -8190608.41643  -6335451.95842  23995880.829    23995883.307
  19954445.555   -10339566.95844  -8042381.73242  19954445.123    19954445.170
  21254390.243   -22187354.14443 -17227860.13142  21254391.034    21254390.968
  23282521.834   -11322377.28843  -8783154.63942  23282522.291    23282524.294
  22685823.104   -17981431.27343 -13953875.70442  22685823.179    22685822.600
 04  5 20 20 31 30.0000000  0  9G22G21G 3G18G31G15G14G 9G19
  20568941.362    12243738.86644   9550480.58942  20568940.904    20568938.052
  22291276.673    27187848.68143  21183060.23242  22291276.241    22291276.678
  21777832.170    -9869412.21443  -7669534.32842  21777832.383    21777833.288
  21680704.668    24313642.35943  18945642.97042  21680704.847    21680704.168
  23982485.233    -8261001.22443  -6390303.48642  23982485.537    23982487.940
  19954559.455   -10338968.54644  -8041915.45642  19954559.002    19954559.054
  21240502.239   -22260335.96243 -17284729.02142  21240503.011    21240502.950
  23279577.411   -11337850.66843  -8795211.81342  23279577.813    23279579.974
  22675710.670   -18034572.50443 -13995284.44342  22675710.746    22675710.198
 04  5 20 20 32  0.0000000  0  9G22G21G 3G18G31G15G14G 9G19
  20571503.006    12257200.33344   9560970.03742  20571502.541    20571499.706
  22306660.273    27268689.62343  21246053.04742  22306659.824    22306660.313
  21782538.060    -9844682.51743  -7650264.47242  21782538.294    21782539.245
  21691973.804    24372861.76643  18991787.90342  21691973.967    21691973.299
  23969174.710    -8330948.62643  -6444807.94242  23969174.988    23969177.328
  19954758.430   -10337922.96444  -8041100.71042  19954758.002    19954758.029
  21226698.387   -22332875.46143 -17341253.24442  21226699.140    21226699.084
  23276745.128   -11352734.88043  -8806809.92042  23276745.609    23276747.696
  22665694.737   -18087206.48243 -14036297.91442  22665694.830    22665694.259
 04  5 20 20 32 30.0000000  0  9G22G21G 3G18G31G15G14G 9G19
  20574113.786    12270920.11444   9571660.76242  20574113.331    20574110.496
  22322100.975    27349830.56543  21309279.62442  22322100.531    22322101.057
  21787347.476    -9819408.95943  -7630570.83142  21787347.739    21787348.676
  21703273.853    24432243.76343  19038059.53042  21703274.036    21703273.357
  23955949.498    -8400447.59843  -6498962.95942  23955949.747    23955952.112
  19955042.859   -10336428.50644  -8039936.22842  19955042.396    19955042.427
  21212979.167   -22404970.20843 -17397430.90842  21212979.914    21212979.855
  23274025.108   -11367028.01943  -8817947.43242  23274025.671    23274027.630
  22655775.822   -18139330.56743 -14076914.07042  22655775.944    22655775.336
 04  5 20 20 33  0.0000000  0  9G22G21G 3G18G31G15G14G 9G19
  20576772.790    12284893.21344   9582548.88342  20576772.341    20576769.497
  22337597.719    27431266.27143  21372735.90242  22337597.325    22337597.895
  21792259.310    -9793597.07643  -7610457.71642  21792259.597    21792260.566
  21714603.972    24491783.82543  19084454.32142  21714604.188    21714603.479
  23942809.159    -8469500.46743  -6552770.38242  23942809.424    23942811.708
  19955412.010   -10334488.54743  -8038424.57742  19955411.545    19955411.597
  21199344.036   -22476622.93043 -17453264.13942  21199344.793    21199344.720
  23271417.163   -11380733.08243  -8828626.72242  23271417.635    23271419.587
  22645953.462   -18190947.36143 -14117134.93242  22645953.595    22645952.943
 04  5 20 20 33 30.0000000  0  9G22G21G 3G18G31G15G14G 9G19
  20579480.204    12299120.74844   9593635.26742  20579479.764    20579476.917
  22353150.836    27512997.95543  21436422.79842  22353150.449    22353151.078
  21797273.756    -9767246.21743  -7589924.62042  21797273.987    21797275.007
  21725964.355    24551482.88543  19130973.01042  21725964.579    21725963.907
  23929754.542    -8538103.04143  -6606226.92842  23929754.713    23929757.080
  19955866.523   -10332100.14344  -8036563.49542  19955866.050    19955866.102
  21185793.757   -22547829.99143 -17508750.10642  21185794.489    21185794.384
  23268921.819   -11393846.76843  -8838845.19642  23268922.256    23268924.254
  22636228.339   -18242053.09943 -14156957.56542  22636228.470    22636227.849
 04  5 20 20 34  0.0000000  0  9G22G21G 3G18G31G15G14G 9G19
  20582235.855    12313601.91744   9604919.29042  20582235.432    20582232.616
  22368760.136    27595024.87743  21500339.74442  22368759.712    22368760.404
  21802390.490    -9740357.70143  -7568972.56842  21802390.709    21802391.761
  21737354.837    24611340.01543  19177614.86642  21737355.040    21737354.411
  23916785.999    -8606253.04943  -6659330.81742  23916786.207    23916788.536
  19956406.591   -10329261.99044  -8034351.95842  19956406.126    19956406.183
  21172328.646   -22618589.41143 -17563887.25942  21172329.395    21172329.249
  23266539.088   -11406367.75043  -8848601.82442  23266539.585    23266541.568
  22626600.761   -18292646.16143 -14196380.72042  22626600.923    22626600.266
 04  5 20 20 34 30.0000000  0  9G22G21G 3G18G31G15G14G 9G19
  20585040.238    12328339.12144   9616402.81142  20585039.790    20585037.019
  22384425.988    27677348.96343  21564488.25242  22384425.572    22384426.263
  21807609.873    -9712929.74243  -7547600.17542  21807610.093    21807611.158
  21748775.878    24671357.72843  19224381.85342  21748776.063    21748775.470
  23903904.616    -8673945.26543  -6712077.98842  23903904.851    23903907.163
  19957033.003   -10325970.19244  -8031786.93142  19957032.541    19957032.622
  21158949.570   -22688896.62443 -17618672.04742  21158950.347    21158950.161
  23264270.006   -11418291.61043  -8857893.16142  23264270.498    23264272.312
  22617071.711   -18342721.67043 -14235400.58742  22617071.849    22617071.176
 04  5 20 20 35  0.0000000  0  9G22G21G 3G18G31G15G14G 9G19
  20587892.208    12343326.43744   9628081.22542  20587891.776    20587889.039
  22400147.309    27759964.65043  21628863.99942  22400146.906    22400147.612
  21812930.738    -9684968.72343  -7525812.40942  21812930.926    21812931.990
  21760226.368    24731530.17243  19271269.40142  21760226.547    21760225.958
  23891109.868    -8741182.31943  -6764470.48642  23891109.953    23891112.424
  19957745.025   -10322228.52944  -8028871.36442  19957744.540    19957744.658
  21145655.925   -22758754.93543 -17673107.04242  21145656.699    21145656.515
  23262113.929   -11429622.19143  -8866722.22242  23262114.437    23262116.217
  22607640.584   -18392282.64243 -14274019.52042  22607640.690    22607640.008
 04  5 20 20 35 30.0000000  0  9G22G21G 3G18G31G15G14G 9G19
  20590792.220    12358566.12044   9639956.30142  20590791.786    20590789.046
  22415924.444    27842873.77043  21693468.37642  22415924.057    22415924.791
  21818353.330    -9656472.83643  -7503607.86342  21818353.542    21818354.603
  21771706.687    24791859.48443  19318279.19342  21771706.873    21771706.314
  23878402.550    -8807959.37643  -6816504.54742  23878402.718    23878405.095
  19958543.360   -10318033.29044  -8025602.35742  19958542.886    19958543.000
  21132448.572   -22828159.80243 -17727188.70642  21132449.358    21132449.146
  23260071.382   -11440355.50943  -8875085.86842  23260071.917    23260073.884
  22598308.224   -18441324.47843 -14312233.92642  22598308.308    22598307.623
 04  5 20 20 36  0.0000000  0  9G22G21G 3G18G31G15G14G 9G19
  20593740.007    12374056.81644   9652026.96242  20593739.571    20593736.830
  22431757.279    27926075.28443  21758300.60842  22431756.886    22431757.656
  21823877.355    -9627443.96543  -7480988.00042  21823877.599    21823878.677
  21783216.536    24852343.88543  19365409.83342  21783216.705    21783216.163
  23865783.159    -8874274.70543  -6868178.81842  23865783.285    23865785.760
  19959428.054   -10313384.18844  -8021979.68442  19959427.580    19959427.720
  21119327.697   -22897110.14843 -17780916.19442  21119328.497    21119328.279
  23258142.632   -11450490.80143  -8882983.51842  23258143.164    23258145.286
  22589074.823   -18489846.11843 -14350042.97542  22589074.936    22589074.247
 04  5 20 20 36 30.0000000  0  9G22G21G 3G18G31G15G14G 9G19
  20596735.118    12389796.05044   9664291.28642  20596734.648    20596731.913
  22447645.212    28009566.29843  21823358.41142  22447644.793    22447645.586
  21829502.170    -9597885.40643  -7457955.40342  21829502.425    21829503.531
  21794755.451    24912981.17743  19412659.61142  21794755.647    21794755.080
  23853251.630    -8940128.20843  -6919493.22042  23853251.741    23853254.266
  19960398.994   -10308281.91244  -8018003.89142  19960398.519    19960398.645
  21106293.295   -22965606.25243 -17834289.73042  21106294.071    21106293.859
  23256327.645   -11460028.92043  -8890415.85342  23256328.086    23256330.267
  22579940.475   -18537847.57043 -14387446.69342  22579940.545    22579939.851
 04  5 20 20 37  0.0000000  0  9G22G21G 3G18G31G15G14G 9G19
  20599777.376    12405783.23344   9676748.85142  20599776.924    20599774.171
  22463588.077    28093346.00243  21888641.16842  22463587.632    22463588.498
  21835227.551    -9567798.40543  -7434511.02442  21835227.814    21835228.950
  21806323.379    24973770.86143  19460028.13442  21806323.576    21806323.024
  23840808.491    -9005517.20943  -6970445.67842  23840808.646    23840811.204
  19961456.366   -10302725.36744  -8013674.12342  19961455.908    19961456.030
  21093345.661   -23033646.19843 -17887307.81842  21093346.452    21093346.228
  23254626.700   -11468968.29943  -8897381.65542  23254626.997    23254629.123
  22570905.419   -18585326.99343 -14424443.63442  22570905.513    22570904.800
 04  5 20 20 37 30.0000000  0  9G22G21G 3G18G31G15G14G 9G19
  20602867.502    12422022.10744   9689402.51942  20602867.077    20602864.343
  22479586.456    28177417.94943  21954151.64842  22479586.074    22479587.017
  21841054.082    -9537179.84543  -7410652.44642  21841054.347    21841055.513
  21817921.036    25034716.83443  19507518.44242  21817921.232    21817920.728
  23828454.868    -9070435.54543  -7021031.37042  23828455.040    23828457.680
  19962601.203   -10296709.22344  -8008986.22442  19962600.738    19962600.860
  21080486.022   -23101223.86043 -17939965.68242  21080486.822    21080486.594
  23253040.488   -11477303.54443  -8903876.66542  23253040.868    23253042.961
  22561970.855   -18632278.32743 -14461029.07742  22561970.967    22561970.237
 04  5 20 20 38  0.0000000  0  9G22G21G 3G18G31G15G14G 9G19
  20606004.695    12438508.19144   9702248.80442  20606004.293    20606001.539
  22495639.708    28261777.74143  22019886.41542  22495639.268    22495640.257
  21846980.853    -9506034.68443  -7386383.53342  21846981.082    21846982.282
  21829547.535    25095814.20143  19555126.72142  21829547.705    21829547.238
  23816190.626    -9134884.45043  -7071251.27242  23816190.806    23816193.458
  19963832.986   -10290236.17744  -8003942.30242  19963832.513    19963832.636
  21067713.948   -23168341.31443 -17992264.94542  21067714.750    21067714.504
  23251568.901   -11485037.04143  -8909902.79342  23251569.226    23251571.466
  22553136.460   -18678703.52843 -14497204.55242  22553136.516    22553135.792
 04  5 20 20 38 30.0000000  0  9G22G21G 3G18G31G15G14G 9G19
  20609188.822    12455240.81144   9715287.19942  20609188.405    20609185.656
  22511747.556    28346424.75543  22085844.98742  22511747.162    22511748.153
  21853007.592    -9474364.19243  -7361705.27342  21853007.817    21853009.029
  21841202.683    25157062.14943  19602852.33842  21841202.853    21841202.360
  23804016.027    -9198861.80043  -7121103.72342  23804016.319    23804018.941
  19965151.909   -10283305.18344  -7998541.53642  19965151.437    19965151.574
  21055029.767   -23234996.91943 -18044204.33042  21055030.557    21055030.301
  23250212.097   -11492167.60643  -8915459.10942  23250212.418    23250214.687
  22544402.515   -18724600.71843 -14532968.58242  22544402.573    22544401.839
 04  5 20 20 39  0.0000000  0  9G22G21G 3G18G31G15G14G 9G19
  20612419.478    12472218.08044   9728516.24242  20612419.079    20612416.324
  22527909.573    28431356.18943  22152025.19842  22527909.173    22527910.192
  21859133.771    -9442171.24643  -7336619.90242  21859133.965    21859135.162
  21852886.177    25218458.98243  19650693.96842  21852886.349    21852885.825
  23791931.343    -9262367.13743  -7170588.38142  23791931.716    23791934.301
  19966557.898   -10275916.69444  -7992784.27742  19966557.432    19966557.561
  21042433.476   -23301190.53943 -18095783.72242  21042434.280    21042434.032
  23248969.658   -11498695.64843  -8920545.90542  23248970.134    23248972.484
  22535769.013   -18769969.86843 -14568321.16042  22535769.094    22535768.386
 04  5 20 20 39 30.0000000  0  9G22G21G 3G18G31G15G14G 9G19
  20615697.033    12489441.67344   9741937.23142  20615696.606    20615693.881
  22544126.117    28516573.99343  22218428.54942  22544125.666    22544126.713
  21865359.508    -9409454.96243  -7311126.73742  21865359.690    21865360.891
  21864598.239    25280005.85343  19698652.50742  21864598.386    21864597.871
  23779937.389    -9325395.75843  -7219701.57442  23779937.824    23779940.372
  19968051.568   -10268067.47644  -7986668.01342  19968051.086    19968051.197
  21029925.917   -23366918.08343 -18146999.93942  21029926.704    21029926.441
  23247842.936   -11504617.59343  -8925160.43742  23247843.280    23247845.557
  22527236.758   -18814807.00543 -14603259.17642  22527236.831    22527236.161
 04  5 20 20 40  0.0000000  0  9G22G21G 3G18G31G15G14G 9G19
  20619021.414    12506911.34144   9755549.95242  20619020.987    20619018.261
  22560397.035    28602077.86543  22285054.80242  22560396.639    22560397.658
  21871684.663    -9376216.10543  -7285226.37642  21871684.871    21871686.087
  21876338.856    25341702.99743  19746728.14742  21876339.038    21876338.514
  23768034.719    -9387944.94943  -7268441.18642  23768035.145    23768037.598
  19969633.167   -10259756.09944  -7980191.62342  19969632.703    19969632.812
  21017507.376   -23432177.59943 -18197851.46342  21017508.178    21017507.890
  23246831.575   -11509932.13643  -8929301.65742  23246832.001    23246834.286
  22518806.235   -18859109.63643 -14637780.69542  22518806.303    22518805.664
 04  5 20 20 40 30.0000000  0  9G22G21G 3G18G31G15G14G 9G19
  20622391.490    12524621.20444   9769349.85542  20622391.065    20622388.323
  22576721.290    28687861.56343  22351899.10842  22576720.787    22576721.877
  21878108.038    -9342461.43043  -7258924.08342  21878108.213    21878109.415
  21888106.968    25403544.61143  19794916.36042  21888107.139    21888106.619
  23756222.591    -9450017.96543  -7316809.75942  23756223.025    23756225.481
  19971301.892   -10250986.96744  -7973358.54042  19971301.400    19971301.535
  21005177.237   -23496972.71943 -18248341.11442  21005178.042    21005177.742
  23245934.952   -11514643.52043  -8932972.86742  23245935.394    23245937.731
  22510476.747   -18902881.43443 -14671888.57942  22510476.813    22510476.152
 04  5 20 20 41  0.0000000  0  9G22G21G 3G18G31G15G14G 9G19
  20625808.391    12542577.23544   9783341.56642  20625807.967    20625805.245
  22593099.873    28773930.80343  22418965.92942  22593099.324    22593100.463
  21884630.445    -9308186.21843  -7232216.17442  21884630.635    21884631.816
  21899903.638    25465536.31243  19843221.51742  21899903.791    21899903.326
  23744502.775    -9511606.18943  -7364800.56542  23744503.204    23744505.685
  19973059.162   -10241752.49544  -7966162.85542  19973058.664    19973058.789
  20992937.003   -23561295.52443 -18298462.73242  20992937.763    20992937.457
  23245154.707   -11518744.22243  -8936168.23242  23245155.070    23245157.300
  22502249.746   -18946114.45143 -14705576.63442  22502249.793    22502249.193
 04  5 20 20 41 30.0000000  0  9G22G21G 3G18G31G15G14G 9G19
  20629270.860    12560772.40344   9797519.61242  20629270.396    20629267.667
  22609531.359    28860278.33743  22486249.59342  22609530.815    22609531.988
  21891250.494    -9273397.81843  -7205108.38242  21891250.682    21891251.874
  21911727.581    25527671.33243  19891638.35642  21911727.726    21911727.309
  23732874.311    -9572713.93743  -7412416.98142  23732874.715    23732877.258
  19974903.988   -10232057.98644  -7958608.69842  19974903.469    19974903.630
  20980785.714   -23625150.65743 -18348219.92842  20980786.498    20980786.168
  23244489.592   -11522239.35543  -8938891.72142  23244489.874    23244492.298
  22494124.398   -18988813.51643 -14738848.62042  22494124.400    22494123.789
 04  5 20 20 42  0.0000000  0  9G22G21G 3G18G31G15G14G 9G19
  20632779.789    12579211.69044   9811887.88142  20632779.263    20632776.539
  22626016.683    28946909.07443  22553753.92742  22626016.202    22626017.391
  21897968.955    -9238092.29043  -7177597.63542  21897969.119    21897970.351
  21923579.765    25589954.90643  19940170.95242  21923579.916    21923579.562
  23721338.890    -9633333.34843  -7459652.87342  23721339.158    23721341.712
  19976837.581   -10221896.87744  -7950690.95942  19976837.057    19976837.247
  20968724.869   -23688530.78743 -18397606.99642  20968725.616    20968725.296
  23243941.100   -11525122.41143  -8941138.25442  23243941.291    23243943.717
  22486102.056   -19030971.02243 -14771698.62042  22486102.063    22486101.478
 04  5 20 20 42 30.0000000  0  9G22G21G 3G18G31G15G14G 9G19
  20636334.190    12597890.20844   9826442.55842  20636333.660    20636330.953
  22642554.931    29033817.50443  22621474.65342  22642554.450    22642555.619
  21904784.753    -9202275.43143  -7149688.44542  21904784.849    21904786.158
  21935459.249    25652381.75643  19988815.19242  21935459.381    21935459.046
  23709895.842    -9693466.62943  -7506509.95842  23709896.190    23709898.640
  19978859.302   -10211272.68044  -7942412.37042  19978858.765    19978858.987
  20956753.832   -23751438.75743 -18446626.14742  20956754.588    20956754.266
  23243508.275   -11527396.92343  -8942910.60442  23243508.520    23243510.896
  22478182.257   -19072589.73043 -14804128.76942  22478182.276    22478181.712
 04  5 20 20 43  0.0000000  0  9G22G21G 3G18G31G15G14G 9G19
  20639934.200    12616808.42844   9841184.01842  20639933.683    20639930.983
  22659146.151    29121003.98643  22689412.03042  22659145.590    22659146.767
  21911697.722    -9165947.64843  -7121381.13342  21911697.845    21911699.161
  21947366.115    25714952.65943  20037571.68542  21947366.249    21947365.912
  23698545.972    -9753111.02343  -7552986.09042  23698546.267    23698548.696
  19980969.522   -10200183.37544  -7933771.35742  19980968.989    19980969.210
  20944873.125   -23813872.20743 -18495275.54442  20944873.842    20944873.527
  23243191.613   -11529060.88643  -8944207.19542  23243191.863    23243194.278
  22470365.498   -19113667.31143 -14836137.26542  22470365.472    22470364.889
 04  5 20 20 43 30.0000000  0  9G22G21G 3G18G31G15G14G 9G19
  20643579.995    12635967.22744   9856112.94142  20643579.491    20643576.802
  22675790.356    29208469.34443  22757566.71542  22675789.814    22675791.044
  21918707.959    -9129108.90443  -7092675.67142  21918708.070    21918709.396
  21959300.503    25777668.11243  20086440.81642  21959300.655    21959300.330
  23687289.793    -9812262.71343  -7599078.28642  23687290.084    23687292.496
  19983168.706   -10188626.51344  -7924766.01442  19983168.174    19983168.411
  20933083.279   -23875827.94343 -18543552.69142  20933084.028    20933083.694
  23242991.550   -11530112.12943  -8945026.33942  23242991.839    23242994.229
  22462652.231   -19154200.67443 -14867721.68942  22462652.227    22462651.642
 04  5 20 20 44  0.0000000  0  9G22G21G 3G18G31G15G14G 9G19
  20647270.610    12655361.50544   9871225.35442  20647270.091    20647267.420
  22692486.636    29296208.04643  22825934.40142  22692486.059    22692487.310
  21925814.205    -9091765.40343  -7063576.89242  21925814.343    21925815.675
  21971261.449    25840523.07943  20135418.65642  21971261.591    21971261.296
  23676126.916    -9870924.19543  -7644788.51242  23676127.189    23676129.566
  19985456.205   -10176605.71344  -7915399.16242  19985455.668    19985455.893
  20921383.819   -23937308.89643 -18591459.88242  20921384.577    20921384.199
  23242907.317   -11530554.08743  -8945370.73542  23242907.710    23242910.190
  22455041.982   -19194192.64743 -14898884.25342  22455041.991    22455041.411
 04  5 20 20 44 30.0000000  0  9G22G21G 3G18G31G15G14G 9G19
  20651007.037    12674996.41544   9886525.27342  20651006.514    20651003.836
  22709235.837    29384224.88443  22894518.80042  22709235.229    22709236.502
  21933017.363    -9053913.01643  -7034081.58442  21933017.473    21933018.785
  21983249.988    25903522.85143  20184509.32942  21983250.105    21983249.838
  23665058.777    -9929087.76943  -7690110.75242  23665058.987    23665061.346
  19987833.235   -10164114.42844  -7905665.70042  19987832.682    19987832.909
  20909776.054   -23998307.94343 -18638991.56042  20909776.794    20909776.419
  23242940.474   -11530380.10743  -8945235.16042  23242940.859    23242943.270
  22447536.085   -19233636.01343 -14929619.33242  22447536.147    22447535.588
 04  5 20 20 45  0.0000000  0  9G22G21G 3G18G31G15G14G 9G19
  20654788.205    12694866.60944   9902008.53442  20654787.711    20654785.013
  22726036.847    29472514.13643  22963315.47742  22726036.230    22726037.521
  21940316.105    -9015558.23943  -7004194.80042  21940316.193    21940317.520
  21995264.994    25966661.82243  20233708.47142  21995265.099    21995264.845
  23654084.708    -9986756.45843  -7735047.36342  23654084.953    23654087.297
  19990299.053   -10151156.62144  -7895568.71642  19990298.489    19990298.706
  20898259.348   -24058828.41043 -18686150.31942  20898260.086    20898259.725
  23243089.949   -11529594.31143  -8944622.85842  23243090.273    23243092.810
  22440134.040   -19272534.16743 -14959929.56842  22440134.059    22440133.515
 04  5 20 20 45 30.0000000  0  9G22G21G 3G18G31G15G14G 9G19
  20658614.687    12714974.83044   9917677.26642  20658614.179    20658611.490
  22742890.108    29561078.29143  23032326.34842  22742889.484    22742890.861
  21947710.785    -8976698.98843  -6973914.92542  21947710.895    21947712.218
  22007307.090    26029943.10143  20283018.51642  22007307.191    22007306.910
  23643206.070   -10043924.34643  -7779593.74842  23643206.269    23643208.547
  19992854.442   -10137728.02444  -7885104.88342  19992853.865    19992854.085
  20886834.623   -24118865.62143 -18732932.52142  20886835.368    20886834.964
  23243356.818   -11528192.46343  -8943530.51142  23243357.120    23243359.476
  22432836.673   -19310882.21543 -14989811.14042  22432836.651    22432836.158
 04  5 20 20 46  0.0000000  0  9G22G21G 3G18G31G15G14G 9G19
  20662485.712    12735317.16444   9933528.42742  20662485.187    20662482.519
  22759794.954    29649912.97043  23101548.02442  22759794.288    22759795.703
  21955200.481    -8937340.44243  -6943245.98042  21955200.604    21955201.947
  22019375.407    26093362.47243  20332436.15942  22019375.558    22019375.237
  23632422.248   -10100593.73843  -7823751.69342  23632422.452    23632424.681
  19995498.920   -10123831.22244  -7874276.21342  19995498.362    19995498.560
  20875501.526   -24178421.43143 -18779339.60242  20875502.245    20875501.813
  23243740.355   -11526177.18543  -8941960.16942  23243740.688    23243742.900
  22425643.562   -19348682.22943 -15019265.72042  22425643.544    22425643.060
 04  5 20 20 46 30.0000000  0  9G22G21G 3G18G31G15G14G 9G19
  20666401.231    12755893.24644   9949561.72742  20666400.701    20666398.010
  22776751.185    29739017.74643  23170980.16642  22776750.423    22776751.949
  21962784.991    -8897483.82243  -6912188.92942  21962785.109    21962786.443
  22031470.033    26156919.90743  20381961.38942  22031470.155    22031469.835
  23621733.824   -10156761.68643  -7867518.90042  23621734.054    23621736.224
  19998232.743   -10109465.01044  -7863081.77142  19998232.160    19998232.356
  20864260.334   -24237494.17943 -18825370.26742  20864261.058    20864260.592
  23244240.746   -11523547.48143  -8939911.05142  23244241.076    23244243.309
  22418555.115   -19385932.35543 -15048291.77542  22418555.086    22418554.605
 04  5 20 20 47  0.0000000  0  9G22G21G 3G18G31G15G14G 9G19
  20670361.431    12776704.21144   9965778.05742  20670360.893    20670358.228
  22793758.869    29828393.27443  23240623.28442  22793758.135    22793759.715
  21970464.266    -8857129.34043  -6880743.92942  21970464.345    21970465.702
  22043591.086    26220616.20343  20431594.82442  22043591.174    22043590.919
  23611141.370   -10212425.10643  -7910892.97042  23611141.649    23611143.800
  20001056.281   -10094627.15143  -7851519.80942  20001055.711    20001055.926
  20853111.621   -24296080.98943 -18871022.27942  20853112.329    20853111.844
  23244858.442   -11520301.11143  -8937381.41142  23244858.803    23244861.019
  22411571.847   -19422629.55643 -15076886.98742  22411571.838    22411571.342
 04  5 20 20 47 30.0000000  0  9G22G21G 3G18G31G15G14G 9G19
  20674366.020    12797748.54944   9982176.23142  20674365.512    20674362.831
  22810817.724    29918037.73043  23310475.94542  22810817.047    22810818.592
  21978237.802    -8816279.37843  -6848912.84642  21978237.871    21978239.248
  22055738.286    26284450.06443  20481335.45042  22055738.393    22055738.164
  23600645.327   -10267582.42643  -7953872.68142  23600645.538    23600647.751
  20003969.555   -10079317.72444  -7839590.39742  20003969.000    20003969.221
  20842055.501   -24354181.11243 -18916295.05742  20842056.209    20842055.715
  23245593.525   -11516438.32443  -8934371.43542  23245593.885    23245596.028
  22404694.031   -19458773.11943 -15105050.79042  22404693.963    22404693.439
 04  5 20 20 48  0.0000000  0  9G22G21G 3G18G31G15G14G 9G19
  20678414.986    12819026.06244   9998756.10242  20678414.467    20678411.816
  22827927.648    30007950.34143  23380537.56242  22827926.955    22827928.517
  21986105.369    -8774935.17843  -6816696.63642  21986105.453    21986106.827
  22067911.649    26348421.44243  20531183.23142  22067911.768    22067911.579
  23590245.823   -10322231.90043  -7996456.66142  23590245.971    23590248.301
  20006972.795   -10063535.60244  -7827292.64842  20006972.246    20006972.456
  20831092.289   -24411793.06843 -18961187.44442  20831092.972    20831092.483
  23246445.974   -11511958.21443  -8930880.43042  23246446.393    23246448.503
  22397921.762   -19494361.57843 -15132782.05342  22397921.696    22397921.169
 04  5 20 20 48 30.0000000  0  9G22G21G 3G18G31G15G14G 9G19
  20682507.731    12840533.56344  10015515.18542  20682507.207    20682504.578
  22845087.992    30098127.62143  23450805.42342  22845087.213    22845088.834
  21994066.132    -8733101.25243  -6784098.82342  21994066.237    21994067.594
  22080110.545    26412526.89443  20581135.49442  22080110.684    22080110.492
  23579942.819   -10376374.35643  -8038645.57042  23579942.956    23579945.335
  20010065.624   -10047282.59244  -7814627.97342  20010065.097    20010065.305
  20820221.741   -24468917.86043 -19005700.22242  20820222.448    20820221.950
  23247415.655   -11506862.85743  -8926910.02542  23247415.996    23247418.080
  22391254.801   -19529396.31943 -15160081.85242  22391254.804    22391254.279
 04  5 20 20 49  0.0000000  0  9G22G21G 3G18G31G15G14G 9G19
  20686645.180    12862276.00744  10032457.33742  20686644.645    20686642.023
  22862299.404    30188574.19943  23521283.11342  22862298.730    22862300.386
  22002120.765    -8690773.89243  -6751116.51642  22002120.900    22002122.271
  22092335.946    26476771.72543  20631196.36142  22092336.118    22092335.920
  23569737.848   -10430001.77843  -8080433.15142  23569737.942    23569740.319
  20013249.290   -10030552.25544  -7801591.35842  20013248.761    20013248.982
  20809445.173   -24525548.89543 -19049828.25542  20809445.876    20809445.380
  23248503.464   -11501146.14843  -8922455.42242  23248503.814    23248505.911
  22384694.617   -19563870.36743 -15186944.72942  22384694.613    22384694.061
 04  5 20 20 49 30.0000000  0  9G22G21G 3G18G31G15G14G 9G19
  20690825.524    12884243.80044  10049575.08642  20690824.999    20690822.360
  22879560.305    30279280.12843  23591962.90142  22879559.593    22879561.308
  22010267.283    -8647963.92443  -6717758.15242  22010267.391    22010268.782
  22104586.002    26541146.08943  20681358.16242  22104586.180    22104585.999
  23559629.381   -10483121.88143  -8121825.42742  23559629.538    23559631.871
  20016522.219   -10013353.02144  -7788189.36742  20016521.673    20016521.900
  20798761.091   -24581694.01143 -19093577.65442  20798761.777    20798761.275
  23249708.055   -11494816.52043  -8917523.22642  23249708.403    23249710.341
  22378239.688   -19597791.50843 -15213376.79442  22378239.628    22378239.085
 04  5 20 20 50  0.0000000  0  9G22G21G 3G18G31G15G14G 9G19
  20695050.465    12906445.89944  10066875.41142  20695049.913    20695047.279
  22896872.019    30370253.25143  23662850.88642  22896871.365    22896873.116
  22018507.059    -8604663.62043  -6684017.70142  22018507.195    22018508.609
  22116862.490    26605659.18443  20731628.06542  22116862.646    22116862.496
  23549619.550   -10535723.52343  -8162813.70242  23549619.745    23549622.120
  20019886.274    -9995674.76144  -7774414.11142  20019885.752    20019885.963
  20788171.517   -24637342.39243 -19136939.98442  20788172.208    20788171.703
  23251031.185   -11487863.98343  -8912105.65142  23251031.499    23251033.320
  22371891.917   -19631148.84643 -15239369.51842  22371891.967    22371891.400
 04  5 20 20 50 30.0000000  0  9G22G21G 3G18G31G15G14G 9G19
  20699318.139    12928872.79544  10084350.90242  20699317.616    20699314.988
  22914232.867    30461484.60643  23733940.08042  22914232.251    22914234.057
  22026838.112    -8560883.68743  -6649903.52042  22026838.261    22026839.690
  22129163.555    26670301.55043  20781998.70742  22129163.709    22129163.571
  23539707.246   -10587813.33643  -8203403.15142  23539707.416    23539709.747
  20023339.906    -9977525.53444  -7760271.86542  20023339.427    20023339.644
  20777675.044   -24692501.66443 -19179921.19742  20777675.727    20777675.190
  23252471.046   -11480296.84243  -8906209.15842  23252471.503    23252473.284
  22365649.998   -19663950.20043 -15264928.98342  22365650.072    22365649.490
 04  5 20 20 51  0.0000000  0  9G22G21G 3G18G31G15G14G 9G19
  20703630.133    12951532.59144  10102007.87442  20703629.607    20703626.989
  22931644.226    30552981.31643  23805236.04842  22931643.611    22931645.494
  22035261.775    -8516617.16343  -6615410.17342  22035261.937    22035263.393
  22141490.767    26735081.37643  20832476.45042  22141490.948    22141490.808
  23529894.181   -10639381.19643  -8243585.88542  23529894.412    23529896.684
  20026885.007    -9958895.98144  -7745755.34042  20026884.525    20026884.751
  20767273.535   -24747161.88443 -19222513.53942  20767274.213    20767273.658
  23254029.614   -11472105.91143  -8899826.58242  23254030.144    23254032.019
  22359515.820   -19696185.59943 -15290047.49542  22359515.871    22359515.280
 04  5 20 20 51 30.0000000  0  9G22G21G 3G18G31G15G14G 9G19
  20707984.637    12974415.64244  10119838.80842  20707984.117    20707981.514
  22949104.203    30644733.45743  23876731.07042  22949103.576    22949105.538
  22043775.911    -8471875.10243  -6580546.28842  22043776.053    22043777.589
  22153842.297    26799988.92743  20883053.72642  22153842.466    22153842.339
  23520179.036   -10690434.46843  -8283367.63542  23520179.275    23520181.532
  20030519.848    -9939794.87444  -7730871.37542  20030519.346    20030519.587
  20756965.460   -24801330.97543 -19264723.18142  20756966.143    20756965.593
  23255705.256   -11463300.24043  -8892964.98942  23255705.800    23255707.644
  22353487.823   -19727862.92143 -15314731.10142  22353487.868    22353487.286
 04  5 20 20 52  0.0000000  0  9G22G21G 3G18G31G15G14G 9G19
  20712382.662    12997527.25044  10137847.83942  20712382.140    20712379.534
  22966613.720    30736745.93543  23948428.92642  22966613.109    22966615.021
  22052381.354    -8426653.43443  -6545308.68242  22052381.499    22052383.037
  22166219.186    26865029.77343  20933734.85942  22166219.331    22166219.224
  23510563.385   -10740965.25243  -8322742.25842  23510563.615    23510565.817
  20034245.687    -9920215.57244  -7715614.79142  20034245.176    20034245.440
  20746752.190   -24855001.86043 -19306544.61542  20746752.882    20746752.341
  23257499.049   -11453873.20843  -8885619.23442  23257499.710    23257501.597
  22347567.346   -19758975.17243 -15338974.40942  22347567.385    22347566.812
 04  5 20 20 52 30.0000000  0  9G22G21G 3G18G31G15G14G 9G19
  20716823.633    13020864.49644  10156032.69142  20716823.110    20716820.478
  22984172.024    30829014.87043  24020326.64342  22984171.401    22984173.330
  22061077.248    -8380956.44843  -6509700.69542  22061077.387    22061078.956
  22178620.779    26930200.44143  20984517.15842  22178620.920    22178620.828
  23501046.812   -10790974.78743  -8361710.72442  23501047.053    23501049.328
  20038062.207    -9900159.74443  -7699986.88842  20038061.698    20038061.940
  20736633.472   -24908175.94643 -19347978.92442  20736634.158    20736633.623
  23259410.817   -11443827.28143  -8877791.21542  23259411.351    23259413.270
  22341754.158   -19789523.79943 -15362778.53542  22341754.193    22341753.628
 04  5 20 20 53  0.0000000  0  9G22G21G 3G18G31G15G14G 9G19
  20721307.542    13044427.49144  10174393.45142  20721307.031    20721304.387
  23001779.141    30921540.15543  24092424.10742  23001778.496    23001780.476
  22069863.459    -8334785.05743  -6473723.04142  22069863.580    22069865.168
  22191047.194    26995501.42143  21035400.99942  22191047.317    22191047.257
  23491629.984   -10840460.41443  -8400270.92542  23491630.286    23491632.545
  20041969.700    -9879625.90044  -7683986.50642  20041969.175    20041969.401
  20726609.673   -24960851.18643 -19389024.52442  20726610.380    20726609.817
  23261440.531   -11433161.16743  -8869479.92342  23261441.046    23261443.062
  22336048.567   -19819506.83543 -15386141.94742  22336048.602    22336048.033
 04  5 20 20 53 30.0000000  0  9G22G21G 3G18G31G15G14G 9G19
  20725834.078    13068214.38044  10192928.67342  20725833.564    20725830.888
  23019434.667    31014319.48343  24164719.52142  23019433.993    23019435.980
  22078739.186    -8288143.20843  -6437378.80542  22078739.305    22078740.886
  22203498.032    27060930.82943  21086384.90942  22203498.156    22203498.115
  23482312.874   -10889422.10743  -8438422.87242  23482313.072    23482315.398
  20045967.920    -9858615.16844  -7667614.52542  20045967.391    20045967.616
  20716680.742   -25013028.05643 -19429681.78442  20716681.436    20716680.842
  23263588.054   -11421876.03643  -8860686.28942  23263588.596    23263590.614
  22330450.557   -19848924.51643 -15409064.81142  22330450.556    22330450.050
 04  5 20 20 54  0.0000000  0  9G22G21G 3G18G31G15G14G 9G19
  20730403.634    13092227.33944  10211640.05342  20730403.104    20730400.422
  23037138.852    31107354.78743  24237214.39442  23037138.135    23037140.180
  22087704.688    -8241029.63843  -6400666.98842  22087704.791    22087706.341
  22215973.758    27126491.00143  21137470.71942  22215973.896    22215973.812
  23473096.459   -10937854.74843  -8476162.56242  23473096.690    23473098.976
  20050057.601    -9837123.93444  -7650868.13142  20050057.061    20050057.291
  20706847.456   -25064702.27043 -19469947.36642  20706848.137    20706847.534
  23265853.977   -11409968.59543  -8851407.74142  23265854.527    23265856.496
  22324960.892   -19877772.80243 -15431543.99142  22324960.892    22324960.378
 04  5 20 20 54 30.0000000  0  9G22G21G 3G18G31G15G14G 9G19
  20735015.421    13116462.37344  10230524.48442  20735014.899    20735012.193
  23054890.814    31200641.16143  24309904.91642  23054890.068    23054892.172
  22096758.858    -8193449.82743  -6363591.86842  22096758.976    22096760.519
  22228473.614    27192177.80743  21188655.20442  22228473.744    22228473.676
  23463980.313   -10985760.82143  -8513491.94142  23463980.477    23463982.779
  20054238.150    -9815155.15544  -7633749.62442  20054237.604    20054237.830
  20697109.345   -25115876.27243 -19509823.16942  20697110.018    20697109.424
  23268237.562   -11397442.60643  -8841647.21642  23268238.170    23268240.006
  22319579.055   -19906054.56643 -15453581.72142  22319579.050    22319578.549
 04  5 20 20 55  0.0000000  0  9G22G21G 3G18G31G15G14G 9G19
  20739669.235    13140918.18044  10249580.94242  20739668.723    20739665.977
  23072690.177    31294176.86643  24382789.71942  23072689.467    23072691.609
  22105901.281    -8145406.36643  -6326155.46642  22105901.419    22105902.942
  22240997.361    27257990.41143  21239937.70942  22240997.495    22240997.447
  23454964.393   -11033139.39543  -8550410.27942  23454964.630    23454966.877
  20058509.601    -9792708.74544  -7616258.94242  20058509.053    20058509.261
  20687466.479   -25166549.81343 -19549309.00542  20687467.152    20687466.524
  23270738.659   -11384298.38443  -8831404.93342  23270739.332    23270741.267
  22314305.135   -19933769.20543 -15475177.53042  22314305.165    22314304.622
 04  5 20 20 55 30.0000000  0  9G22G21G 3G18G31G15G14G 9G19
  20744366.149    13165600.51244  10268813.91442  20744365.633    20744362.881
  23090537.889    31387966.70043  24455872.54642  23090537.198    23090539.376
  22115132.690    -8096895.10243  -6288354.53042  22115132.847    22115134.383
  22253546.127    27323934.38143  21291322.57842  22253546.268    22253546.209
  23446050.458   -11079982.26243  -8586911.19442  23446050.728    23446052.922
  20062873.175    -9769778.16944  -7598390.98742  20062872.638    20062872.824
  20677920.198   -25216715.71243 -19588399.27442  20677920.899    20677920.222
  23273358.737   -11370529.40643  -8820675.85242  23273359.350    23273361.433
  22309140.574   -19960909.44443 -15496325.76742  22309140.560    22309140.012
 04  5 20 20 56  0.0000000  0  9G22G21G 3G18G31G15G14G 9G19
  20749104.548    13190500.99744  10288216.87342  20749104.057    20749101.302
  23108432.339    31482001.84743  24529146.52942  23108431.637    23108433.821
  22124451.254    -8047925.96043  -6250196.81242  22124451.389    22124452.941
  22266118.295    27390001.51443  21342803.41742  22266118.469    22266118.444
  23437237.157   -11126296.15843  -8622999.90942  23437237.467    23437239.594
  20067327.483    -9746370.80544  -7580151.51442  20067326.935    20067327.115
  20668469.229   -25266380.80243 -19627099.30542  20668469.930    20668469.236
  23276096.283   -11356143.29343  -8809465.88442  23276096.875    23276098.957
  22304084.017   -19987482.11643 -15517031.73442  22304083.967    22304083.387
 04  5 20 20 56 30.0000000  0  9G22G21G 3G18G31G15G14G 9G19
  20753885.220    13215623.55444  10307792.87742  20753884.746    20753881.962
  23126374.138    31576286.52043  24602614.95242  23126373.548    23126375.764
  22133857.449    -7998496.40443  -6211680.32842  22133857.568    22133859.114
  22278714.630    27456195.53543  21394383.13342  22278714.782    22278714.794
  23428525.742   -11172074.71543  -8658671.47242  23428526.073    23428528.224
  20071873.403    -9722481.96144  -7561536.85742  20071872.859    20071873.017
  20659114.583   -25315539.64043 -19665404.85142  20659115.294    20659114.566
  23278952.169   -11341135.47843  -8797771.47142  23278952.670    23278954.933
  22299136.376   -20013481.95843 -15537291.33942  22299136.338    22299135.756
 04  5 20 20 57  0.0000000  0  9G22G21G 3G18G31G15G14G 9G19
  20758707.543    13240964.97044  10327539.42042  20758707.050    20758704.282
  23144362.671    31670816.30243  24676274.33942  23144362.093    23144364.348
  22143350.349    -7948610.97743  -6172808.61942  22143350.469    22143352.042
  22291334.593    27522513.69943  21446059.58542  22291334.738    22291334.793
  23419915.989   -11217319.31743  -8693926.97242  23419916.294    23419918.422
  20076510.622    -9698113.39444  -7542548.39042  20076510.056    20076510.238
  20649856.029   -25364193.58443 -19703316.97442  20649856.719    20649855.982
  23281926.020   -11325508.63143  -8785594.68842  23281926.396    23281928.713
  22294297.449   -20038910.54143 -15557105.81542  22294297.432    22294296.844
 04  5 20 20 57 30.0000000  0  9G22G21G 3G18G31G15G14G 9G19
  20763571.381    13266524.44944  10347455.88642  20763570.882    20763568.101
  23162397.602    31765589.54643  24750123.46842  23162396.988    23162399.241
  22152929.478    -7898272.29143  -6133583.72842  22152929.618    22152931.218
  22303978.026    27588954.94743  21497831.94742  22303978.141    22303978.216
  23411408.024   -11262028.79643  -8728765.49442  23411408.355    23411410.527
  20081239.139    -9673264.98544  -7523186.01942  20081238.581    20081238.747
  20640693.601   -25412342.34043 -19740835.44642  20640694.301    20640693.533
  23285017.353   -11309263.13343  -8772935.86242  23285017.822    23285020.217
  22289567.340   -20063767.42843 -15576474.81042  22289567.295    22289566.739
 04  5 20 20 58  0.0000000  0  9G22G21G 3G18G31G15G14G 9G19
  20768477.650    13292306.97644  10367546.15542  20768477.150    20768474.351
  23180479.717    31860610.69343  24824165.75042  23180479.064    23180481.377
  22162595.548    -7847476.98643  -6094003.03542  22162595.681    22162597.284
  22316645.728    27655524.15243  21549704.01442  22316645.902    22316645.972
  23403003.297   -11306195.94843  -8763181.40742  23403003.588    23403005.813
  20086060.103    -9647930.87344  -7503445.18042  20086059.544    20086059.701
  20631628.561   -25459979.25143 -19777955.07542  20631629.262    20631628.496
  23288227.657   -11292393.34843  -8759790.56842  23288228.114    23288230.471
  22284947.293   -20088046.12943 -15595393.27142  22284947.217    22284946.639
 04  5 20 20 58 30.0000000  0  9G22G21G 3G18G31G15G14G 9G19
  20773425.018    13318305.49744  10387804.72942  20773424.506    20773421.719
  23198607.558    31955872.26243  24898395.37642  23198606.812    23198609.231
  22172346.868    -7796233.51443  -6054073.11442  22172347.020    22172348.638
  22329336.459    27722214.42643  21601670.41442  22329336.653    22329336.751
  23394700.721   -11349826.22043  -8797178.97542  23394701.002    23394703.231
  20090972.333    -9622117.06743  -7483330.55542  20090971.769    20090971.941
  20622659.847   -25507110.07743 -19814680.35142  20622660.546    20622659.760
  23291555.060   -11274905.91543  -8746164.00942  23291555.800    23291558.118
  22280436.097   -20111752.52843 -15613865.78842  22280436.031    22280435.451
 04  5 20 20 59  0.0000000  0  9G22G21G 3G18G31G15G14G 9G19
  20778413.646    13344520.83444  10408232.24942  20778413.144    20778410.343
  23216781.214    32051374.21743  24972812.30242  23216780.366    23216782.811
  22182183.371    -7744542.59243  -6013794.52842  22182183.493    22182185.172
  22342050.520    27789026.98843  21653732.10242  22342050.693    22342050.774
  23386500.831   -11392916.68543  -8830755.90842  23386501.143    23386503.316
  20095976.164    -9595821.82443  -7462840.78442  20095975.610    20095975.790
  20613787.875   -25553732.57843 -19851009.52942  20613788.563    20613787.747
  23295000.661   -11256799.42843  -8732055.07742  23295001.337    23295003.522
  22276034.241   -20134884.28643 -15631890.52942  22276034.202    22276033.617
 04  5 20 20 59 30.0000000  0  9G22G21G 3G18G31G15G14G 9G19
  20783443.349    13370951.94644  10428827.90842  20783442.836    20783440.060
  23235000.273    32147115.23443  25047415.51942  23234999.405    23235001.924
  22192104.536    -7692406.78043  -5973169.28742  22192104.649    22192106.373
  22354787.577    27855960.59143  21705888.11942  22354787.761    22354787.858
  23378403.830   -11435466.10743  -8863911.24542  23378404.212    23378406.389
  20101071.606    -9569045.21144  -7441975.92042  20101071.044    20101071.243
  20605012.703   -25599846.26443 -19886942.23042  20605013.397    20605012.551
  23298563.966   -11238074.36743  -8717464.13542  23298564.652    23298566.764
  22271741.824   -20157440.97743 -15649467.17142  22271741.811    22271741.187
 04  5 20 21  0  0.0000000  0  9G22G21G 3G18G31G15G14G 9G19
  20788514.452    13397600.82344  10449593.25842  20788513.967    20788511.203
  23253264.995    32243096.45543  25122205.91042  23253264.173    23253266.727
  22202110.468    -7639825.78043  -5932197.14342  22202110.552    22202112.292
  22367548.090    27923017.32743  21758140.07042  22367548.249    22367548.375
  23370410.555   -11477471.03343  -8896642.31242  23370410.933    23370413.087
  20106259.202    -9541784.40044  -7420733.76042  20106258.633    20106258.827
  20596334.997   -25645447.74043 -19922475.80642  20596335.706    20596334.845
  23302245.834   -11218728.46443  -8702389.41842  23302246.117    23302248.073
  22267559.489   -20179419.72343 -15666593.46242  22267559.423    22267558.766
 04  5 20 21  0 30.0000000  0  9G22G21G 3G18G31G15G14G 9G19
  20793627.020    13424467.46144  10470528.28942  20793626.544    20793623.771
  23271575.318    32339317.30343  25197183.01742  23271574.542    23271577.158
  22212200.743    -7586801.30043  -5890879.43042  22212200.829    22212202.603
  22380332.040    27990197.28143  21810488.04742  22380332.179    22380332.313
  23362521.229   -11518929.51443  -8928947.57442  23362521.631    23362523.706
  20111539.100    -9514038.59643  -7399113.68542  20111538.531    20111538.708
  20587754.974   -25690535.81743 -19957609.33442  20587755.712    20587754.836
  23306045.660   -11198761.17943  -8686830.49942  23306045.790    23306047.870
  22263487.388   -20200818.73043 -15683268.01142  22263487.332    22263486.655
 04  5 20 21  1  0.0000000  0  9G22G21G 3G18G31G15G14G 9G19
  20798779.420    13451543.42344  10491626.43642  20798778.945    20798776.192
  23289929.533    32435768.44743  25272339.58242  23289928.698    23289931.285
  22222373.486    -7533343.57443  -5849224.12842  22222373.580    22222375.326
  22393137.850    28057491.98443  21862925.43542  22393137.979    22393138.110
  23354734.612   -11559848.17343  -8960832.18042  23354735.026    23354737.061
  20116909.807    -9485815.39743  -7377121.60842  20116909.258    20116909.434
  20579271.304   -25735117.62443 -19992348.36142  20579272.055    20579271.156
  23309961.862   -11178180.72143  -8670793.81042  23309962.145    23309964.268
  22259524.188   -20221645.56443 -15699496.70842  22259524.147    22259523.424
 04  5 20 21  1 30.0000000  0  9G22G21G 3G18G31G15G14G 9G19
  20803973.571    13478838.78144  10512895.53942  20803973.108    20803970.350
  23308329.385    32532459.45643  25347683.05142  23308328.569    23308331.129
  22232630.334    -7479443.81643  -5807224.38542  22232630.448    22232632.150
  22405967.438    28124911.68443  21915460.21942  22405967.594    22405967.701
  23347053.004   -11600215.15143  -8992286.91242  23347053.439    23347055.415
  20122373.513    -9457103.60844  -7354748.81842  20122372.974    20122373.110
  20570886.176   -25779181.62143 -20026683.90642  20570886.935    20570886.023
  23313996.647   -11156976.67743  -8654271.21542  23313997.131    23313999.192
  22255671.918   -20241888.97843 -15715270.79342  22255671.947    22255671.204
 04  5 20 21  2  0.0000000  0  9G22G21G 3G18G31G15G14G 9G19
  20809207.984    13506345.78044  10534329.55842  20809207.551    20809204.771
  23326773.207    32629381.91143  25423206.86242  23326772.461    23326774.956
  22242969.423    -7425111.90143  -5764887.89742  22242969.560    22242971.240
  22418819.350    28192448.77443  21968086.47042  22418819.518    22418819.612
  23339475.232   -11640036.22043  -9023316.27242  23339475.682    23339477.620
  20127928.834    -9427910.40844  -7332000.90042  20127928.295    20127928.423
  20562598.372   -25822734.24343 -20060620.97642  20562599.117    20562598.204
  23318148.839   -11135156.73643  -8637268.69442  23318149.355    23318151.392
  22251929.554   -20261555.31143 -15730595.20942  22251929.585    22251928.780
 04  5 20 21  2 30.0000000  0  9G22G21G 3G18G31G15G14G 9G19
  20814482.569    13534063.95044  10555928.13142  20814482.144    20814479.395
  23345260.784    32726534.40343  25498909.93042  23345260.139    23345262.563
  22253390.385    -7370349.93243  -5722216.30642  22253390.495    22253392.135
  22431693.545    28260102.84843  22020803.88142  22431693.733    22431693.796
  23332001.557   -11679310.26343  -9053919.35742  23332002.043    23332003.974
  20133575.871    -9398235.24244  -7308877.42542  20133575.326    20133575.439
  20554408.028   -25865774.74043 -20094158.98742  20554408.778    20554407.822
  23322418.222   -11112721.02543  -8619786.34842  23322418.732    23322420.729
  22248297.108   -20280644.01143 -15745469.51742  22248297.138    22248296.319
 04  5 20 21  3  0.0000000  0  9G22G21G 3G18G31G15G14G 9G19
  20819798.655    13562000.06144  10577696.52642  20819798.237    20819795.462
  23363793.466    32823923.18843  25574797.10742  23363792.743    23363795.100
  22263894.188    -7315152.62543  -5679205.48742  22263894.315    22263895.907
  22444591.275    28327880.55543  22073617.62642  22444591.480    22444591.504
  23324633.693   -11718028.46443  -9084089.31642  23324634.246    23324636.078
  20139316.075    -9368070.47443  -7285372.44542  20139315.528    20139315.636
  20546316.609   -25908295.27243 -20127291.83242  20546317.357    20546316.397
  23326806.331   -11089662.50043  -8601818.67842  23326806.682    23326808.501
  22244776.124   -20299147.15843 -15759887.55642  22244776.138    22244775.285
 04  5 20 21  3 30.0000000  0  9G22G21G 3G18G31G15G14G 9G19
  20825154.092    13590143.04644  10599626.12542  20825153.675    20825150.909
  23382368.812    32921536.40043  25650859.17142  23382368.082    23382370.524
  22274478.313    -7259532.98743  -5635865.58242  22274478.457    22274480.041
  22457510.475    28395771.20943  22126519.38842  22457510.703    22457510.675
  23317369.794   -11756200.72443  -9113833.91242  23317370.298    23317372.087
  20145147.461    -9337426.59144  -7261494.12542  20145146.909    20145147.001
  20538322.258   -25950305.66643 -20160027.16442  20538323.023    20538322.038
  23331310.545   -11065992.01443  -8583374.17442  23331311.022    23331313.045
  22241364.604   -20317074.84943 -15773857.18742  22241364.654    22241363.745
 04  5 20 21  4  0.0000000  0  9G22G21G 3G18G31G15G14G 9G19
  20830549.681    13618497.13244  10621720.21942  20830549.298    20830546.523
  23400987.476    33019377.36943  25727098.68642  23400986.756    23400989.217
  22285143.338    -7203488.48243  -5592194.61042  22285143.462    22285145.012
  22470451.913    28463778.85143  22179512.30942  22470452.161    22470452.130
  23310210.935   -11793820.81843  -9143148.20642  23310211.440    23310213.204
  20151070.914    -9306298.65344  -7237238.61942  20151070.392    20151070.478
  20530426.105   -25991800.20943 -20192360.53642  20530426.868    20530425.858
  23335932.427   -11041705.33943  -8564449.48542  23335932.769    23335934.681
  22238063.639   -20334421.66443 -15787374.19142  22238063.693    22238062.770
 04  5 20 21  4 30.0000000  0  9G22G21G 3G18G31G15G14G 9G19
  20835986.311    13647066.83744  10643982.32542  20835985.942    20835983.167
  23419650.179    33117449.94143  25803518.70142  23419649.519    23419652.022
  22295889.631    -7147016.43243  -5548190.49342  22295889.794    22295891.366
  22483416.580    28531908.34243  22232600.17342  22483416.807    22483416.769
  23303158.391   -11830882.39143  -9172027.31442  23303158.856    23303160.584
  20157087.521    -9274681.19044  -7212601.66642  20157087.022    20157087.114
  20522629.147   -26032773.47743 -20224287.72442  20522629.906    20522628.879
  23340672.129   -11016797.61243  -8545040.87942  23340672.530    23340674.503
  22234874.266   -20351182.00943 -15800434.20142  22234874.332    22234873.392
 04  5 20 21  5  0.0000000  0  9G22G21G 3G18G31G15G14G 9G19
  20841462.261    13675843.19944  10666405.46442  20841461.888    20841459.144
  23438355.075    33215744.54143  25880111.69742  23438354.473    23438357.056
  22306715.241    -7090127.70243  -5503861.68842  22306715.382    22306717.024
  22496402.600    28600150.13743  22285775.54342  22496402.838    22496402.786
  23296210.613   -11867393.29843  -9200477.35542  23296211.040    23296212.760
  20163195.655    -9242582.84144  -7187589.99742  20163195.162    20163195.260
  20514929.869   -26073233.38443 -20255814.88542  20514930.616    20514929.588
  23345527.966   -10991278.01743  -8525155.49242  23345528.663    23345530.749
  22231794.925   -20367364.09243 -15813043.62042  22231794.993    22231794.086
 04  5 20 21  5 30.0000000  0  9G22G21G 3G18G31G15G14G 9G19
  20846978.016    13704828.69944  10688991.56442  20846977.654    20846974.914
  23457102.638    33314262.84543  25956879.01842  23457101.974    23457104.659
  22317620.306    -7032821.37243  -5459207.48542  22317620.451    22317622.137
  22509410.576    28668507.50243  22339040.96042  22509410.854    22509410.850
  23289368.338   -11903348.85843  -9228494.60542  23289368.861    23289370.630
  20169395.955    -9210000.09544  -7162200.87542  20169395.463    20169395.581
  20507328.923   -26113176.26243 -20286939.16742  20507329.717    20507328.669
  23350501.403   -10965143.74743  -8504791.12742  23350501.839    23350503.996
  22228826.286   -20382964.09543 -15825199.46942  22228826.388    22228825.501
 04  5 20 21  6  0.0000000  0  9G22G21G 3G18G31G15G14G 9G19
  20852533.972    13734025.35544  10711742.20542  20852533.580    20852530.855
  23475892.982    33413005.75943  26033821.34842  23475892.236    23475895.050
  22328604.845    -6975097.41543  -5414227.85642  22328604.986    22328606.740
  22522440.892    28736982.14443  22392397.76542  22522441.155    22522441.167
  23282632.488   -11938745.81943  -9256076.63342  23282632.950    23282634.808
  20175688.903    -9176930.53943  -7136432.42342  20175688.388    20175688.551
  20499826.981   -26152598.92743 -20317658.08842  20499827.785    20499826.751
  23355591.912   -10938392.83043  -8483946.24542  23355592.466    23355594.495
  22225968.967   -20397979.35443 -15836899.68042  22225969.065    22225968.180
 04  5 20 21  6 30.0000000  0  9G22G21G 3G18G31G15G14G 9G19
  20858128.946    13763427.23944  10734652.76542  20858128.572    20858125.862
  23494724.787    33511966.65843  26110933.55842  23494724.026    23494726.866
  22339667.398    -6916963.69643  -5368928.93342  22339667.498    22339669.307
  22535492.451    28805568.40543  22445841.54942  22535492.688    22535492.758
  23276002.099   -11973588.47243  -9283226.69442  23276002.530    23276004.445
  20182073.494    -9143379.37044  -7110288.68842  20182072.993    20182073.165
  20492423.150   -26191506.20343 -20347975.40542  20492423.938    20492422.915
  23360798.585   -10911031.12143  -8462625.42342  23360799.221    23360801.139
  22223221.997   -20412414.81743 -15848148.09742  22223222.088    22223221.197
 04  5 20 21  7  0.0000000  0  9G22G21G 3G18G31G15G14G 9G19
  20863763.953    13793039.43244  10757727.19942  20863763.548    20863760.865
  23513598.909    33611150.03743  26188219.11542  23513598.155    23513601.077
  22350808.488    -6858416.92343  -5323308.15442  22350808.591    22350810.471
  22548566.298    28874271.66543  22499376.50142  22548566.520    22548566.632
  23269478.462   -12007870.33643  -9309939.80142  23269478.858    23269480.785
  20188550.841    -9109340.87244  -7083765.21942  20188550.333    20188550.504
  20485118.566   -26229891.91543 -20377886.31542  20485119.337    20485118.321
  23366122.578   -10883053.55143  -8440824.71742  23366123.122    23366125.077
  22220586.550   -20426264.28043 -15858939.88942  22220586.594    22220585.724
 04  5 20 21  7 30.0000000  0  9G22G21G 3G18G31G15G14G 9G19
  20869438.669    13822860.39844  10780964.31442  20869438.264    20869435.622
  23532514.914    33710553.47843  26265676.14142  23532514.147    23532517.072
  22362027.529    -6799460.68843  -5277368.30942  22362027.634    22362029.537
  22561662.087    28943090.32643  22553001.37342  22561662.321    22561662.420
  23263061.424   -12041591.08843  -9336215.69442  23263061.862    23263063.915
  20195120.728    -9074815.89243  -7056862.67442  20195120.237    20195120.443
  20477913.086   -26267756.81943 -20407391.39842  20477913.862    20477912.847
  23371563.517   -10854461.84243  -8418545.47442  23371563.992    23371566.041
  22218062.403   -20439528.64343 -15869275.75742  22218062.430    22218061.590
 04  5 20 21  8  0.0000000  0  9G22G21G 3G18G31G15G14G 9G19
  20875151.778    13852883.07944  10804358.61142  20875151.376    20875148.748
  23551471.236    33810168.87943  26343298.34042  23551470.454    23551473.504
  22373322.809    -6740103.88343  -5231116.33442  22373322.917    22373324.832
  22574778.414    29012016.97943  22606710.39642  22574778.609    22574778.762
  23256750.118   -12074756.87043  -9362059.12042  23256750.554    23256752.641
  20201781.978    -9039810.90944  -7029586.09642  20201781.463    20201781.716
  20470805.541   -26305106.97343 -20436495.37642  20470806.325    20470805.308
  23377119.776   -10825263.31643  -8395793.37542  23377120.265    23377122.364
  22215648.338   -20452214.31643 -15879160.70242  22215648.412    22215647.612
 04  5 20 21  8 30.0000000  0  9G22G21G 3G18G31G15G14G 9G19
  20880904.488    13883113.68744  10827914.92442  20880904.074    20880901.415
  23570468.951    33910001.86543  26421090.08342  23570468.146    23570471.285
  22384695.134    -6680342.25243  -5184548.89942  22384695.244    22384697.166
  22587916.626    29081058.36243  22660508.82342  22587916.794    22587916.975
  23250546.033   -12107359.67743  -9387463.87542  23250546.426    23250548.422
  20208535.813    -9004319.28243  -7001930.31442  20208535.305    20208535.600
  20463797.353   -26341935.14843 -20465192.61642  20463798.138    20463797.109
  23382792.701   -10795451.73343  -8372563.55542  23382793.124    23382795.290
  22213345.887   -20464313.92343 -15888588.97142  22213345.945    22213345.146
 04  5 20 21  9  0.0000000  0  9G22G21G 3G18G31G15G14G 9G19
  20886696.703    13913551.94244  10851633.04342  20886696.279    20886693.615
  23589507.774    34010050.92143  26499050.18742  23589507.059    23589510.172
  22396144.059    -6620177.99843  -5137667.73942  22396144.173    22396146.114
  22601076.625    29150214.30743  22714396.51642  22601076.794    22601076.978
  23244449.378   -12139398.50143  -9412429.17042  23244449.633    23244451.619
  20215382.296    -8968340.81043  -6973895.16642  20215381.794    20215382.090
  20456888.668   -26378240.47943 -20493482.44642  20456889.425    20456888.391
  23388582.227   -10765027.47043  -8348856.35342  23388582.651    23388584.878
  22211155.013   -20475827.07943 -15897560.26642  22211155.071    22211154.293
 04  5 20 21  9 30.0000000  0  9G22G21G 3G18G31G15G14G 9G19
  20892527.625    13944193.60344  10875509.65542  20892527.195    20892524.524
  23608586.824    34110311.23043  26577174.92042  23608586.142    23608589.342
  22407668.504    -6559617.10143  -5090477.50142  22407668.620    22407670.550
  22614257.525    29219480.03543  22768369.75542  22614257.710    22614257.907
  23238459.378   -12170876.03243  -9436957.11942  23238459.618    23238461.559
  20222320.702    -8931879.28943  -6945483.62042  20222320.217    20222320.535
  20450078.799   -26414026.46743 -20521367.59842  20450079.543    20450078.506
  23394487.622   -10733994.82543  -8324675.07642  23394487.998    23394490.171
  22209075.102   -20486757.39843 -15906077.40342  22209075.108    22209074.336
 04  5 20 21 10  0.0000000  0  9G22G21G 3G18G31G15G14G 9G19
  20898397.423    13975039.52044  10899545.43042  20898396.987    20898394.311
  23627706.067    34210782.74743  26655464.22142  23627705.354    23627708.595
  22419268.131    -6498660.77843  -5042979.15242  22419268.272    22419270.238
  22627459.562    29288856.96443  22822429.64842  22627459.755    22627459.943
  23232576.604   -12201790.15143  -9461045.99342  23232576.881    23232578.779
  20229351.370    -8894933.11943  -6916694.42442  20229350.871    20229351.175
  20443368.079   -26449291.37143 -20548846.70742  20443368.822    20443367.783
  23400508.835   -10702353.37243  -8300019.39942  23400509.172    23400511.465
  22207106.348   -20497103.20843 -15914139.07542  22207106.389    22207105.622
 04  5 20 21 10 30.0000000  0  9G22G21G 3G18G31G15G14G 9G19
  20904306.184    14006090.18244  10923740.74342  20904305.759    20904303.064
  23646865.365    34311464.84343  26733917.60242  23646864.606    23646867.961
  22430942.738    -6437310.64543  -4995173.92242  22430942.874    22430944.880
  22640682.884    29358345.66043  22876576.63142  22640683.075    22640683.226
  23226801.244   -12232139.09343  -9484694.49442  23226801.677    23226803.536
  20236474.443    -8857501.40644  -6887526.88242  20236473.929    20236474.242
  20436756.796   -26484033.86843 -20575918.74542  20436757.520    20436756.479
  23406645.696   -10670103.11543  -8274889.35242  23406646.174    23406648.400
  22205249.047   -20506863.59143 -15921744.57042  22205249.076    22205248.308
 04  5 20 21 11  0.0000000  0  9G22G21G 3G18G31G15G14G 9G19
  20910252.961    14037340.59044  10948091.70542  20910252.533    20910249.821
  23666063.653    34412351.83443  26812530.67042  23666062.972    23666066.278
  22442690.970    -6375573.69143  -4947067.27342  22442691.078    22442693.108
  22653926.534    29427941.29243  22930806.93842  22653926.765    22653926.907
  23221133.043   -12261926.34843  -9507905.30042  23221133.357    23221135.165
  20243689.037    -8819588.56743  -6857984.43342  20243688.542    20243688.855
  20430244.082   -26518258.21543 -20602587.02942  20430244.828    20430243.780
  23412897.766   -10637249.04243  -8249288.78642  23412898.213    23412900.438
  22203502.342   -20516042.60443 -15928897.05542  22203502.364    22203501.578
 04  5 20 21 11 30.0000000  0  9G22G21G 3G18G31G15G14G 9G19
  20916238.947    14068797.11044  10972603.27342  20916238.533    20916235.792
  23685301.928    34513449.21743  26891307.65742  23685301.267    23685304.690
  22454513.694    -6313445.24443  -4898655.56442  22454513.786    22454515.841
  22667191.729    29497650.25143  22985125.55142  22667191.962    22667192.166
  23215572.754   -12291145.26043  -9530673.26242  23215573.173    23215574.965
  20250996.441    -8781187.93844  -6828061.89042  20250995.956    20250996.284
  20423831.407   -26551956.88443 -20628845.69842  20423832.176    20423831.096
  23419265.698   -10603785.21243  -8223213.08742  23419266.165    23419268.293
  22201867.582   -20524633.39143 -15935591.18542  22201867.594    22201866.786
 04  5 20 21 12  0.0000000  0  9G22G21G 3G18G31G15G14G 9G19
  20922263.307    14100455.37444  10997272.04542  20922262.925    20922260.163
  23704579.318    34614751.86143  26970244.59642  23704578.705    23704582.090
  22466409.592    -6250932.06143  -4849944.06342  22466409.715    22466411.761
  22680477.663    29567468.07943  23039529.00042  22680477.916    22680478.087
  23210120.631   -12319797.01743  -9552999.27242  23210120.941    23210122.675
  20258395.951    -8742303.51044  -6797762.36342  20258395.456    20258395.775
  20417518.078   -26585133.61443 -20654697.65742  20417518.834    20417517.751
  23425748.659   -10569716.47843  -8196666.04642  23425749.195    23425751.394
  22200343.993   -20532639.62943 -15941829.82542  22200344.075    22200343.238
 04  5 20 21 12 30.0000000  0  9G22G21G 3G18G31G15G14G 9G19
  20928326.187    14132315.79844  11022098.34242  20928325.782    20928323.017
  23723895.740    34716258.99843  27049340.88042  23723894.990    23723898.526
  22478378.482    -6188035.60443  -4800933.90342  22478378.599    22478380.620
  22693784.436    29637395.54843  23094017.87842  22693784.675    22693784.888
  23204776.366   -12347881.32343  -9574883.12142  23204776.700    23204778.321
  20265887.712    -8702934.08144  -6767084.90942  20265887.236    20265887.549
  20411304.298   -26617787.12243 -20680141.91942  20411305.063    20411303.966
  23432347.130   -10535042.51243  -8169647.38442  23432347.530    23432349.647
  22198931.849   -20540060.32243 -15947612.19142  22198931.982    22198931.127
 04  5 20 21 13  0.0000000  0  9G22G21G 3G18G31G15G14G 9G19
  20934426.945    14164375.22444  11047079.70642  20934426.529    20934423.736
  23743250.138    34817966.31043  27128593.12942  23743249.399    23743252.984
  22490419.230    -6124761.44043  -4751629.42242  22490419.350    22490421.321
  22707111.410    29707429.12043  23148589.43042  22707111.679    22707111.936
  23199539.644   -12375400.17243  -9596326.35442  23199540.023    23199541.612
  20273471.137    -8663083.02344  -6736032.16442  20273470.680    20273470.981
  20405189.570   -26649920.19943 -20705180.64642  20405190.342    20405189.209
  23439059.873   -10499767.19343  -8142160.13642  23439060.278    23439062.384
  22197630.692   -20546898.38743 -15952940.56942  22197630.762    22197629.880
 04  5 20 21 13 30.0000000  0  9G22G21G 3G18G31G15G14G 9G19
  20940565.999    14196636.15044  11072218.08342  20940565.604    20940562.811
  23762642.942    34919875.54043  27208002.72342  23762642.254    23762645.776
  22502531.981    -6061108.79043  -4702030.02542  22502532.118    22502534.095
  22720459.192    29777571.90543  23203246.08442  22720459.459    22720459.663
  23194411.307   -12402349.54243  -9617325.84142  23194411.699    23194413.282
  20281146.810    -8622747.24344  -6704601.71142  20281146.374    20281146.627
  20399174.578   -26681529.15843 -20729810.97542  20399175.336    20399174.193
  23445887.395   -10463888.30443  -8114202.57342  23445887.847    23445889.882
  22196440.979   -20553150.50143 -15957812.36142  22196441.064    22196440.169
 04  5 20 21 14  0.0000000  0  9G22G21G 3G18G31G15G14G 9G19
  20946743.350    14229098.44344  11097513.36842  20946742.990    20946740.193
  23782073.944    35021985.15943  27287568.44542  23782073.125    23782076.785
  22514716.308    -5997080.12243  -4652137.61942  22514716.450    22514718.408
  22733827.758    29847823.70843  23257987.68742  22733827.956    22733828.209
  23189391.584   -12428728.71443  -9637881.01942  23189391.927    23189393.472
  20288914.752    -8581926.64944  -6672793.48542  20288914.319    20288914.551
  20393259.339   -26712613.78743 -20754032.73242  20393260.112    20393258.963
  23452829.589   -10427406.57943  -8085775.27142  23452830.106    23452832.074
  22195362.835   -20558816.49343 -15962227.43142  22195362.934    22195361.992
 04  5 20 21 14 30.0000000  0  9G22G21G 3G18G31G15G14G 9G19
  20952958.676    14261760.02044  11122963.94342  20952958.289    20952955.486
  23801542.583    35124292.77843  27367288.46242  23801541.751    23801545.489
  22526971.360    -5932679.61043  -4601955.47042  22526971.496    22526973.510
  22747216.665    29918182.52743  23312812.67542  22747216.883    22747217.126
  23184480.048   -12454538.27943  -9657992.34442  23184480.484    23184482.040
  20296774.642    -8540622.78844  -6640608.68642  20296774.217    20296774.438
  20387443.661   -26743175.26143 -20777846.83542  20387444.453    20387443.264
  23459886.135   -10390324.53043  -8056880.19642  23459886.682    23459888.612
  22194395.912   -20563898.00543 -15966187.06142  22194395.997    22194395.030
 04  5 20 21 15  0.0000000  0  9G22G21G 3G18G31G15G14G 9G19
  20959211.994    14294621.33944  11148570.15442  20959211.630    20959208.782
  23821048.749    35226797.73043  27447162.24542  23821047.972    23821051.680
  22539296.902    -5867908.87343  -4551484.84142  22539297.056    22539299.035
  22760625.960    29988648.66343  23367721.28042  22760626.218    22760626.423
  23179677.255   -12479777.00643  -9677658.86642  23179677.731    23179679.229
  20304726.652    -8498834.93444  -6608046.75342  20304726.225    20304726.431
  20381727.726   -26773212.64843 -20801252.55842  20381728.531    20381727.292
  23467056.845   -10352642.23343  -8027517.39342  23467057.343    23467059.360
  22193540.313   -20568394.04443 -15969690.48242  22193540.455    22193539.481
 04  5 20 21 15 30.0000000  0  9G22G21G 3G18G31G15G14G 9G19
  20965502.599    14327678.57744  11174329.03142  20965502.232    20965499.355
  23840591.665    35329495.26343  27527186.09542  23840590.851    23840594.559
  22551691.716    -5802773.82043  -4500730.32942  22551691.916    22551693.878
  22774055.011    30059218.50443  23422710.70342  22774055.288    22774055.459
  23174982.689   -12504447.39143  -9696882.52942  23174983.094    23174984.660
  20312770.048    -8456566.70243  -6575110.50342  20312769.634    20312769.832
  20376110.955   -26802728.95743 -20824252.24842  20376111.759    20376110.486
  23474341.020   -10314364.10343  -7997690.27842  23474341.371    23474343.360
  22192795.490   -20572308.15843 -15972740.45142  22192795.646    22192794.657
 04  5 20 21 16  0.0000000  0  9G22G21G 3G18G31G15G14G 9G19
  20971831.257    14360935.79544  11200243.74242  20971830.879    20971828.002
  23860171.694    35432388.02043  27607362.06542  23860170.750    23860174.578
  22564156.208    -5737272.70643  -4449690.57342  22564156.422    22564158.409
  22787504.660    30129896.20043  23477784.15742  22787504.897    22787505.062
  23170397.078   -12528545.09543  -9715659.95842  23170397.470    23170398.955
  20320905.636    -8413814.07744  -6541796.80142  20320905.219    20320905.409
  20370594.186   -26831719.73643 -20846842.43242  20370594.983    20370593.683
  23481739.179   -10275486.75943  -7967396.24942  23481739.618    23481741.443
  22192162.222   -20575636.12643 -15975333.69242  22192162.371    22192161.353
 04  5 20 21 16 30.0000000  0  9G22G21G 3G18G31G15G14G 9G19
  20978197.977    14394393.08044  11226314.34842  20978197.600    20978194.731
  23879788.672    35535475.28243  27687689.58842  23879787.742    23879791.711
  22576689.979    -5671407.54943  -4398367.15742  22576690.212    22576692.209
  22800974.757    30200681.81843  23532941.71042  22800975.043    22800975.195
  23165920.747   -12552068.30043  -9733989.71042  23165921.149    23165922.633
  20329133.508    -8370576.44943  -6508105.17742  20329133.096    20329133.290
  20365177.551   -26860184.19643 -20869022.50142  20365178.374    20365177.025
  23489251.139   -10236010.93243  -7936635.86942  23489251.657    23489253.606
  22191640.517   -20578377.44643 -15977469.80042  22191640.701    22191639.707
 04  5 20 21 17  0.0000000  0  9G22G21G 3G18G31G15G14G 9G19
  20984601.284    14428042.65144  11252534.78642  20984600.903    20984598.053
  23899440.911    35638748.12143  27768161.72042  23899440.077    23899444.101
  22589291.176    -5605188.19643  -4346767.73742  22589291.399    22589293.414
  22814463.983    30271567.97043  23588177.60942  22814464.305    22814464.435
  23161552.459   -12575023.97143  -9751877.24642  23161552.824    23161554.347
  20337452.240    -8326861.47844  -6474041.59842  20337451.810    20337451.999
  20359859.709   -26888129.50443 -20890798.03442  20359860.542    20359859.182
  23496875.520   -10195944.79143  -7905415.49542  23496876.079    23496877.981
  22191229.171   -20580539.37143 -15979154.43342  22191229.306    22191228.312
 04  5 20 21 17 30.0000000  0  9G22G21G 3G18G31G15G14G 9G19
  20991042.754    14461892.78744  11278911.51142  20991042.380    20991039.545
  23919130.008    35742214.06143  27848784.34242  23919129.242    23919133.068
  22601960.930    -5538608.45343  -4294887.49742  22601961.147    22601963.187
  22827974.011    30342563.21543  23643498.50642  22827974.311    22827974.522
  23157293.837   -12597403.22643  -9769315.61442  23157294.182    23157295.681
  20345863.435    -8282660.51343  -6439599.32442  20345863.003    20345863.181
  20354642.402   -26915546.58943 -20912161.96642  20354643.232    20354641.843
  23504613.580   -10155280.61943  -7873729.12242  23504614.148    23504616.054
  22190929.656   -20582113.42343 -15980380.97942  22190929.803    22190928.795
 04  5 20 21 18  0.0000000  0  9G22G21G 3G18G31G15G14G 9G19
  20997521.353    14495938.02744  11305440.26542  20997521.001    20997518.159
  23938854.529    35845866.58443  27929552.34042  23938853.799    23938857.730
  22614697.815    -5471675.98043  -4242732.40242  22614698.067    22614700.078
  22841503.654    30413661.82943  23698899.94442  22841504.003    22841504.256
  23153144.246   -12619209.65443  -9786307.61742  23153144.582    23153146.085
  20354366.106    -8237978.88343  -6404782.50342  20354365.662    20354365.864
  20349524.592   -26942440.83043 -20933118.48942  20349525.434    20349524.015
  23512464.372   -10114024.63243  -7841581.58642  23512464.922    23512466.880
  22190740.996   -20583104.84743 -15981153.53342  22190741.146    22190740.141
 04  5 20 21 18 30.0000000  0  9G22G21G 3G18G31G15G14G 9G19
  21004037.069    14530178.38044  11332121.05542  21004036.736    21004033.889
  23958614.339    35949704.33943  28010464.65542  23958613.667    23958617.537
  22627501.400    -5404393.14743  -4190304.29542  22627501.658    22627503.633
  22855052.985    30484863.56543  23754381.74742  22855053.260    22855053.568
  23149103.584   -12640443.41643  -9802853.39142  23149103.906    23149105.415
  20362960.225    -8192816.61843  -6369591.16442  20362959.792    20362959.967
  20344506.385   -26968811.70943 -20953667.19542  20344507.208    20344505.756
  23520427.699   -10072177.55043  -7808973.47442  23520428.240    23520430.156
  22190663.239   -20583513.45343 -15981471.93642  22190663.395    22190662.385
 04  5 20 21 19  0.0000000  0  9G22G21G 3G18G31G15G14G 9G19
  21010589.765    14564612.85844  11358953.10742  21010589.422    21010586.542
  23978409.079    36053725.34943  28091519.76242  23978408.376    23978412.217
  22640370.969    -5336763.29043  -4137605.78042  22640371.254    22640373.223
  22868621.821    30556168.01543  23809943.58542  22868622.087    22868622.407
  23145171.831   -12661104.52343  -9818952.93042  23145172.203    23145173.672
  20371645.636    -8147174.64343  -6334026.02942  20371645.202    20371645.384
  20339587.645   -26994659.70243 -20973808.45742  20339588.478    20339587.016
  23528502.891   -10029741.41343  -7775906.33542  23528503.495    23528505.518
  22190696.263   -20583340.15043 -15981336.90842  22190696.393    22190695.383
 04  5 20 21 19 30.0000000  0  9G22G21G 3G18G31G15G14G 9G19
  21017180.126    14599245.40244  11385939.49842  21017179.796    21017176.906
  23998239.148    36157932.40243  28172719.85442  23998238.409    23998242.367
  22653306.923    -5268784.67143  -4084635.50342  22653307.183    22653309.232
  22882210.920    30627578.96743  23865588.39542  22882211.160    22882211.476
  23141350.208   -12681187.70243  -9834602.15942  23141350.500    23141351.947
  20380423.153    -8101048.77143  -6298083.83242  20380422.704    20380422.879
  20334769.254   -27019980.48543 -20993538.90842  20334770.077    20334768.587
  23536690.914    -9986713.27043  -7742377.89642  23536691.494    23536693.374
  22190840.760   -20582580.87643 -15980745.28442  22190840.888    22190839.880
 04  5 20 21 20  0.0000000  0  9G22G21G 3G18G31G15G14G 9G19
  21023806.722    14634068.32744  11413074.23842  21023806.395    21023803.499
  24018103.086    36262317.02443  28254058.32942  24018102.395    24018106.431
  22666307.407    -5200467.18043  -4031401.17642  22666307.623    22666309.703
  22895818.836    30699088.88143  23921310.32842  22895819.115    22895819.375
  23137636.962   -12700700.79443  -9849807.14342  23137637.326    23137638.708
  20389291.306    -8054446.51043  -6261770.42342  20389290.857    20389291.033
  20330049.778   -27044781.26443 -21012864.16142  20330050.633    20330049.111
  23544989.978    -9943101.13143  -7708394.40342  23544990.559    23544992.597
  22191095.316   -20581243.07643 -15979702.85642  22191095.479    22191094.499
 04  5 20 21 20 30.0000000  0  9G22G21G 3G18G31G15G14G 9G19
  21030470.838    14669088.51744  11440362.68942  21030470.508    21030467.647
  24038001.876    36366884.78743  28335539.49042  24038001.216    24038005.133
  22679373.206    -5131806.25443  -3977899.23342  22679373.441    22679375.513
  22909446.979    30770704.87743  23977114.93442  22909447.277    22909447.530
  23134033.968   -12719634.86643  -9864560.96042  23134034.290    23134035.686
  20398251.436    -8007360.97343  -6225080.43842  20398250.986    20398251.157
  20325430.646   -27069054.79943 -21031778.57542  20325431.524    20325429.979
  23553401.392    -9898899.14943  -7673951.29342  23553401.869    23553403.974
  22191461.336   -20579319.87943 -15978204.28642  22191461.463    22191460.495
 04  5 20 21 21  0.0000000  0  9G22G21G 3G18G31G15G14G 9G19
  21037171.219    14704299.33244  11467799.67742  21037170.902    21037168.049
  24057933.914    36471627.93043  28417157.30142  24057933.263    24057937.306
  22692502.713    -5062810.51643  -3924136.39942  22692502.969    22692505.045
  22923094.068    30842420.37843  24032997.07242  22923094.338    22923094.613
  23130539.827   -12737996.61143  -9878868.80642  23130540.214    23130541.580
  20407302.267    -7959798.62943  -6188018.91342  20407301.822    20407302.017
  20320910.666   -27092807.36043 -21050287.03442  20320911.561    20320910.003
  23561923.520    -9854114.93843  -7639054.49942  23561924.016    23561925.973
  22191937.501   -20576817.89643 -15976254.70742  22191937.568    22191936.647
 04  5 20 21 21 30.0000000  0  9G22G21G 3G18G31G15G14G 9G19
  21043908.861    14739705.86944  11495389.17542  21043908.551    21043905.709
  24077900.187    36576550.70443  28498915.08142  24077899.555    24077903.691
  22705696.416    -4993477.37143  -3870110.65242  22705696.720    22705698.794
  22936760.970    30914240.41743  24088960.66642  22936761.284    22936761.576
  23127155.741   -12755780.05943  -9892726.02742  23127156.140    23127157.521
  20416444.806    -7911754.41543  -6150581.91242  20416444.380    20416444.554
  20316490.906   -27116033.29243 -21068385.13242  20316491.831    20316490.245
  23570557.104    -9808744.24443  -7603700.71942  23570557.700    23570559.775
  22192524.760   -20573731.86643 -15973850.03342  22192524.843    22192523.925
 04  5 20 21 22  0.0000000  0  9G22G21G 3G18G31G15G14G 9G19
  21050683.019    14775304.19044  11523128.11542  21050682.693    21050679.866
  24097899.607    36681647.80543  28580808.70342  24097899.116    24097903.262
  22718953.173    -4923813.24143  -3815826.99442  22718953.465    22718955.515
  22950447.072    30986161.11843  24145002.69342  22950447.385    22950447.701
  23123881.003   -12772988.66543  -9906135.33142  23123881.413    23123882.865
  20425678.294    -7863232.37443  -6112772.57642  20425677.845    20425678.051
  20312170.640   -27138736.45143 -21086075.87742  20312171.541    20312169.933
  23579301.429    -9762791.97143  -7567893.75542  23579302.063    23579304.262
  22193222.431   -20570065.90243 -15970993.46742  22193222.461    22193221.571
 04  5 20 21 22 30.0000000  0  9G22G21G 3G18G31G15G14G 9G19
  21057493.306    14811092.44044  11551015.05042  21057492.986    21057490.163
  24117931.759    36786916.18543  28662835.79142  24117931.131    24117935.350
  22732272.102    -4853822.26043  -3761288.64342  22732272.401    22732274.466
  22964151.979    31058180.59343  24201121.67742  22964152.323    22964152.586
  23120715.503   -12789623.42543  -9919097.45542  23120715.926    23120717.394
  20435002.309    -7814234.40243  -6074592.38242  20435001.864    20435002.097
  20307949.521   -27160918.47543 -21103360.54042  20307950.417    20307948.803
  23588156.127    -9716261.10243  -7531635.91642  23588156.601    23588158.637
  22194030.054   -20565821.86543 -15967686.44842  22194030.106    22194029.225
 04  5 20 21 23  0.0000000  0  9G22G21G 3G18G31G15G14G 9G19
  21064340.780    14847076.08544  11579054.24742  21064340.454    21064337.636
  24137997.258    36892360.09943  28744999.65942  24137996.600    24138000.899
  22745653.860    -4783500.94243  -3706492.87942  22745654.200    22745656.218
  22977876.737    31130304.43643  24257322.00542  22977877.060    22977877.386
  23117660.332   -12805678.42843  -9931607.84542  23117660.738    23117662.241
  20444417.968    -7764755.05643  -6036037.09342  20444417.507    20444417.757
  20303828.701   -27182573.41943 -21120234.49442  20303829.605    20303827.969
  23597121.626    -9669147.13743  -7494923.72542  23597122.140    23597124.127
  22194948.736   -20560994.29143 -15963924.72942  22194948.781    22194947.921
 04  5 20 21 23 30.0000000  0  9G22G21G 3G18G31G15G14G 9G19
  21071224.254    14883248.92144  11607240.86142  21071223.933    21071221.102
  24158094.708    36997972.28043  28827294.61442  24158094.155    24158098.442
  22759096.738    -4712858.40543  -3651446.82642  22759097.081    22759099.137
  22991620.167    31202526.31243  24313598.70542  22991620.519    22991620.823
  23114714.440   -12821159.06243  -9943670.67642  23114714.867    23114716.444
  20453923.949    -7714800.95843  -5997111.86942  20453923.478    20453923.746
  20299807.021   -27203707.50543 -21136702.58542  20299807.895    20299806.255
  23606196.780    -9621457.35843  -7457762.85442  23606197.290    23606199.332
  22195977.280   -20555589.40043 -15959713.15942  22195977.339    22195976.492
 04  5 20 21 24  0.0000000  0  9G22G21G 3G18G31G15G14G 9G19
  21078143.651    14919610.57444  11635574.60442  21078143.332    21078140.496
  24178223.925    37103751.13543  28909719.45842  24178223.366    24178227.716
  22772600.282    -4641897.33943  -3596152.58342  22772600.571    22772602.685
  23005382.335    31274846.40743  24369951.95542  23005382.694    23005382.950
  23111877.862   -12836065.54043  -9955286.08342  23111878.299    23111879.821
  20463520.202    -7664372.45743  -5957816.98242  20463519.720    20463520.021
  20295884.390   -27224320.90843 -21152764.95042  20295885.293    20295883.624
  23615380.965    -9573193.22443  -7420154.43242  23615381.611    23615383.550
  22197115.529   -20549608.00843 -15955052.35842  22197115.600    22197114.719
 04  5 20 21 24 30.0000000  0  9G22G21G 3G18G31G15G14G 9G19
  21085099.636    14956164.46444  11664058.14342  21085099.309    21085096.489
  24198385.308    37209699.05343  28992276.03142  24198384.843    24198389.225
  22786164.624    -4570616.27743  -3540608.97942  22786164.941    22786167.148
  23019163.856    31347268.37843  24426384.56642  23019164.194    23019164.451
  23109151.259   -12850393.63943  -9966450.83742  23109151.770    23109153.257
  20473207.431    -7613465.81443  -5918149.51542  20473206.952    20473207.293
  20292061.603   -27244409.81143 -21168418.61542  20292062.471    20292060.822
  23624675.068    -9524352.19243  -7382096.46142  23624675.796    23624677.758
  22198364.168   -20543046.51343 -15949939.53442  22198364.248    22198363.357
 04  5 20 21 25  0.0000000  0  9G22G21G 3G18G31G15G14G 9G19
  21092091.740    14992908.10944  11692689.53742  21092091.403    21092088.556
  24218578.245    37315812.17243  29074961.33242  24218577.814    24218582.084
  22799788.961    -4499020.13043  -3484819.86942  22799789.249    22799791.509
  23032964.232    31419789.31543  24482894.32642  23032964.592    23032964.816
  23106534.480   -12864145.26643  -9977166.41342  23106534.938    23106536.401
  20482985.158    -7562083.73643  -5878111.58042  20482984.658    20482985.010
  20288338.187   -27263976.44443 -21183665.32042  20288339.077    20288337.391
  23634078.421    -9474938.02243  -7343591.89642  23634079.000    23634080.937
  22199722.613   -20535907.92543 -15944377.03442  22199722.713    22199721.804
 04  5 20 21 25 30.0000000  0  9G22G21G 3G18G31G15G14G 9G19
  21099119.984    15029841.74244  11721468.97942  21099119.673    21099116.793
  24238802.435    37422089.74043  29157774.79042  24238802.024    24238806.209
  22813472.847    -4427111.18543  -3428787.01942  22813473.119    22813475.428
  23046783.478    31492409.81143  24539481.61942  23046783.883    23046784.102
  23104027.366   -12877320.22143  -9987432.62942  23104027.859    23104029.317
  20492853.292    -7510226.38443  -5837703.30242  20492852.815    20492853.196
  20284714.201   -27283020.59143 -21198504.89642  20284715.097    20284713.380
  23643590.420    -9424951.80243  -7304641.58642  23643591.001    23643592.874
  22201190.938   -20528192.21343 -15938364.82142  22201191.042    22201190.065
 04  5 20 21 26  0.0000000  0  9G22G21G 3G18G31G15G14G 9G19
  21106184.546    15066966.27843  11750397.17142  21106184.248    21106181.383
  24259057.857    37528531.48143  29240716.15042  24259057.338    24259061.690
  22827215.968    -4354891.01543  -3372511.65542  22827216.203    22827218.558
  23060621.897    31565130.53443  24596147.04942  23060622.225    23060622.566
  23101630.301   -12889916.63943  -9997248.01142  23101630.854    23101632.332
  20502812.076    -7457892.84643  -5796923.96742  20502811.579    20502811.975
  20281189.854   -27301541.09543 -21212936.43842  20281190.750    20281189.026
  23653211.265    -9374393.55943  -7265245.55042  23653211.895    23653213.719
  22202769.235   -20519898.44443 -15931902.17542  22202769.350    22202768.315
 04  5 20 21 26 30.0000000  0  9G22G21G 3G18G31G15G14G 9G19
  21113284.227    15104275.38843  11779469.18742  21113283.931    21113281.090
  24279342.923    37635129.47543  29323779.26642  24279342.399    24279346.851
  22841016.640    -4282368.33643  -3316000.56942  22841016.886    22841019.259
  23074478.218    31637945.63343  24652885.99142  23074478.518    23074478.918
  23099342.336   -12901940.39843 -10006617.18142  23099342.853    23099344.276
  20512860.263    -7405089.40343  -5755778.47142  20512859.788    20512860.172
  20277763.942   -27319544.20443 -21226964.81542  20277764.838    20277763.156
  23662939.436    -9323270.62143  -7225409.47542  23662940.208    23662942.031
  22204456.281   -20511033.15443 -15924994.18942  22204456.409    22204455.341
 04  5 20 21 27  0.0000000  0 10G22G21G 3G18G11G31G15G14G 9G19
  21120419.503    15141771.36243  11808686.81142  21120419.195    21120416.342
  24299657.981    37741885.10343  29406965.22442  24299657.555    24299661.975
  22854874.845    -4209543.29343  -3259253.88742  22854875.110    22854877.474
  23088352.909    31710857.21643  24709700.11342  23088353.235    23088353.612
  24627515.489    -4673256.85853  -3578254.45352  24627516.477    24627517.649
  23097163.696   -12913389.28943 -10015538.41442  23097164.166    23097165.587
  20522998.211    -7351814.30743  -5714265.45342  20522997.739    20522998.136
  20274436.946   -27337027.55143 -21240588.18442  20274437.867    20274436.146
  23672775.552    -9271582.35743  -7185132.89642  23672776.250    23672778.021
  22206252.448   -20501594.65143 -15917639.54142  22206252.551    22206251.453
 04  5 20 21 27 30.0000000  0 11G22G21G 3G18G11G31G15G14G25G 9G19
  21127591.631    15179461.07243  11838055.39842  21127591.310    21127588.458
  24320004.156    37848803.66143  29490278.11242  24320003.710    24320008.234
  22868791.427    -4136411.64043  -3202268.27742  22868791.681    22868794.076
  23102247.283    31783872.23443  24766594.86642  23102247.604    23102247.993
  24608384.243    -4773792.05543  -3656593.51542  24608385.315    24608386.451
  23095095.780   -12924255.68343 -10024005.73042  23095096.367    23095097.783
  20533227.120    -7298061.08943  -5672379.86542  20533226.675    20533227.074
  20271210.136   -27353984.43743 -21253801.32242  20271211.070    20271209.347
  24508912.236    -5610210.20653  -4094554.51252  24508913.950    24508922.626
  23682720.068    -9219323.14543  -7144411.42942  23682720.869    23682722.780
  22208158.843   -20491576.48543 -15909833.21242  22208158.976    22208157.857
 04  5 20 21 28  0.0000000  0 11G22G21G 3G18G11G31G15G14G25G 9G19
  21134796.895    15217324.79243  11867559.57842  21134796.556    21134793.688
  24340377.402    37955864.53543  29573701.90042  24340376.872    24340381.532
  22882762.187    -4062995.24543  -3145060.79342  22882762.442    22882764.857
  23116157.591    31856971.20743  24823555.00342  23116157.954    23116158.383
  24589267.175    -4874253.20743  -3734874.96642  24589268.156    24589268.958
  23093135.137   -12934559.25843 -10032034.48942  23093135.686    23093137.079
  20543543.269    -7243849.52943  -5630137.13342  20543542.834    20543543.256
  20268079.810   -27370434.51843 -21266619.54842  20268080.728    20268078.987
  24489551.386    -5711950.58043  -4173832.33642  24489553.102    24489561.674
  23692769.452    -9166514.02043  -7103261.44642  23692770.152    23692771.902
  22210171.839   -20480998.37643 -15901590.56342  22210171.977    22210170.805
 04  5 20 21 28 30.0000000  0 11G22G21G 3G18G11G31G15G14G25G 9G19
  21142040.493    15255390.12643  11897220.86342  21142040.193    21142037.303
  24360782.661    38063094.13843  29657257.16942  24360782.113    24360786.844
  22896791.931    -3989268.93743  -3087611.82742  22896792.200    22896794.564
  23130089.098    31930181.37243  24880601.81642  23130089.467    23130089.846
  24570169.903    -4974610.10243  -3813075.27042  24570170.898    24570171.771
  23091286.857   -12944272.04943 -10039602.91142  23091287.417    23091288.778
  20553951.807    -7189152.38143  -5587516.01642  20553951.396    20553951.843
  20265051.161   -27386350.13043 -21279021.30342  20265052.080    20265050.318
  24470187.713    -5813705.56543  -4253121.52942  24470189.451    24470197.938
  23702928.171    -9113128.26843  -7061662.14442  23702929.070    23702930.767
  22212296.525   -20469833.35643 -15892890.58342  22212296.636    22212295.445
 04  5 20 21 29  0.0000000  0 11G22G21G 3G18G11G31G15G14G25G 9G19
  21149319.142    15293639.54443  11927025.58942  21149318.823    21149315.940
  24381216.532    38170473.49243  29740929.11742  24381215.941    24381220.564
  22910876.817    -3915252.69343  -3029936.93242  22910877.097    22910879.482
  23144038.549    32003485.82543  24937722.09042  23144038.931    23144039.280
  24551089.592    -5074877.58643  -3891205.63542  24551090.584    24551091.679
  23089547.679   -12953411.47543 -10046724.56842  23089548.265    23089549.607
  20564449.415    -7133987.27743  -5544530.26142  20564449.015    20564449.475
  20262120.926   -27401748.56143 -21291020.06042  20262121.831    20262120.074
  24450818.498    -5915489.78143  -4332433.51042  24450820.244    24450828.693
  23713193.266    -9059185.14043  -7019628.54542  23713194.018    23713195.846
  22214529.486   -20458099.35943 -15883747.24342  22214529.603    22214528.386
 04  5 20 21 29 30.0000000  0 11G22G21G 3G18G11G31G15G14G25G 9G19
  21156633.430    15332076.29143  11956976.28442  21156633.116    21156630.229
  24401679.155    38278004.46043  29824719.19042  24401678.461    24401683.266
  22925017.016    -3840945.97343  -2972035.69942  22925017.268    22925019.674
  23158006.452    32076887.60743  24994918.20342  23158006.871    23158007.296
  24532027.261    -5175050.40743  -3969262.22042  24532028.261    24532029.235
  23087918.384   -12961973.63443 -10053396.38142  23087918.954    23087920.308
  20575036.626    -7078351.35443  -5501177.63342  20575036.219    20575036.690
  20259289.676   -27416626.81443 -21302613.48442  20259290.570    20259288.825
  24431445.030    -6017296.97443  -4411763.38842  24431446.743    24431455.072
  23723564.845    -9004682.56243  -6977158.98942  23723565.562    23723567.338
  22216871.180   -20445793.74843 -15874158.49542  22216871.338    22216870.106
 04  5 20 21 30  0.0000000  0 11G22G21G 3G18G11G31G15G14G25G 9G19
  21163983.104    15370698.96943  11987071.86342  21163982.794    21163979.904
  24422170.204    38385684.34243  29908625.30742  24422169.498    24422174.380
  22939211.742    -3766352.69443  -2913911.16042  22939212.007    22939214.393
  23171992.753    32150385.65543  25052189.31642  23171993.154    23171993.594
  24512983.174    -5275127.76943  -4047244.55142  24512984.218    24512984.982
  23086398.588   -12969960.15543 -10059619.64242  23086399.183    23086400.546
  20585713.097    -7022246.29743  -5457459.44342  20585712.704    20585713.170
  20256557.118   -27430986.46943 -21313802.80542  20256558.006    20256556.249
  24412067.357    -6119125.71343  -4491110.03942  24412069.108    24412077.348
  23734042.244    -8949623.50143  -6934255.82742  23734042.982    23734044.568
  22219321.299   -20432918.34743 -15864125.75142  22219321.462    22219320.248
 04  5 20 21 30 30.0000000  0 11G22G21G 3G18G11G31G15G14G25G 9G19
  21171368.071    15409507.20343  12017312.02642  21171367.788    21171364.901
  24442689.393    38493511.57943  29992646.25542  24442688.654    24442693.517
  22953460.409    -3691475.63843  -2855565.50842  22953460.719    22953463.129
  23185997.208    32223979.47143  25109535.07442  23185997.645    23185998.119
  24493957.482    -5375107.66443  -4125150.85342  24493958.523    24493959.442
  23084988.346   -12977371.37343 -10065394.63342  23084988.855    23084990.251
  20596478.642    -6965672.98343  -5413376.38142  20596478.291    20596478.769
  20253923.156   -27444827.89043 -21324588.30842  20253924.066    20253922.279
  24392686.148    -6220973.16743  -4570471.26542  24392687.924    24392695.990
  23744625.123    -8894009.83543  -6890920.50542  23744625.935    23744627.544
  22221879.689   -20419474.04843 -15853649.71242  22221879.827    22221878.675
 04  5 20 21 31  0.0000000  0 11G22G21G 3G18G11G31G15G14G25G 9G19
  21178788.117    15448499.84043  12047695.88042  21178787.843    21178784.992
  24463236.022    38601483.86943  30076780.21242  24463235.266    24463240.300
  22967762.447    -3616318.46843  -2797001.59342  22967762.713    22967765.160
  23200019.690    32297667.91343  25166954.56142  23200020.107    23200020.646
  24474950.748    -5474988.42343  -4202979.88142  24474951.834    24474952.771
  23083687.523   -12984207.53443 -10070721.52742  23083688.026    23083689.351
  20607333.084    -6908632.73343  -5368929.47342  20607332.732    20607333.207
  20251387.610   -27458152.22143 -21334970.88442  20251388.532    20251386.733
  24373301.694    -6322837.57943  -4649845.70242  24373303.446    24373311.463
  23755313.038    -8837843.78243  -6847154.76742  23755313.828    23755315.743
  22224546.032   -20405462.31043 -15842731.51342  22224546.184    22224545.074
 04  5 20 21 31 30.0000000  0 10G22G 3G18G11G31G15G14G25G 9G19
  21186244.705    15487684.44643  12078229.31842  21186244.435    21186241.607
  22982118.734    -3540876.02043  -2738215.37542  22982119.023    22982121.521
  23214061.678    32371458.59743  25224453.72142  23214062.067    23214062.668
  24455964.683    -5574760.64343  -4280724.41542  24455965.872    24455966.661
  23082497.424   -12990461.64143 -10075594.86542  23082497.898    23082499.228
  20618277.700    -6851118.54643  -5324113.26542  20618277.362    20618277.842
  20248951.838   -27470952.14043 -21344944.82742  20248952.773    20248950.964
  24353916.027    -6424708.52043  -4729225.20342  24353917.765    24353925.579
  23766107.479    -8781119.40143  -6802953.94042  23766108.149    23766110.032
  22227321.690   -20390876.43443 -15831365.93442  22227321.823    22227320.731
 04  5 20 21 32  0.0000000  0 10G22G 3G18G11G31G15G14G25G 9G19
  21193735.482    15527048.62443  12108902.68542  21193735.194    21193732.380
  22996526.365    -3465163.69943  -2679218.87442  22996526.664    22996529.234
  23228120.716    32445339.04443  25282022.81442  23228121.120    23228121.762
  24436997.471    -5674433.92143  -4358391.83242  24436998.474    24436999.442
  23081415.706   -12996145.88543 -10080024.15042  23081416.236    23081417.563
  20629310.011    -6793143.45543  -5278937.91342  20629309.689    20629310.186
  20246613.436   -27483240.44743 -21354520.11242  20246614.376    20246612.564
  24334527.327    -6526595.33943  -4808617.06742  24334529.181    24334536.663
  23777005.211    -8723850.76443  -6758329.05542  23777005.879    23777007.837
  22230204.123   -20375729.32043 -15819563.03042  22230204.256    22230203.186
 04  5 20 21 32 30.0000000  0 10G22G 3G18G11G31G15G14G25G 9G19
  21201261.089    15566595.79343  12139718.64042  21201260.801    21201257.979
  23010985.580    -3389180.40643  -2620011.22242  23010985.908    23010988.447
  23242197.470    32519312.68443  25339664.53842  23242197.952    23242198.558
  24418050.033    -5774002.58443  -4435977.71142  24418051.078    24418052.047
  23080443.079   -13001256.97043 -10084006.82542  23080443.598    23080444.944
  20640430.637    -6734704.39943  -5233401.03242  20640430.327    20640430.807
  20244373.063   -27495013.74443 -21363694.09242  20244373.980    20244372.166
  24315136.768    -6628491.46643  -4888016.18442  24315138.664    24315146.007
  23788007.157    -8666036.07643  -6713278.64142  23788007.832    23788009.549
  22233193.820   -20360018.47143 -15807320.85642  22233193.948    22233192.918
 04  5 20 21 33  0.0000000  0 10G22G 3G18G11G31G15G14G25G 9G19
  21208822.055    15606328.84243  12170679.43642  21208821.768    21208818.930
  23025496.502    -3312925.31143  -2560591.78142  23025496.834    23025499.415
  23256292.587    32593382.74743  25397381.35742  23256293.070    23256293.705
  24399123.646    -5873461.10643  -4513477.76542  24399124.795    24399125.565
  23079580.086   -13005791.73443 -10087540.41042  23079580.575    23079582.017
  20651640.107    -6675798.55043  -5187500.42142  20651639.782    20651640.265
  20242231.242   -27506269.03043 -21372464.42642  20242232.179    20242230.357
  24295745.545    -6730391.07843  -4967418.00142  24295747.440    24295754.739
  23799112.929    -8607673.50743  -6667801.34442  23799113.811    23799115.622
  22236291.379   -20343741.06043 -15794637.20442  22236291.503    22236290.461
 04  5 20 21 33 30.0000000  0 10G22G 3G18G11G31G15G14G25G 9G19
  21216417.569    15646243.26443  12201781.56142  21216417.252    21216414.387
  23040057.785    -3236405.85743  -2500966.34942  23040058.099    23040060.674
  23270405.277    32667544.66243  25455169.77842  23270405.693    23270406.435
  24380217.738    -5972811.98043  -4590893.97042  24380218.847    24380219.656
  23078825.931   -13009754.56843 -10090628.34442  23078826.433    23078827.966
  20662937.371    -6616431.26543  -5141240.24642  20662937.052    20662937.526
  20240187.034   -27517011.41743 -21380835.09742  20240187.958    20240186.144
  24276353.381    -6832295.59343  -5046823.64942  24276355.189    24276362.554
  23810322.175    -8548769.35943  -6621902.00642  23810322.957    23810324.694
  22239495.674   -20326902.56343 -15781516.34742  22239495.763    22239494.788
 04  5 20 21 34  0.0000000  0 10G22G 3G18G11G31G15G14G25G 9G19
  21224048.585    15686344.42343  12233029.19242  21224048.291    21224045.407
  23054669.874    -3159619.23343  -2441132.74442  23054670.182    23054672.784
  23284536.421    32741804.18443  25513034.24742  23284536.874    23284537.646
  24361333.777    -6072047.60143  -4668220.33242  24361334.803    24361335.617
  23078181.595   -13013140.50043 -10093266.75042  23078182.133    23078183.712
  20674323.381    -6556597.69643  -5094616.73842  20674323.060    20674323.517
  20238241.470   -27527235.48743 -21388801.88742  20238242.405    20238240.547
  24256961.886    -6934196.94943  -5126226.84642  24256963.617    24256971.004
  23821635.087    -8489320.04843  -6575577.91142  23821635.821    23821637.567
  22242807.590   -20309498.53843 -15767954.81742  22242807.705    22242806.719
 04  5 20 21 34 30.0000000  0 10G22G 3G18G11G31G15G14G25G 9G19
  21231713.754    15726625.07643  12264416.69642  21231713.470    21231710.586
  23069330.955    -3082575.03643  -2381098.43342  23069331.317    23069333.904
  23298684.824    32816153.75043  25570968.88642  23298685.203    23298685.992
  24342470.973    -6171171.98643  -4745460.03742  24342472.037    24342472.862
  23077645.811   -13015956.53143 -10095461.07042  23077646.291    23077647.839
  20685796.663    -6496305.40243  -5047635.77942  20685796.348    20685796.793
  20236393.070   -27536948.89543 -21396370.76042  20236394.004    20236392.114
  24237570.151    -7036099.28943  -5205630.81142  24237571.895    24237579.257
  23833049.991    -8429334.20643  -6528835.73042  23833050.751    23833052.598
  22246225.678   -20291536.66343 -15753958.59642  22246225.789    22246224.800
 04  5 20 21 35  0.0000000  0 10G22G 3G18G11G31G15G14G25G 9G19
  21239413.761    15767088.82243  12295946.86442  21239413.508    21239410.584
  23084041.327    -3005272.07843  -2320862.50042  23084041.723    23084044.284
  23312851.044    32890597.39943  25628976.81242  23312851.413    23312852.238
  24323630.440    -6270179.58443  -4822608.74542  24323631.480    24323632.253
  23077219.039   -13018199.24543 -10097208.64742  23077219.551    23077221.086
  20697357.838    -6435551.27943  -5000294.95242  20697357.496    20697357.959
  20234642.513   -27546148.11543 -21403538.96942  20234643.435    20234641.554
  24218179.538    -7137995.62843  -5285030.11242  24218181.342    24218188.502
  23844567.554    -8368809.84643  -6481673.91842  23844568.270    23844569.986
  22249750.440   -20273014.04943 -15739525.43642  22249750.586    22249749.578
 04  5 20 21 35 30.0000000  0 10G22G 3G18G11G31G15G14G25G 9G19
  21247148.533    15807735.38243  12327619.48942  21247148.299    21247145.382
  23098800.308    -2927713.73743  -2260427.55542  23098800.682    23098803.293
  23327035.069    32965134.61343  25687057.67242  23327035.481    23327036.265
  24304812.354    -6369068.37843  -4899664.88142  24304813.449    24304814.275
  23076901.286   -13019869.15443 -10098509.89642  23076901.789    23076903.286
  20709006.709    -6374336.25343  -4952594.98042  20709006.374    20709006.817
  20232989.595   -27554834.12343 -21410307.27142  20232990.530    20232988.656
  24198790.575    -7239883.57043  -5364422.88642  24198792.385    24198799.548
  23856186.871    -8307749.14443  -6434094.18842  23856187.656    23856189.636
  22253381.629   -20253932.07943 -15724656.40942  22253381.787    22253380.782
 04  5 20 21 36  0.0000000  0 10G22G 3G18G11G31G15G14G25G 9G19
  21254918.183    15848565.03643  12359434.78542  21254917.929    21254915.032
  23113607.422    -2849902.19343  -2199795.30542  23113607.791    23113610.461
  23341237.050    33039765.70243  25745211.66842  23341237.450    23341238.202
  24286017.566    -6467835.66043  -4976626.32142  24286018.689    24286019.419
  23076692.533   -13020966.02743 -10099364.62342  23076693.072    23076694.569
  20720743.224    -6312660.65943  -4904536.12642  20720742.893    20720743.335
  20231434.428   -27563006.62743 -21416675.43942  20231435.342    20231433.468
  24179403.906    -7341759.88843  -5443806.60642  24179405.672    24179412.731
  23867908.352    -8246153.48243  -6386097.57042  23867909.159    23867910.799
  22257119.208   -20234291.13543 -15709351.82042  22257119.370    22257118.380
 04  5 20 21 36 30.0000000  0 10G22G 3G18G11G31G15G14G25G 9G19
  21262722.627    15889577.57343  12391392.58942  21262722.368    21262719.483
  23128462.232    -2771840.33543  -2138968.00442  23128462.586    23128465.293
  23355456.796    33114490.71043  25803438.86542  23355457.248    23355457.886
  24267246.242    -6566479.20443  -5053491.35742  24267247.395    24267248.097
  23076592.780   -13021490.45643 -10099773.27942  23076593.303    23076594.799
  20732567.243    -6250525.25143  -4856118.97342  20732566.909    20732567.356
  20229976.803   -27570666.47443 -21422644.13642  20229977.722    20229975.827
  24160019.906    -7443621.77343  -5523179.11242  24160021.666    24160028.643
  23879730.800    -8184024.90743  -6337685.73942  23879731.796    23879733.507
  22260962.941   -20214092.28943 -15693612.50042  22260963.094    22260962.131
 04  5 20 21 37  0.0000000  0 10G22G 3G18G11G31G15G14G25G 9G19
  21270560.526    15930765.86643  12423487.34842  21270560.248    21270557.402
  23143362.821    -2693537.77443  -2077953.13742  23143363.179    23143365.874
  23369693.090    33189302.36243  25861733.55242  23369693.530    23369694.200
  24248497.576    -6665003.77043  -5130263.68942  24248498.712    24248499.437
  23076600.477   -13021449.70243 -10099741.55342  23076601.067    23076602.563
  20744477.254    -6187937.91943  -4807349.68242  20744476.919    20744477.382
  20228615.308   -27577821.13843 -21428219.18542  20228616.212    20228614.326
  24140637.916    -7545473.37443  -5602543.61842  24140639.519    24140646.490
  23891653.433    -8121372.13343  -6288865.38642  23891654.373    23891656.121
  22264911.202   -20193343.96543 -15677445.01242  22264911.376    22264910.454
 04  5 20 21 37 30.0000000  0 10G22G 3G18G11G31G15G14G25G 9G19
  21278433.949    15972140.83943  12455727.56842  21278433.683    21278430.820
  23158310.801    -2614986.20043  -2016744.25142  23158311.144    23158313.806
  23383947.832    33264211.40543  25920104.13842  23383948.292    23383948.954
  24229774.195    -6763395.68743  -5206932.63442  24229775.359    24229776.110
  23076717.941   -13020833.02543 -10099261.05442  23076718.454    23076719.961
  20756475.254    -6124888.21143  -4758220.09442  20756474.925    20756475.396
  20227351.945   -27584459.96143 -21433392.27942  20227352.877    20227350.986
  24121260.580    -7647300.88443  -5681889.37142  24121262.113    24121268.901
  23903677.398    -8058185.97743  -6239629.46042  23903678.221    23903679.932
  22268966.052   -20172035.76443 -15660841.25942  22268966.191    22268965.295
 04  5 20 21 38  0.0000000  0 10G22G 3G18G11G31G15G14G25G 9G19
  21286341.700    16013696.17343  12488108.33442  21286341.420    21286338.560
  23173304.528    -2536194.60243  -1955348.32542  23173304.783    23173307.490
  23398219.940    33339211.82143  25978545.92742  23398220.421    23398221.101
  24211075.253    -6861659.24043  -5283501.56842  24211076.375    24211077.118
  23076943.626   -13019647.07243 -10098336.95342  23076944.137    23076945.666
  20768559.913    -6061383.16843  -4708735.69742  20768559.567    20768560.046
  20226185.455   -27590589.88643 -21438168.82942  20226186.378    20226184.491
  24101887.082    -7749107.68543  -5761218.98142  24101888.632    24101895.341
  23915801.310    -7994474.61843  -6189984.27442  23915802.122    23915803.927
  22273126.048   -20150175.15443 -15643807.05842  22273126.149    22273125.276
 04  5 20 21 38 30.0000000  0 10G22G 3G18G11G31G15G14G25G 9G19
  21294282.552    16055425.42643  12520624.62142  21294282.277    21294279.413
  23188342.121    -2457171.78243  -1893772.20542  23188342.427    23188345.171
  23412508.390    33414297.73143  26037054.34042  23412508.879    23412509.593
  24192399.993    -6959798.19643  -5359973.40742  24192401.102    24192401.824
  23077276.442   -13017898.46543 -10096974.42942  23077276.926    23077278.474
  20780729.833    -5997430.10643  -4658902.19342  20780729.483    20780729.958
  20225114.550   -27596217.60943 -21442554.05342  20225115.455    20225113.556
  24082516.986    -7850896.84743  -5840534.87642  24082518.466    24082525.028
  23928023.614    -7930246.13043  -6139936.12342  23928024.313    23928026.134
  22277389.817   -20127769.01743 -15626347.76542  22277389.936    22277389.042
 04  5 20 21 39  0.0000000  0 10G22G 3G18G11G31G15G14G25G 9G19
  21302258.891    16097341.43643  12553286.43642  21302258.643    21302255.766
  23203425.645    -2377907.78943  -1832008.16942  23203425.961    23203428.712
  23426815.502    33489481.47943  26095638.98342  23426815.926    23426816.672
  24173751.264    -7057797.64843  -5436336.54742  24173752.320    24173753.117
  23077718.668   -13015574.80243 -10095163.81342  23077719.149    23077720.642
  20792987.300    -5933016.96743  -4608710.19542  20792986.942    20792987.423
  20224141.523   -27601330.79643 -21446538.34042  20224142.461    20224140.534
  24063153.235    -7952652.75443  -5919824.88042  24063154.716    24063161.175
  23940346.320    -7865489.69443  -6089476.56942  23940347.091    23940348.892
  22281759.490   -20104806.23143 -15608454.72642  22281759.627    22281758.765
 04  5 20 21 39 30.0000000  0 10G22G 3G18G11G31G15G14G25G 9G19
  21310269.628    16139438.18943  12586089.08942  21310269.384    21310266.517
  23218553.407    -2298411.27143  -1770062.94142  23218553.733    23218556.544
  23441140.036    33564756.97943  26154295.13242  23441140.440    23441141.163
  24155128.470    -7155660.84843  -5512593.51742  24155129.598    24155130.363
  23078269.122   -13012682.50643 -10092910.09442  23078269.576    23078271.025
  20805331.069    -5868150.27043  -4558164.77042  20805330.722    20805331.207
  20223265.203   -27605935.81843 -21450126.65342  20223266.137    20223264.238
  24043795.256    -8054378.33743  -5999091.26842  24043796.749    24043802.955
  23952768.040    -7800213.08143  -6038611.70742  23952768.833    23952770.833
  22286233.884   -20081293.48443 -15590133.13542  22286233.982    22286233.146
 04  5 20 21 40  0.0000000  0 10G22G 3G18G11G31G15G14G25G 9G19
  21318313.886    16181710.87243  12619028.82542  21318313.633    21318310.769
  23233723.945    -2218689.59443  -1707942.25642  23233724.301    23233727.171
  23455481.202    33640120.01843  26213019.48742  23455481.687    23455482.357
  24136531.155    -7253390.04443  -5588746.05342  24136532.295    24136533.064
  23078926.742   -13009226.63943 -10090217.24742  23078927.275    23078928.639
  20817760.137    -5802835.35143  -4507270.08342  20817759.781    20817760.254
  20222484.551   -27610038.21343 -21453323.31142  20222485.480    20222483.565
  24024442.657    -8156075.41043  -6078335.45342  24024444.141    24024450.253
  23965287.614    -7734422.85543  -5987346.58942  23965288.435    23965290.124
  22290811.782   -20057236.74043 -15571387.65642  22290811.857    22290811.027
 04  5 20 21 40 30.0000000  0 10G22G 3G18G11G31G15G14G25G 9G19
  21326392.934    16224166.41643  12652111.04842  21326392.674    21326389.816
  23248938.179    -2138738.51643  -1645642.82442  23248938.561    23248941.529
  23469840.254    33715576.85343  26271816.93142  23469840.649    23469841.398
  24117961.026    -7350976.28943  -5664787.20242  24117962.293    24117963.005
  23079692.948   -13005200.71843 -10087080.19842  23079693.464    23079694.756
  20830275.636    -5737066.23343  -4456021.47642  20830275.291    20830275.755
  20221800.771   -27613631.49343 -21456123.25942  20221801.698    20221799.768
  24005097.466    -8257734.07043  -6157549.72042  24005098.836    24005104.871
  23977905.776    -7668114.03643  -5935677.40842  23977906.622    23977908.481
  22295494.359   -20032630.04543 -15552213.64242  22295494.425    22295493.577
 04  5 20 21 41  0.0000000  0 10G22G 3G18G11G31G15G14G25G 9G19
  21334505.360    16266797.55243  12685330.09842  21334505.127    21334502.278
  23264194.143    -2058568.05243  -1583172.46342  23264194.558    23264197.581
  23484215.828    33791120.62143  26330682.11242  23484216.240    23484216.993
  24099417.269    -7448424.09743  -5740720.46942  24099418.456    24099419.173
  23080566.055   -13000612.67243 -10083505.12742  23080566.585    23080567.814
  20842876.007    -5670851.08743  -4404425.32042  20842875.657    20842876.134
  20221212.388   -27616723.53743 -21458532.63542  20221213.308    20221211.355
  23985758.729    -8359358.71343  -6236737.49042  23985760.174    23985766.027
  23990620.748    -7601295.81543  -5883611.24542  23990621.595    23990623.384
  22300279.941   -20007481.89643 -15532617.71942  22300280.010    22300279.135
 04  5 20 21 41 30.0000000  0 10G22G 3G18G11G31G15G14G25G 9G19
  21342652.453    16309610.65743  12718690.94042  21342652.199    21342649.344
  23279492.598    -1978174.68143  -1520528.38842  23279492.994    23279496.014
  23498609.080    33866757.37243  26389619.75542  23498609.462    23498610.271
  24080901.440    -7545724.96543  -5816539.24442  24080902.595    24080903.340
  23081547.263   -12995456.42043 -10079487.30442  23081547.765    23081549.037
  20855562.319    -5604184.33543  -4352477.25942  20855561.944    20855562.454
  20220720.463   -27619308.60043 -21460546.96042  20220721.396    20220719.410
  23966428.292    -8460939.93343  -6315891.42442  23966429.667    23966435.430
  24003433.728    -7533963.94743  -5831144.87042  24003434.401    24003436.489
  22305169.536   -19981787.06143 -15512595.81142  22305169.630    22305168.724
 04  5 20 21 42  0.0000000  0 10G22G 3G18G11G31G15G14G25G 9G19
  21350833.006    16352599.68243  12752188.86442  21350832.773    21350829.898
  23294831.813    -1897566.96043  -1457717.28942  23294832.221    23294835.257
  23513018.923    33942481.60443  26448625.53942  23513019.367    23513020.232
  24062412.968    -7642882.32743  -5892246.20342  24062414.087    24062414.812
  23082635.362   -12989738.47243 -10075031.76542  23082635.823    23082637.155
  20868333.334    -5537072.53743  -4300182.41442  20868332.957    20868333.441
  20220323.817   -27621393.06043 -21462171.20642  20220324.744    20220322.736
  23947105.548    -8562480.43543  -6395013.62942  23947106.967    23947112.669
  24016342.751    -7466126.31743  -5778284.38442  24016343.516    24016345.515
  22310161.806   -19955552.74443 -15492153.52342  22310161.929    22310161.003
 04  5 20 21 42 30.0000000  0 10G22G 3G18G11G31G15G14G25G 9G19
  21359048.055    16395769.93143  12785828.00442  21359047.800    21359044.944
  23310212.368    -1816742.18543  -1394737.08242  23310212.701    23310215.805
  23527446.505    34018298.81343  26507703.79542  23527446.997    23527447.908
  24043953.267    -7739888.36543  -5967835.22942  24043954.474    24043955.140
  23083831.229   -12983454.21043 -10070134.97542  23083831.662    23083833.004
  20881189.899    -5469511.27843  -4247537.34542  20881189.506    20881190.013
  20220023.305   -27622972.24243 -21463401.73042  20220024.244    20220022.208
  23927792.021    -8663972.29743  -6474097.94742  23927793.555    23927799.073
  24029348.699    -7397779.59443  -5725027.18242  24029349.441    24029351.601
  22315257.511   -19928774.88143 -15471287.69742  22315257.638    22315256.695
 04  5 20 21 43  0.0000000  0 10G22G 3G18G11G31G15G14G25G 9G19
  21367296.281    16439114.60943  12819603.05742  21367296.046    21367293.180
  23325632.462    -1735709.60843  -1331594.90142  23325632.809    23325635.874
  23541890.510    34094201.98343  26566849.02642  23541890.957    23541891.920
  24025521.567    -7836747.52043  -6043309.81442  24025522.718    24025523.382
  23085133.498   -12976610.76343 -10064802.44142  23085133.917    23085135.328
  20894130.514    -5401508.20243  -4194548.00142  20894130.125    20894130.628
  20219817.528   -27624053.73243 -21464244.44342  20219818.457    20219816.398
  23908487.181    -8765419.34843  -6553147.36642  23908488.549    23908494.045
  24042449.887    -7328932.60343  -5671380.16742  24042450.438    24042452.608
  22320455.156   -19901461.19143 -15450004.34542  22320455.322    22320454.401
 04  5 20 21 43 30.0000000  0 10G22G 3G18G11G31G15G14G25G 9G19
  21375578.815    16482639.46743  12853518.51142  21375578.589    21375575.702
  23341092.567    -1654466.49343  -1268288.69642  23341092.949    23341095.992
  23556351.921    34170196.80343  26626065.67242  23556352.436    23556353.374
  24007119.323    -7933451.69143  -6118663.62542  24007120.433    24007121.129
  23086543.151   -12969203.32843 -10059030.44842  23086543.526    23086544.926
  20907156.042    -5333058.73343  -4141210.82042  20907155.677    20907156.193
  20219707.420   -27624632.43343 -21464695.37342  20219708.338    20219706.250
  23889192.461    -8866812.93043  -6632155.11542  23889193.814    23889199.230
  24055646.742    -7259581.83343  -5617340.63342  24055647.413    24055649.752
  22325755.530   -19873607.49243 -15428300.20742  22325755.737    22325754.824
 04  5 20 21 44  0.0000000  0 10G22G 3G18G11G31G15G14G25G 9G19
  21383894.818    16526340.22043  12887571.02342  21383894.579    21383891.701
  23356591.465    -1573019.54743  -1204823.66442  23356591.855    23356594.956
  23570829.997    34246279.06743  26685350.46242  23570830.444    23570831.405
  23988746.248    -8030002.77543  -6193898.16842  23988747.323    23988747.907
  23088059.192   -12961236.54643 -10052822.59842  23088059.557    23088060.957
  20920265.566    -5264168.11043  -4087529.88642  20920265.170    20920265.708
  20219691.994   -27624713.48643 -21464758.52542  20219692.935    20219690.817
  23869907.711    -8968154.19743  -6711122.10242  23869909.003    23869914.338
  24068938.562    -7189733.48543  -5562913.33242  24068939.240    24068941.303
  22331157.674   -19845219.19243 -15406179.50242  22331157.859    22331157.004
 04  5 20 21 44 30.0000000  0 10G22G 3G18G11G31G15G14G25G 9G19
  21392245.153    16570221.38243  12921764.11942  21392244.916    21392242.022
  23372129.480    -1491367.26443  -1141198.64042  23372129.852    23372132.970
  23585325.460    34322453.30943  26744706.91042  23585325.949    23585327.002
  23970403.543    -8126393.83243  -6269007.98742  23970404.668    23970405.210
  23089682.398   -12952706.63143 -10046175.93442  23089682.774    23089684.164
  20933459.695    -5194832.67343  -4033502.34642  20933459.301    20933459.877
  20219772.015   -27624292.92043 -21464430.80342  20219772.962    20219770.825
  23850634.388    -9069435.38543  -6790042.29042  23850635.706    23850640.938
  24082325.536    -7119385.09243  -5508096.42042  24082326.209    24082328.170
  22336662.126   -19816293.26243 -15383639.86742  22336662.308    22336661.494
 04  5 20 21 45  0.0000000  0 10G22G 3G18G11G31G15G14G25G 9G19
  21400628.206    16614274.47743  12956091.18842  21400627.979    21400625.079
  23387704.470    -1409520.52543  -1077422.08342  23387704.832    23387708.001
  23599836.892    34398711.17743  26804128.52442  23599837.430    23599838.565
  23952090.273    -8222630.62743  -6343997.62642  23952091.327    23952091.843
  23091411.077   -12943622.65843 -10039097.52542  23091411.427    23091412.788
  20946736.778    -5125061.47343  -3979135.25742  20946736.370    20946736.971
  20219945.784   -27623379.74843 -21463719.23442  20219946.736    20219944.600
  23831371.447    -9170662.13643  -6868920.06242  23831372.810    23831377.924
  24095805.536    -7048546.94243  -5452897.85942  24095806.252    24095808.029
  22342267.040   -19786839.47543 -15360688.91742  22342267.185    22342266.388
 04  5 20 21 45 30.0000000  0 10G22G 3G18G11G31G15G14G25G 9G19
  21409045.754    16658508.96043  12990559.59842  21409045.519    21409042.659
  23403317.791    -1327472.85043  -1013488.94942  23403318.091    23403321.288
  23614365.965    34475061.81243  26863622.43342  23614366.544    23614367.688
  23933808.513    -8318701.49943  -6418857.95942  23933809.693    23933810.079
  23093246.760   -12933976.02343 -10031580.67942  23093247.144    23093248.512
  20960098.341    -5054846.35243  -3924422.26142  20960097.932    20960098.541
  20220214.925   -27621965.43943 -21462617.16842  20220215.879    20220213.721
  23812121.143    -9271822.21043  -6947745.87842  23812122.472    23812127.557
  24109380.255    -6977211.88643  -5397312.11542  24109380.980    24109382.705
  22347973.970   -19756849.59143 -15337320.22542  22347974.117    22347973.323
 04  5 20 21 46  0.0000000  0 10G22G 3G18G11G31G15G14G25G 9G19
  21417496.342    16702917.06743  13025163.29642  21417496.103    21417493.261
  23418967.289    -1245234.72043   -949407.41042  23418967.691    23418970.803
  23628911.306    34551497.62843  26923182.69942  23628911.877    23628913.046
  23915557.301    -8414611.70043  -6493593.10642  23915558.490    23915558.971
  23095187.893   -12923775.03543 -10023631.89642  23095188.334    23095189.708
  20973542.744    -4984195.91943  -3869370.05742  20973542.328    20973542.962
  20220577.807   -27620058.43043 -21461131.17642  20220578.760    20220576.632
  23792882.638    -9372920.10843  -7026523.25242  23792883.924    23792888.980
  24123047.486    -6905389.84343  -5341346.90642  24123048.249    24123049.952
  22353781.178   -19726332.76143 -15313540.91942  22353781.332    22353780.550
 04  5 20 21 46 30.0000000  0 10G22G 3G18G11G31G15G14G25G 9G19
  21425981.323    16747505.86143  13059907.79242  21425981.102    21425978.248
  23434653.869    -1162801.92743   -885174.19842  23434654.252    23434657.348
  23643474.273    34628025.94843  26982815.02042  23643474.867    23643476.110
  23897338.522    -8510351.68643  -6568195.62242  23897339.704    23897340.173
  23097235.791   -12913013.51543 -10015246.32642  23097236.208    23097237.606
  20987071.145    -4913103.92843  -3813973.78642  20987070.750    20987071.420
  20221035.676   -27617652.16643 -21459256.15442  20221036.638    20221034.520
  23773657.818    -9473945.91543  -7105244.46642  23773659.120    23773664.115
  24136808.444    -6833075.50143  -5284998.07042  24136809.210    24136811.052
  22359689.763   -19695283.23143 -15289346.52942  22359689.898    22359689.108
 04  5 20 21 47  0.0000000  0 10G22G 3G18G11G31G15G14G25G 9G19
  21434498.905    16792266.05743  13094785.84542  21434498.686    21434495.854
  23450375.219    -1080186.38043   -820798.57442  23450375.590    23450378.694
  23658053.075    34704637.41243  27042512.17742  23658053.644    23658054.802
  23879150.776    -8605928.50843  -6642670.99842  23879151.910    23879152.418
  23099388.387   -12901701.57643 -10006431.86542  23099388.801    23099390.246
  21000681.561    -4841581.07943  -3758241.76842  21000681.165    21000681.851
  20221586.594   -27614756.94943 -21457000.12842  20221587.572    20221585.459
  23754445.590    -9574905.83743  -7183914.33242  23754446.974    23754451.834
  24150660.832    -6760280.52343  -5228274.70942  24150661.558    24150663.582
  22365697.652   -19663711.80443 -15264745.46742  22365697.768    22365696.999
 04  5 20 21 47 30.0000000  0 10G22G 3G18G11G31G15G14G25G 9G19
  21443050.101    16837202.89243  13129801.53842  21443049.894    21443047.079
  23466131.842     -997385.30243   -756278.39042  23466132.251    23466135.374
  23672648.732    34781337.28543  27102278.21142  23672649.228    23672650.441
  23860995.659    -8701334.23143  -6717013.04842  23860996.766    23860997.249
  23101646.588   -12889834.64743  -9997184.96642  23101647.018    23101648.505
  21014374.852    -4769622.73143  -3702170.40442  21014374.439    21014375.143
  20222231.424   -27611368.27043 -21454359.58642  20222232.408    20222230.303
  23735247.463    -9675791.70743  -7262526.48642  23735248.865    23735253.676
  24164605.360    -6687001.83743  -5171174.41942  24164606.109    24164608.009
  22371805.553   -19631614.74943 -15239734.82042  22371805.691    22371804.896
 04  5 20 21 48  0.0000000  0 10G22G 3G18G11G31G15G14G25G 9G19
  21451634.686    16882315.16643  13164953.93542  21451634.478    21451631.688
  23481923.021     -914402.81643   -691616.84942  23481923.387    23481926.545
  23687260.908    34858124.48243  27162112.28542  23687261.464    23687262.559
  23842873.282    -8796567.79243  -6791220.94842  23842874.417    23842874.781
  23104010.002   -12877414.90643  -9987507.27842  23104010.473    23104011.963
  21028150.526    -4697231.23243  -3645761.51842  21028150.125    21028150.875
  20222969.714   -27607488.40643 -21451336.30342  20222970.704    20222968.590
  23716063.726    -9776602.11343  -7341079.86042  23716065.139    23716069.875
  24178641.130    -6613243.22543  -5113700.16842  24178641.880    24178643.748
  22378012.959   -19598994.83843 -15214316.75742  22378013.101    22378012.297
 04  5 20 21 48 30.0000000  0 10G22G 3G18G11G31G15G14G25G 9G19
  21460252.878    16927603.88343  13200243.82142  21460252.664    21460249.869
  23497748.403     -831240.72843   -626815.36242  23497748.700    23497751.897
  23701889.881    34934999.63143  27222014.89742  23701890.375    23701891.568
  23824784.245    -8891625.68543  -6865291.95742  23824785.374    23824785.855
  23106478.667   -12864442.20143  -9977398.70842  23106479.145    23106480.614
  21042008.608    -4624406.66843  -3589015.18342  21042008.241    21042009.013
  20223801.574   -27603117.00443 -21447930.00342  20223802.557    20223800.435
  23696895.233    -9877332.77343  -7419571.09142  23696896.594    23696901.322
  24192768.044    -6539005.52843  -5055852.63542  24192768.772    24192770.732
  22384319.749   -19565852.57343 -15188491.66642  22384319.883    22384319.085
 04  5 20 21 49  0.0000000  0 10G22G 3G18G11G31G15G14G25G 9G19
  21468904.375    16973067.62543  13235670.08842  21468904.146    21468901.346
  23513607.213     -747902.77543   -561876.84042  23513607.479    23513610.726
  23716535.299    35011961.48143  27281985.05842  23716535.818    23716537.010
  23806728.964    -8986506.77343  -6939225.20242  23806730.020    23806730.500
  23109052.173   -12850918.71443  -9966860.95842  23109052.636    23109054.106
  21055948.657    -4551151.59543  -3531933.38442  21055948.271    21055949.060
  20224726.552   -27598256.25943 -21444142.39942  20224727.515    20224725.386
  23677742.263    -9977981.77843  -7497998.68542  23677743.623    23677748.231
  24206985.507    -6464292.42943  -4997634.61842  24206986.279    24206988.055
  22390725.428   -19532190.58343 -15162261.59342  22390725.598    22390724.783
 04  5 20 21 49 30.0000000  0 10G22G 3G18G11G31G15G14G25G 9G19
  21477588.978    17018705.51343  13271232.05342  21477588.766    21477585.948
  23529498.622     -664393.07843   -496804.49042  23529498.958    23529502.271
  23731197.182    35089009.58443  27342022.44442  23731197.652    23731198.838
  23788707.643    -9081209.49343  -7013019.46942  23788708.661    23788709.087
  23111730.040   -12836846.34143  -9955895.49942  23111730.520    23111732.050
  21069970.297    -4477467.87443  -3474517.58342  21069969.877    21069970.681
  20225744.235   -27592908.22643 -21439975.08942  20225745.202    20225743.076
  23658605.158   -10078547.61143  -7576361.48442  23658606.465    23658610.909
  24221292.769    -6389107.11543  -4939048.66342  24221293.545    24221295.536
  22397229.518   -19498011.43943 -15135628.54842  22397229.708    22397228.914
 04  5 20 21 50  0.0000000  0 10G22G 3G18G11G31G15G14G25G 9G19
  21486307.159    17064519.86743  13306931.52842  21486306.968    21486304.151
  23545422.648     -580712.22643   -431598.77142  23545422.964    23545426.346
  23745875.718    35166145.64843  27402128.36842  23745876.202    23745877.465
  23770721.036    -9175729.53643  -7086671.37342  23770722.075    23770722.417
  23114512.592   -12822223.85243  -9944501.39542  23114513.163    23114514.657
  21084073.627    -4403354.51343  -3416766.98842  21084073.244    21084074.054
  20226854.926   -27587071.39943 -21435426.90042  20226855.905    20226853.794
  23639484.919   -10179024.60143  -7654655.05642  23639486.233    23639490.604
  24235689.860    -6313449.69043  -4880094.82742  24235690.657    24235692.707
  22403832.141   -19463314.57943 -15108592.09442  22403832.343    22403831.571
 04  5 20 21 50 30.0000000  0 10G22G 3G18G11G31G15G14G25G 9G19
  21495058.256    17110507.01943  13342765.65042  21495058.051    21495055.252
  23561378.214     -496865.97743   -366264.17342  23561378.490    23561381.931
  23760570.518    35243366.77843  27462300.56742  23760570.944    23760572.307
  23752769.123    -9270067.66743  -7160181.55042  23752769.964    23752770.394
  23117399.121   -12807055.65743  -9932682.06642  23117399.652    23117401.120
  21098257.897    -4328815.98843  -3358685.10242  21098257.489    21098258.343
  20228057.819   -27580750.12343 -21430501.22042  20228058.783    20228056.703
  23620381.404   -10279413.44443  -7732879.94342  23620382.768    23620387.026
  24250175.736    -6237325.93543  -4820777.61242  24250176.453    24250178.607
  22410532.373   -19428105.07043 -15081156.17442  22410532.546    22410531.769
 04  5 20 21 51  0.0000000  0 10G22G 3G18G11G31G15G14G25G 9G19
  21503842.725    17156669.68643  13378736.53142  21503842.508    21503839.733
  23577365.152     -412854.52843   -300800.85842  23577365.429    23577368.918
  23775281.810    35320675.03943  27522540.66342  23775282.249    23775283.620
  23734852.766    -9364218.58143  -7233545.82742  23734853.621    23734853.982
  23120389.732   -12791340.06243  -9920436.18642  23120390.242    23120391.712
  21112523.346    -4253850.83243  -3300270.77042  21112522.957    21112523.811
  20229353.249   -27573942.66243 -21425196.69042  20229354.190    20229352.099
  23601295.804   -10379708.64543  -7811031.87442  23601297.062    23601301.352
  24264750.473    -6160735.53343  -4761096.78342  24264751.160    24264753.253
  22417330.283   -19392381.96843 -15053320.05442  22417330.458    22417329.671
 04  5 20 21 51 30.0000000  0 10G22G 3G18G11G31G15G14G25G 9G19
  21512660.182    17203005.65243  13414842.45142  21512659.958    21512657.208
  23593382.513     -328683.28543   -235213.02642  23593382.789    23593386.357
  23790009.337    35398068.08143  27582846.82242  23790009.675    23790011.212
  23716971.939    -9458182.31143  -7306764.24642  23716972.900    23716973.182
  23123483.853   -12775080.46843  -9907766.41642  23123484.354    23123485.870
  21126869.288    -4178462.74843  -3241526.88842  21126868.862    21126869.760
  20230740.506   -27566652.54843 -21419516.07242  20230741.439    20230739.359
  23582228.041   -10479909.49743  -7889110.28642  23582229.323    23582233.579
  24279413.075    -6083683.07143  -4701055.91442  24279413.788    24279415.763
  22424225.120   -19356149.30443 -15025086.87942  22424225.303    22424224.568
 04  5 20 21 52  0.0000000  0 10G22G 3G18G11G31G15G14G25G 9G19
  21521510.764    17249515.76543  13451084.07442  21521510.537    21521507.813
  23609429.921     -244354.02043   -169502.06242  23609430.211    23609433.849
  23804753.220    35475547.04843  27643219.93142  23804753.588    23804755.094
  23699127.395    -9551955.47443  -7379834.16942  23699128.398    23699128.710
  23126681.483   -12758277.06343  -9894672.88942  23126681.943    23126683.490
  21141295.613    -4102652.09043  -3182453.73042  21141295.207    21141296.121
  20232219.596   -27558879.76543 -21413459.34742  20232220.523    20232218.467
  23563179.085   -10580011.85643  -7967111.95542  23563180.321    23563184.538
  24294163.276    -6006169.81943  -4640655.96442  24294164.060    24294165.874
  22431216.879   -19319407.55443 -14996457.00642  22431217.033    22431216.327
